<?xml version="1.0" encoding="UTF-8" standalone="no" ?>
<gpx xmlns="http://www.topografix.com/GPX/1/1" xmlns:xsi="http://www.w3.org/2001/XMLSchema-instance" xsi:schemaLocation="http://www.topografix.com/GPX/1/1 http://www.topografix.com/GPX/1/1/gpx.xsd" version="1.1" creator="VisuGPX - https://www.visugpx.com">
  <metadata>
    <name>Vélo bleu - Circuit 8</name>
    <desc><![CDATA[Petit patrimoine sur ce circuit :
- Lavoirs de Harricourt, Biernes, Buchey, Rizaucourt, Beurville, Villiers-aux-chênes, Doulevant-le-Château, Arnancourt, Bouzancourt, Daillancourt, Champcourt.
- Chateaux de Tremilly et de Nully.]]></desc>
  </metadata>
  <wpt lat="48.37837" lon="4.92334">
    <ele>210.1</ele>
    <name><![CDATA[Point de parcou]]></name>
    <type><![CDATA[GENERIC]]></type>
  </wpt>
  <trk>
    <name><![CDATA[circuit 8]]></name>
    <trkseg>
      <trkpt lat="48.2756" lon="4.94771">
        <ele>268.71</ele>
        <time>2025-01-03T13:43:51.000Z</time>
      </trkpt>
      <trkpt lat="48.2756" lon="4.94771">
        <ele>268.92</ele>
        <time>2025-01-03T13:43:51.000Z</time>
      </trkpt>
      <trkpt lat="48.27556" lon="4.9477">
        <ele>269.13</ele>
        <time>2025-01-03T13:43:51.001Z</time>
      </trkpt>
      <trkpt lat="48.27548" lon="4.94775">
        <ele>269.32</ele>
        <time>2025-01-03T13:43:51.003Z</time>
      </trkpt>
      <trkpt lat="48.27544" lon="4.94766">
        <ele>269.58</ele>
        <time>2025-01-03T13:43:51.006Z</time>
      </trkpt>
      <trkpt lat="48.27537" lon="4.94748">
        <ele>269.92</ele>
        <time>2025-01-03T13:43:51.012Z</time>
      </trkpt>
      <trkpt lat="48.27523" lon="4.9471">
        <ele>270.42</ele>
        <time>2025-01-03T13:43:51.022Z</time>
      </trkpt>
      <trkpt lat="48.27515" lon="4.94689">
        <ele>271.08</ele>
        <time>2025-01-03T13:43:51.035Z</time>
      </trkpt>
      <trkpt lat="48.27507" lon="4.94669">
        <ele>271.82</ele>
        <time>2025-01-03T13:43:51.050Z</time>
      </trkpt>
      <trkpt lat="48.27498" lon="4.94645">
        <ele>272.56</ele>
        <time>2025-01-03T13:43:51.068Z</time>
      </trkpt>
      <trkpt lat="48.27489" lon="4.94622">
        <ele>273.31</ele>
        <time>2025-01-03T13:43:51.089Z</time>
      </trkpt>
      <trkpt lat="48.2748" lon="4.94593">
        <ele>274.17</ele>
        <time>2025-01-03T13:43:51.113Z</time>
      </trkpt>
      <trkpt lat="48.2747" lon="4.94564">
        <ele>275.09</ele>
        <time>2025-01-03T13:43:51.141Z</time>
      </trkpt>
      <trkpt lat="48.27464" lon="4.94537">
        <ele>276.11</ele>
        <time>2025-01-03T13:43:51.172Z</time>
      </trkpt>
      <trkpt lat="48.27456" lon="4.94501">
        <ele>277.2</ele>
        <time>2025-01-03T13:43:51.207Z</time>
      </trkpt>
      <trkpt lat="48.2745" lon="4.94474">
        <ele>278.16</ele>
        <time>2025-01-03T13:43:51.245Z</time>
      </trkpt>
      <trkpt lat="48.27444" lon="4.94447">
        <ele>279.06</ele>
        <time>2025-01-03T13:43:51.286Z</time>
      </trkpt>
      <trkpt lat="48.27437" lon="4.94419">
        <ele>279.91</ele>
        <time>2025-01-03T13:43:51.330Z</time>
      </trkpt>
      <trkpt lat="48.27431" lon="4.94391">
        <ele>280.68</ele>
        <time>2025-01-03T13:43:51.378Z</time>
      </trkpt>
      <trkpt lat="48.27425" lon="4.94365">
        <ele>281.46</ele>
        <time>2025-01-03T13:43:51.428Z</time>
      </trkpt>
      <trkpt lat="48.27419" lon="4.94339">
        <ele>282.14</ele>
        <time>2025-01-03T13:43:51.481Z</time>
      </trkpt>
      <trkpt lat="48.27413" lon="4.94313">
        <ele>282.72</ele>
        <time>2025-01-03T13:43:51.537Z</time>
      </trkpt>
      <trkpt lat="48.27408" lon="4.94288">
        <ele>283.25</ele>
        <time>2025-01-03T13:43:51.596Z</time>
      </trkpt>
      <trkpt lat="48.27402" lon="4.94265">
        <ele>283.96</ele>
        <time>2025-01-03T13:43:51.658Z</time>
      </trkpt>
      <trkpt lat="48.27397" lon="4.94241">
        <ele>284.73</ele>
        <time>2025-01-03T13:43:51.722Z</time>
      </trkpt>
      <trkpt lat="48.2739" lon="4.94215">
        <ele>285.52</ele>
        <time>2025-01-03T13:43:51.789Z</time>
      </trkpt>
      <trkpt lat="48.27383" lon="4.94188">
        <ele>286.39</ele>
        <time>2025-01-03T13:43:51.860Z</time>
      </trkpt>
      <trkpt lat="48.27376" lon="4.94161">
        <ele>287.26</ele>
        <time>2025-01-03T13:43:51.934Z</time>
      </trkpt>
      <trkpt lat="48.27369" lon="4.94135">
        <ele>288.13</ele>
        <time>2025-01-03T13:43:52.011Z</time>
      </trkpt>
      <trkpt lat="48.27363" lon="4.94111">
        <ele>289.01</ele>
        <time>2025-01-03T13:43:52.090Z</time>
      </trkpt>
      <trkpt lat="48.27357" lon="4.94088">
        <ele>289.89</ele>
        <time>2025-01-03T13:43:52.172Z</time>
      </trkpt>
      <trkpt lat="48.27351" lon="4.94063">
        <ele>290.76</ele>
        <time>2025-01-03T13:43:52.257Z</time>
      </trkpt>
      <trkpt lat="48.27344" lon="4.94038">
        <ele>291.7</ele>
        <time>2025-01-03T13:43:52.345Z</time>
      </trkpt>
      <trkpt lat="48.27337" lon="4.94011">
        <ele>292.68</ele>
        <time>2025-01-03T13:43:52.436Z</time>
      </trkpt>
      <trkpt lat="48.2733" lon="4.93983">
        <ele>293.75</ele>
        <time>2025-01-03T13:43:52.530Z</time>
      </trkpt>
      <trkpt lat="48.27323" lon="4.93955">
        <ele>294.87</ele>
        <time>2025-01-03T13:43:52.627Z</time>
      </trkpt>
      <trkpt lat="48.27316" lon="4.93927">
        <ele>295.95</ele>
        <time>2025-01-03T13:43:52.727Z</time>
      </trkpt>
      <trkpt lat="48.27307" lon="4.93896">
        <ele>297.02</ele>
        <time>2025-01-03T13:43:52.831Z</time>
      </trkpt>
      <trkpt lat="48.27299" lon="4.93864">
        <ele>298.09</ele>
        <time>2025-01-03T13:43:52.939Z</time>
      </trkpt>
      <trkpt lat="48.2729" lon="4.93827">
        <ele>299.11</ele>
        <time>2025-01-03T13:43:53.051Z</time>
      </trkpt>
      <trkpt lat="48.2728" lon="4.9379">
        <ele>300.22</ele>
        <time>2025-01-03T13:43:53.167Z</time>
      </trkpt>
      <trkpt lat="48.27271" lon="4.93755">
        <ele>301.25</ele>
        <time>2025-01-03T13:43:53.287Z</time>
      </trkpt>
      <trkpt lat="48.27262" lon="4.93721">
        <ele>302.35</ele>
        <time>2025-01-03T13:43:53.411Z</time>
      </trkpt>
      <trkpt lat="48.27256" lon="4.93692">
        <ele>303.45</ele>
        <time>2025-01-03T13:43:53.538Z</time>
      </trkpt>
      <trkpt lat="48.2725" lon="4.93663">
        <ele>304.63</ele>
        <time>2025-01-03T13:43:53.668Z</time>
      </trkpt>
      <trkpt lat="48.27244" lon="4.93629">
        <ele>305.83</ele>
        <time>2025-01-03T13:43:53.802Z</time>
      </trkpt>
      <trkpt lat="48.27235" lon="4.93584">
        <ele>307.03</ele>
        <time>2025-01-03T13:43:53.941Z</time>
      </trkpt>
      <trkpt lat="48.27231" lon="4.9356">
        <ele>308.18</ele>
        <time>2025-01-03T13:43:54.083Z</time>
      </trkpt>
      <trkpt lat="48.27226" lon="4.93535">
        <ele>309.3</ele>
        <time>2025-01-03T13:43:54.228Z</time>
      </trkpt>
      <trkpt lat="48.27219" lon="4.93495">
        <ele>310.44</ele>
        <time>2025-01-03T13:43:54.377Z</time>
      </trkpt>
      <trkpt lat="48.27212" lon="4.93461">
        <ele>311.54</ele>
        <time>2025-01-03T13:43:54.530Z</time>
      </trkpt>
      <trkpt lat="48.27207" lon="4.93434">
        <ele>312.66</ele>
        <time>2025-01-03T13:43:54.686Z</time>
      </trkpt>
      <trkpt lat="48.27202" lon="4.934">
        <ele>313.79</ele>
        <time>2025-01-03T13:43:54.846Z</time>
      </trkpt>
      <trkpt lat="48.27196" lon="4.93364">
        <ele>314.88</ele>
        <time>2025-01-03T13:43:55.010Z</time>
      </trkpt>
      <trkpt lat="48.27189" lon="4.93322">
        <ele>315.87</ele>
        <time>2025-01-03T13:43:55.178Z</time>
      </trkpt>
      <trkpt lat="48.27185" lon="4.93296">
        <ele>316.76</ele>
        <time>2025-01-03T13:43:55.349Z</time>
      </trkpt>
      <trkpt lat="48.27181" lon="4.9327">
        <ele>317.61</ele>
        <time>2025-01-03T13:43:55.523Z</time>
      </trkpt>
      <trkpt lat="48.27177" lon="4.93245">
        <ele>318.4</ele>
        <time>2025-01-03T13:43:55.700Z</time>
      </trkpt>
      <trkpt lat="48.27173" lon="4.9322">
        <ele>319.12</ele>
        <time>2025-01-03T13:43:55.879Z</time>
      </trkpt>
      <trkpt lat="48.27168" lon="4.93185">
        <ele>319.73</ele>
        <time>2025-01-03T13:43:56.062Z</time>
      </trkpt>
      <trkpt lat="48.27163" lon="4.9315">
        <ele>320.3</ele>
        <time>2025-01-03T13:43:56.249Z</time>
      </trkpt>
      <trkpt lat="48.27161" lon="4.9312">
        <ele>320.78</ele>
        <time>2025-01-03T13:43:56.439Z</time>
      </trkpt>
      <trkpt lat="48.27159" lon="4.9309">
        <ele>321.2</ele>
        <time>2025-01-03T13:43:56.633Z</time>
      </trkpt>
      <trkpt lat="48.27157" lon="4.93061">
        <ele>321.42</ele>
        <time>2025-01-03T13:43:56.830Z</time>
      </trkpt>
      <trkpt lat="48.27156" lon="4.93033">
        <ele>321.54</ele>
        <time>2025-01-03T13:43:57.030Z</time>
      </trkpt>
      <trkpt lat="48.27154" lon="4.93002">
        <ele>321.55</ele>
        <time>2025-01-03T13:43:57.233Z</time>
      </trkpt>
      <trkpt lat="48.27152" lon="4.92971">
        <ele>321.5</ele>
        <time>2025-01-03T13:43:57.439Z</time>
      </trkpt>
      <trkpt lat="48.27153" lon="4.92932">
        <ele>321.38</ele>
        <time>2025-01-03T13:43:57.649Z</time>
      </trkpt>
      <trkpt lat="48.27153" lon="4.92894">
        <ele>321.16</ele>
        <time>2025-01-03T13:43:57.864Z</time>
      </trkpt>
      <trkpt lat="48.27154" lon="4.92859">
        <ele>320.83</ele>
        <time>2025-01-03T13:43:58.082Z</time>
      </trkpt>
      <trkpt lat="48.27155" lon="4.92825">
        <ele>320.39</ele>
        <time>2025-01-03T13:43:58.304Z</time>
      </trkpt>
      <trkpt lat="48.27157" lon="4.92793">
        <ele>319.85</ele>
        <time>2025-01-03T13:43:58.529Z</time>
      </trkpt>
      <trkpt lat="48.27159" lon="4.92752">
        <ele>319.17</ele>
        <time>2025-01-03T13:43:58.759Z</time>
      </trkpt>
      <trkpt lat="48.27161" lon="4.92727">
        <ele>318.52</ele>
        <time>2025-01-03T13:43:58.991Z</time>
      </trkpt>
      <trkpt lat="48.27163" lon="4.92702">
        <ele>317.85</ele>
        <time>2025-01-03T13:43:59.226Z</time>
      </trkpt>
      <trkpt lat="48.27166" lon="4.92658">
        <ele>317.02</ele>
        <time>2025-01-03T13:43:59.466Z</time>
      </trkpt>
      <trkpt lat="48.27169" lon="4.92615">
        <ele>316.2</ele>
        <time>2025-01-03T13:43:59.711Z</time>
      </trkpt>
      <trkpt lat="48.27167" lon="4.92586">
        <ele>315.38</ele>
        <time>2025-01-03T13:43:59.959Z</time>
      </trkpt>
      <trkpt lat="48.27165" lon="4.92557">
        <ele>314.55</ele>
        <time>2025-01-03T13:44:00.210Z</time>
      </trkpt>
      <trkpt lat="48.27161" lon="4.92514">
        <ele>313.68</ele>
        <time>2025-01-03T13:44:00.465Z</time>
      </trkpt>
      <trkpt lat="48.27157" lon="4.92472">
        <ele>312.97</ele>
        <time>2025-01-03T13:44:00.725Z</time>
      </trkpt>
      <trkpt lat="48.27155" lon="4.92438">
        <ele>312.27</ele>
        <time>2025-01-03T13:44:00.989Z</time>
      </trkpt>
      <trkpt lat="48.27153" lon="4.92405">
        <ele>311.57</ele>
        <time>2025-01-03T13:44:01.256Z</time>
      </trkpt>
      <trkpt lat="48.27154" lon="4.92389">
        <ele>310.96</ele>
        <time>2025-01-03T13:44:01.525Z</time>
      </trkpt>
      <trkpt lat="48.27167" lon="4.92347">
        <ele>310.46</ele>
        <time>2025-01-03T13:44:01.799Z</time>
      </trkpt>
      <trkpt lat="48.27178" lon="4.92317">
        <ele>310.08</ele>
        <time>2025-01-03T13:44:02.076Z</time>
      </trkpt>
      <trkpt lat="48.2719" lon="4.92286">
        <ele>309.78</ele>
        <time>2025-01-03T13:44:02.357Z</time>
      </trkpt>
      <trkpt lat="48.27207" lon="4.92252">
        <ele>309.55</ele>
        <time>2025-01-03T13:44:02.643Z</time>
      </trkpt>
      <trkpt lat="48.27223" lon="4.92218">
        <ele>309.35</ele>
        <time>2025-01-03T13:44:02.933Z</time>
      </trkpt>
      <trkpt lat="48.27233" lon="4.92191">
        <ele>309.18</ele>
        <time>2025-01-03T13:44:03.226Z</time>
      </trkpt>
      <trkpt lat="48.27237" lon="4.92174">
        <ele>309.09</ele>
        <time>2025-01-03T13:44:03.521Z</time>
      </trkpt>
      <trkpt lat="48.2724" lon="4.92146">
        <ele>309.01</ele>
        <time>2025-01-03T13:44:03.819Z</time>
      </trkpt>
      <trkpt lat="48.27243" lon="4.92119">
        <ele>308.94</ele>
        <time>2025-01-03T13:44:04.120Z</time>
      </trkpt>
      <trkpt lat="48.27246" lon="4.92093">
        <ele>308.96</ele>
        <time>2025-01-03T13:44:04.424Z</time>
      </trkpt>
      <trkpt lat="48.27249" lon="4.92067">
        <ele>309.01</ele>
        <time>2025-01-03T13:44:04.731Z</time>
      </trkpt>
      <trkpt lat="48.27252" lon="4.92037">
        <ele>309.13</ele>
        <time>2025-01-03T13:44:05.041Z</time>
      </trkpt>
      <trkpt lat="48.27256" lon="4.92008">
        <ele>309.23</ele>
        <time>2025-01-03T13:44:05.354Z</time>
      </trkpt>
      <trkpt lat="48.27257" lon="4.91993">
        <ele>309.34</ele>
        <time>2025-01-03T13:44:05.669Z</time>
      </trkpt>
      <trkpt lat="48.27259" lon="4.91973">
        <ele>309.49</ele>
        <time>2025-01-03T13:44:05.986Z</time>
      </trkpt>
      <trkpt lat="48.27261" lon="4.91955">
        <ele>309.62</ele>
        <time>2025-01-03T13:44:06.305Z</time>
      </trkpt>
      <trkpt lat="48.27261" lon="4.91938">
        <ele>309.75</ele>
        <time>2025-01-03T13:44:06.626Z</time>
      </trkpt>
      <trkpt lat="48.27254" lon="4.91931">
        <ele>309.86</ele>
        <time>2025-01-03T13:44:06.948Z</time>
      </trkpt>
      <trkpt lat="48.27245" lon="4.91922">
        <ele>309.94</ele>
        <time>2025-01-03T13:44:07.272Z</time>
      </trkpt>
      <trkpt lat="48.27225" lon="4.9191">
        <ele>310.03</ele>
        <time>2025-01-03T13:44:07.599Z</time>
      </trkpt>
      <trkpt lat="48.27218" lon="4.91907">
        <ele>310.14</ele>
        <time>2025-01-03T13:44:07.928Z</time>
      </trkpt>
      <trkpt lat="48.27214" lon="4.91907">
        <ele>310.25</ele>
        <time>2025-01-03T13:44:08.257Z</time>
      </trkpt>
      <trkpt lat="48.27213" lon="4.91908">
        <ele>310.36</ele>
        <time>2025-01-03T13:44:08.587Z</time>
      </trkpt>
      <trkpt lat="48.27208" lon="4.9191">
        <ele>310.46</ele>
        <time>2025-01-03T13:44:08.917Z</time>
      </trkpt>
      <trkpt lat="48.27204" lon="4.91911">
        <ele>310.56</ele>
        <time>2025-01-03T13:44:09.248Z</time>
      </trkpt>
      <trkpt lat="48.2719" lon="4.91916">
        <ele>310.63</ele>
        <time>2025-01-03T13:44:09.581Z</time>
      </trkpt>
      <trkpt lat="48.27161" lon="4.91921">
        <ele>310.75</ele>
        <time>2025-01-03T13:44:09.919Z</time>
      </trkpt>
      <trkpt lat="48.27144" lon="4.91924">
        <ele>310.85</ele>
        <time>2025-01-03T13:44:10.260Z</time>
      </trkpt>
      <trkpt lat="48.27126" lon="4.91927">
        <ele>310.92</ele>
        <time>2025-01-03T13:44:10.604Z</time>
      </trkpt>
      <trkpt lat="48.27111" lon="4.91922">
        <ele>310.98</ele>
        <time>2025-01-03T13:44:10.950Z</time>
      </trkpt>
      <trkpt lat="48.27095" lon="4.91917">
        <ele>311.07</ele>
        <time>2025-01-03T13:44:11.299Z</time>
      </trkpt>
      <trkpt lat="48.27079" lon="4.91909">
        <ele>311.16</ele>
        <time>2025-01-03T13:44:11.650Z</time>
      </trkpt>
      <trkpt lat="48.27075" lon="4.91905">
        <ele>311.2</ele>
        <time>2025-01-03T13:44:12.002Z</time>
      </trkpt>
      <trkpt lat="48.27072" lon="4.919">
        <ele>311.21</ele>
        <time>2025-01-03T13:44:12.355Z</time>
      </trkpt>
      <trkpt lat="48.27065" lon="4.9189">
        <ele>311.2</ele>
        <time>2025-01-03T13:44:12.709Z</time>
      </trkpt>
      <trkpt lat="48.27058" lon="4.91881">
        <ele>311.17</ele>
        <time>2025-01-03T13:44:13.065Z</time>
      </trkpt>
      <trkpt lat="48.27043" lon="4.9185">
        <ele>311.18</ele>
        <time>2025-01-03T13:44:13.425Z</time>
      </trkpt>
      <trkpt lat="48.27028" lon="4.91818">
        <ele>311.14</ele>
        <time>2025-01-03T13:44:13.789Z</time>
      </trkpt>
      <trkpt lat="48.27016" lon="4.918">
        <ele>311.08</ele>
        <time>2025-01-03T13:44:14.156Z</time>
      </trkpt>
      <trkpt lat="48.27005" lon="4.91782">
        <ele>310.98</ele>
        <time>2025-01-03T13:44:14.526Z</time>
      </trkpt>
      <trkpt lat="48.2699" lon="4.91765">
        <ele>310.84</ele>
        <time>2025-01-03T13:44:14.898Z</time>
      </trkpt>
      <trkpt lat="48.26976" lon="4.91748">
        <ele>310.62</ele>
        <time>2025-01-03T13:44:15.273Z</time>
      </trkpt>
      <trkpt lat="48.26955" lon="4.91731">
        <ele>310.35</ele>
        <time>2025-01-03T13:44:15.652Z</time>
      </trkpt>
      <trkpt lat="48.26933" lon="4.91715">
        <ele>310.07</ele>
        <time>2025-01-03T13:44:16.035Z</time>
      </trkpt>
      <trkpt lat="48.26911" lon="4.91706">
        <ele>309.85</ele>
        <time>2025-01-03T13:44:16.422Z</time>
      </trkpt>
      <trkpt lat="48.2689" lon="4.91698">
        <ele>309.68</ele>
        <time>2025-01-03T13:44:16.812Z</time>
      </trkpt>
      <trkpt lat="48.26875" lon="4.91685">
        <ele>309.5</ele>
        <time>2025-01-03T13:44:17.205Z</time>
      </trkpt>
      <trkpt lat="48.26868" lon="4.91676">
        <ele>309.35</ele>
        <time>2025-01-03T13:44:17.600Z</time>
      </trkpt>
      <trkpt lat="48.26847" lon="4.91649">
        <ele>309.23</ele>
        <time>2025-01-03T13:44:17.999Z</time>
      </trkpt>
      <trkpt lat="48.2684" lon="4.9164">
        <ele>309.14</ele>
        <time>2025-01-03T13:44:18.400Z</time>
      </trkpt>
      <trkpt lat="48.26831" lon="4.91634">
        <ele>309.08</ele>
        <time>2025-01-03T13:44:18.802Z</time>
      </trkpt>
      <trkpt lat="48.26814" lon="4.91629">
        <ele>309.03</ele>
        <time>2025-01-03T13:44:19.207Z</time>
      </trkpt>
      <trkpt lat="48.26792" lon="4.91629">
        <ele>309.04</ele>
        <time>2025-01-03T13:44:19.615Z</time>
      </trkpt>
      <trkpt lat="48.2677" lon="4.91629">
        <ele>309.14</ele>
        <time>2025-01-03T13:44:20.027Z</time>
      </trkpt>
      <trkpt lat="48.26747" lon="4.9163">
        <ele>309.26</ele>
        <time>2025-01-03T13:44:20.443Z</time>
      </trkpt>
      <trkpt lat="48.26724" lon="4.91631">
        <ele>309.46</ele>
        <time>2025-01-03T13:44:20.862Z</time>
      </trkpt>
      <trkpt lat="48.26702" lon="4.91629">
        <ele>309.67</ele>
        <time>2025-01-03T13:44:21.285Z</time>
      </trkpt>
      <trkpt lat="48.2668" lon="4.91627">
        <ele>309.93</ele>
        <time>2025-01-03T13:44:21.711Z</time>
      </trkpt>
      <trkpt lat="48.26653" lon="4.9162">
        <ele>310.24</ele>
        <time>2025-01-03T13:44:22.142Z</time>
      </trkpt>
      <trkpt lat="48.26626" lon="4.91614">
        <ele>310.53</ele>
        <time>2025-01-03T13:44:22.577Z</time>
      </trkpt>
      <trkpt lat="48.26602" lon="4.91608">
        <ele>310.82</ele>
        <time>2025-01-03T13:44:23.016Z</time>
      </trkpt>
      <trkpt lat="48.26578" lon="4.91602">
        <ele>311.17</ele>
        <time>2025-01-03T13:44:23.459Z</time>
      </trkpt>
      <trkpt lat="48.26551" lon="4.91596">
        <ele>311.55</ele>
        <time>2025-01-03T13:44:23.906Z</time>
      </trkpt>
      <trkpt lat="48.26528" lon="4.9159">
        <ele>312.05</ele>
        <time>2025-01-03T13:44:24.357Z</time>
      </trkpt>
      <trkpt lat="48.2651" lon="4.91586">
        <ele>312.5</ele>
        <time>2025-01-03T13:44:24.811Z</time>
      </trkpt>
      <trkpt lat="48.26483" lon="4.91579">
        <ele>312.97</ele>
        <time>2025-01-03T13:44:25.269Z</time>
      </trkpt>
      <trkpt lat="48.26468" lon="4.91575">
        <ele>313.39</ele>
        <time>2025-01-03T13:44:25.730Z</time>
      </trkpt>
      <trkpt lat="48.26452" lon="4.91571">
        <ele>313.81</ele>
        <time>2025-01-03T13:44:26.193Z</time>
      </trkpt>
      <trkpt lat="48.26435" lon="4.91565">
        <ele>314.23</ele>
        <time>2025-01-03T13:44:26.659Z</time>
      </trkpt>
      <trkpt lat="48.26422" lon="4.91559">
        <ele>314.63</ele>
        <time>2025-01-03T13:44:27.127Z</time>
      </trkpt>
      <trkpt lat="48.26394" lon="4.91541">
        <ele>315.02</ele>
        <time>2025-01-03T13:44:27.600Z</time>
      </trkpt>
      <trkpt lat="48.26376" lon="4.91531">
        <ele>315.35</ele>
        <time>2025-01-03T13:44:28.076Z</time>
      </trkpt>
      <trkpt lat="48.26358" lon="4.9152">
        <ele>315.63</ele>
        <time>2025-01-03T13:44:28.555Z</time>
      </trkpt>
      <trkpt lat="48.26332" lon="4.91523">
        <ele>315.86</ele>
        <time>2025-01-03T13:44:29.038Z</time>
      </trkpt>
      <trkpt lat="48.26327" lon="4.91523">
        <ele>316.13</ele>
        <time>2025-01-03T13:44:29.522Z</time>
      </trkpt>
      <trkpt lat="48.26308" lon="4.91527">
        <ele>316.43</ele>
        <time>2025-01-03T13:44:30.009Z</time>
      </trkpt>
      <trkpt lat="48.2629" lon="4.91531">
        <ele>316.72</ele>
        <time>2025-01-03T13:44:30.499Z</time>
      </trkpt>
      <trkpt lat="48.26259" lon="4.91534">
        <ele>317.04</ele>
        <time>2025-01-03T13:44:30.994Z</time>
      </trkpt>
      <trkpt lat="48.26243" lon="4.91534">
        <ele>317.24</ele>
        <time>2025-01-03T13:44:31.492Z</time>
      </trkpt>
      <trkpt lat="48.26235" lon="4.91533">
        <ele>317.37</ele>
        <time>2025-01-03T13:44:31.991Z</time>
      </trkpt>
      <trkpt lat="48.26221" lon="4.91517">
        <ele>317.48</ele>
        <time>2025-01-03T13:44:32.493Z</time>
      </trkpt>
      <trkpt lat="48.26213" lon="4.91482">
        <ele>317.5</ele>
        <time>2025-01-03T13:44:32.999Z</time>
      </trkpt>
      <trkpt lat="48.26211" lon="4.91476">
        <ele>317.55</ele>
        <time>2025-01-03T13:44:33.506Z</time>
      </trkpt>
      <trkpt lat="48.26197" lon="4.91454">
        <ele>317.57</ele>
        <time>2025-01-03T13:44:34.016Z</time>
      </trkpt>
      <trkpt lat="48.26196" lon="4.91439">
        <ele>317.54</ele>
        <time>2025-01-03T13:44:34.527Z</time>
      </trkpt>
      <trkpt lat="48.26194" lon="4.91425">
        <ele>317.49</ele>
        <time>2025-01-03T13:44:35.040Z</time>
      </trkpt>
      <trkpt lat="48.26194" lon="4.91418">
        <ele>317.43</ele>
        <time>2025-01-03T13:44:35.554Z</time>
      </trkpt>
      <trkpt lat="48.26192" lon="4.91388">
        <ele>317.28</ele>
        <time>2025-01-03T13:44:36.071Z</time>
      </trkpt>
      <trkpt lat="48.26192" lon="4.9137">
        <ele>317.17</ele>
        <time>2025-01-03T13:44:36.590Z</time>
      </trkpt>
      <trkpt lat="48.26197" lon="4.91347">
        <ele>317.06</ele>
        <time>2025-01-03T13:44:37.111Z</time>
      </trkpt>
      <trkpt lat="48.26203" lon="4.91324">
        <ele>316.94</ele>
        <time>2025-01-03T13:44:37.635Z</time>
      </trkpt>
      <trkpt lat="48.26211" lon="4.91302">
        <ele>316.84</ele>
        <time>2025-01-03T13:44:38.162Z</time>
      </trkpt>
      <trkpt lat="48.26218" lon="4.91285">
        <ele>316.75</ele>
        <time>2025-01-03T13:44:38.691Z</time>
      </trkpt>
      <trkpt lat="48.26219" lon="4.91282">
        <ele>316.71</ele>
        <time>2025-01-03T13:44:39.220Z</time>
      </trkpt>
      <trkpt lat="48.26214" lon="4.91294">
        <ele>316.71</ele>
        <time>2025-01-03T13:44:39.751Z</time>
      </trkpt>
      <trkpt lat="48.26203" lon="4.91322">
        <ele>316.77</ele>
        <time>2025-01-03T13:44:40.285Z</time>
      </trkpt>
      <trkpt lat="48.26196" lon="4.91353">
        <ele>316.84</ele>
        <time>2025-01-03T13:44:40.823Z</time>
      </trkpt>
      <trkpt lat="48.26191" lon="4.91378">
        <ele>316.89</ele>
        <time>2025-01-03T13:44:41.363Z</time>
      </trkpt>
      <trkpt lat="48.26193" lon="4.91407">
        <ele>316.98</ele>
        <time>2025-01-03T13:44:41.907Z</time>
      </trkpt>
      <trkpt lat="48.26195" lon="4.91436">
        <ele>317.06</ele>
        <time>2025-01-03T13:44:42.454Z</time>
      </trkpt>
      <trkpt lat="48.26197" lon="4.91454">
        <ele>317.57</ele>
        <time>2025-01-03T13:44:43.003Z</time>
      </trkpt>
      <trkpt lat="48.26208" lon="4.91478">
        <ele>317.02</ele>
        <time>2025-01-03T13:44:43.555Z</time>
      </trkpt>
      <trkpt lat="48.26218" lon="4.91502">
        <ele>316.98</ele>
        <time>2025-01-03T13:44:44.110Z</time>
      </trkpt>
      <trkpt lat="48.26223" lon="4.91523">
        <ele>316.91</ele>
        <time>2025-01-03T13:44:44.667Z</time>
      </trkpt>
      <trkpt lat="48.26235" lon="4.91533">
        <ele>316.78</ele>
        <time>2025-01-03T13:44:45.226Z</time>
      </trkpt>
      <trkpt lat="48.26261" lon="4.91535">
        <ele>316.6</ele>
        <time>2025-01-03T13:44:45.790Z</time>
      </trkpt>
      <trkpt lat="48.26266" lon="4.91535">
        <ele>316.42</ele>
        <time>2025-01-03T13:44:46.354Z</time>
      </trkpt>
      <trkpt lat="48.26295" lon="4.9153">
        <ele>316.08</ele>
        <time>2025-01-03T13:44:46.923Z</time>
      </trkpt>
      <trkpt lat="48.26321" lon="4.91525">
        <ele>315.76</ele>
        <time>2025-01-03T13:44:47.496Z</time>
      </trkpt>
      <trkpt lat="48.26348" lon="4.91521">
        <ele>315.53</ele>
        <time>2025-01-03T13:44:48.073Z</time>
      </trkpt>
      <trkpt lat="48.26364" lon="4.91527">
        <ele>315.28</ele>
        <time>2025-01-03T13:44:48.653Z</time>
      </trkpt>
      <trkpt lat="48.26381" lon="4.91533">
        <ele>315.03</ele>
        <time>2025-01-03T13:44:49.236Z</time>
      </trkpt>
      <trkpt lat="48.26405" lon="4.91548">
        <ele>314.7</ele>
        <time>2025-01-03T13:44:49.823Z</time>
      </trkpt>
      <trkpt lat="48.26429" lon="4.91563">
        <ele>314.32</ele>
        <time>2025-01-03T13:44:50.414Z</time>
      </trkpt>
      <trkpt lat="48.2645" lon="4.91569">
        <ele>313.92</ele>
        <time>2025-01-03T13:44:51.009Z</time>
      </trkpt>
      <trkpt lat="48.26471" lon="4.91576">
        <ele>313.52</ele>
        <time>2025-01-03T13:44:51.607Z</time>
      </trkpt>
      <trkpt lat="48.26494" lon="4.91582">
        <ele>313.12</ele>
        <time>2025-01-03T13:44:52.209Z</time>
      </trkpt>
      <trkpt lat="48.26516" lon="4.91587">
        <ele>312.66</ele>
        <time>2025-01-03T13:44:52.815Z</time>
      </trkpt>
      <trkpt lat="48.26538" lon="4.91592">
        <ele>312.18</ele>
        <time>2025-01-03T13:44:53.424Z</time>
      </trkpt>
      <trkpt lat="48.26559" lon="4.91597">
        <ele>311.73</ele>
        <time>2025-01-03T13:44:54.036Z</time>
      </trkpt>
      <trkpt lat="48.26589" lon="4.91605">
        <ele>311.35</ele>
        <time>2025-01-03T13:44:54.653Z</time>
      </trkpt>
      <trkpt lat="48.2662" lon="4.91612">
        <ele>311.01</ele>
        <time>2025-01-03T13:44:55.275Z</time>
      </trkpt>
      <trkpt lat="48.26647" lon="4.91619">
        <ele>310.68</ele>
        <time>2025-01-03T13:44:55.902Z</time>
      </trkpt>
      <trkpt lat="48.26674" lon="4.91625">
        <ele>310.33</ele>
        <time>2025-01-03T13:44:56.533Z</time>
      </trkpt>
      <trkpt lat="48.26692" lon="4.91628">
        <ele>310</ele>
        <time>2025-01-03T13:44:57.167Z</time>
      </trkpt>
      <trkpt lat="48.2671" lon="4.91631">
        <ele>309.71</ele>
        <time>2025-01-03T13:44:57.804Z</time>
      </trkpt>
      <trkpt lat="48.26728" lon="4.91631">
        <ele>309.45</ele>
        <time>2025-01-03T13:44:58.444Z</time>
      </trkpt>
      <trkpt lat="48.26747" lon="4.9163">
        <ele>309.19</ele>
        <time>2025-01-03T13:44:59.087Z</time>
      </trkpt>
      <trkpt lat="48.26773" lon="4.91629">
        <ele>309</ele>
        <time>2025-01-03T13:44:59.734Z</time>
      </trkpt>
      <trkpt lat="48.26798" lon="4.91628">
        <ele>308.81</ele>
        <time>2025-01-03T13:45:00.385Z</time>
      </trkpt>
      <trkpt lat="48.26828" lon="4.91633">
        <ele>308.74</ele>
        <time>2025-01-03T13:45:01.041Z</time>
      </trkpt>
      <trkpt lat="48.26836" lon="4.91636">
        <ele>308.66</ele>
        <time>2025-01-03T13:45:01.698Z</time>
      </trkpt>
      <trkpt lat="48.26841" lon="4.91642">
        <ele>308.61</ele>
        <time>2025-01-03T13:45:02.356Z</time>
      </trkpt>
      <trkpt lat="48.26858" lon="4.91663">
        <ele>308.58</ele>
        <time>2025-01-03T13:45:03.018Z</time>
      </trkpt>
      <trkpt lat="48.2688" lon="4.91692">
        <ele>308.62</ele>
        <time>2025-01-03T13:45:03.684Z</time>
      </trkpt>
      <trkpt lat="48.26885" lon="4.91696">
        <ele>308.63</ele>
        <time>2025-01-03T13:45:04.351Z</time>
      </trkpt>
      <trkpt lat="48.26902" lon="4.91705">
        <ele>308.65</ele>
        <time>2025-01-03T13:45:05.021Z</time>
      </trkpt>
      <trkpt lat="48.26921" lon="4.91712">
        <ele>308.71</ele>
        <time>2025-01-03T13:45:05.694Z</time>
      </trkpt>
      <trkpt lat="48.2694" lon="4.91719">
        <ele>308.8</ele>
        <time>2025-01-03T13:45:06.371Z</time>
      </trkpt>
      <trkpt lat="48.26956" lon="4.91732">
        <ele>308.92</ele>
        <time>2025-01-03T13:45:07.050Z</time>
      </trkpt>
      <trkpt lat="48.26971" lon="4.91744">
        <ele>309.04</ele>
        <time>2025-01-03T13:45:07.732Z</time>
      </trkpt>
      <trkpt lat="48.26996" lon="4.91771">
        <ele>309.19</ele>
        <time>2025-01-03T13:45:08.419Z</time>
      </trkpt>
      <trkpt lat="48.27009" lon="4.91789">
        <ele>309.22</ele>
        <time>2025-01-03T13:45:09.109Z</time>
      </trkpt>
      <trkpt lat="48.27023" lon="4.91807">
        <ele>309.24</ele>
        <time>2025-01-03T13:45:09.802Z</time>
      </trkpt>
      <trkpt lat="48.27035" lon="4.91832">
        <ele>309.23</ele>
        <time>2025-01-03T13:45:10.498Z</time>
      </trkpt>
      <trkpt lat="48.27046" lon="4.91858">
        <ele>309.21</ele>
        <time>2025-01-03T13:45:11.197Z</time>
      </trkpt>
      <trkpt lat="48.27066" lon="4.91893">
        <ele>309.17</ele>
        <time>2025-01-03T13:45:11.901Z</time>
      </trkpt>
      <trkpt lat="48.27071" lon="4.91899">
        <ele>309.18</ele>
        <time>2025-01-03T13:45:12.606Z</time>
      </trkpt>
      <trkpt lat="48.27076" lon="4.91906">
        <ele>309.19</ele>
        <time>2025-01-03T13:45:13.312Z</time>
      </trkpt>
      <trkpt lat="48.27092" lon="4.91916">
        <ele>309.16</ele>
        <time>2025-01-03T13:45:14.021Z</time>
      </trkpt>
      <trkpt lat="48.27109" lon="4.91922">
        <ele>309.16</ele>
        <time>2025-01-03T13:45:14.733Z</time>
      </trkpt>
      <trkpt lat="48.27126" lon="4.91927">
        <ele>309.21</ele>
        <time>2025-01-03T13:45:15.448Z</time>
      </trkpt>
      <trkpt lat="48.27148" lon="4.91924">
        <ele>309.29</ele>
        <time>2025-01-03T13:45:16.166Z</time>
      </trkpt>
      <trkpt lat="48.27162" lon="4.91921">
        <ele>309.37</ele>
        <time>2025-01-03T13:45:16.887Z</time>
      </trkpt>
      <trkpt lat="48.27185" lon="4.91916">
        <ele>309.46</ele>
        <time>2025-01-03T13:45:17.611Z</time>
      </trkpt>
      <trkpt lat="48.27195" lon="4.91921">
        <ele>309.63</ele>
        <time>2025-01-03T13:45:18.337Z</time>
      </trkpt>
      <trkpt lat="48.27196" lon="4.91927">
        <ele>309.82</ele>
        <time>2025-01-03T13:45:19.063Z</time>
      </trkpt>
      <trkpt lat="48.27197" lon="4.91933">
        <ele>310.05</ele>
        <time>2025-01-03T13:45:19.790Z</time>
      </trkpt>
      <trkpt lat="48.27201" lon="4.9195">
        <ele>310.34</ele>
        <time>2025-01-03T13:45:20.519Z</time>
      </trkpt>
      <trkpt lat="48.27204" lon="4.91961">
        <ele>310.65</ele>
        <time>2025-01-03T13:45:21.249Z</time>
      </trkpt>
      <trkpt lat="48.27209" lon="4.91968">
        <ele>310.99</ele>
        <time>2025-01-03T13:45:21.980Z</time>
      </trkpt>
      <trkpt lat="48.27213" lon="4.91967">
        <ele>311.38</ele>
        <time>2025-01-03T13:45:22.712Z</time>
      </trkpt>
      <trkpt lat="48.27222" lon="4.91964">
        <ele>311.81</ele>
        <time>2025-01-03T13:45:23.446Z</time>
      </trkpt>
      <trkpt lat="48.27227" lon="4.91963">
        <ele>312.29</ele>
        <time>2025-01-03T13:45:24.180Z</time>
      </trkpt>
      <trkpt lat="48.27253" lon="4.91956">
        <ele>312.89</ele>
        <time>2025-01-03T13:45:24.919Z</time>
      </trkpt>
      <trkpt lat="48.27263" lon="4.91943">
        <ele>313.44</ele>
        <time>2025-01-03T13:45:25.660Z</time>
      </trkpt>
      <trkpt lat="48.27268" lon="4.91916">
        <ele>314.07</ele>
        <time>2025-01-03T13:45:26.404Z</time>
      </trkpt>
      <trkpt lat="48.27273" lon="4.91887">
        <ele>314.7</ele>
        <time>2025-01-03T13:45:27.151Z</time>
      </trkpt>
      <trkpt lat="48.27277" lon="4.91857">
        <ele>315.35</ele>
        <time>2025-01-03T13:45:27.901Z</time>
      </trkpt>
      <trkpt lat="48.27281" lon="4.91818">
        <ele>316.09</ele>
        <time>2025-01-03T13:45:28.655Z</time>
      </trkpt>
      <trkpt lat="48.27282" lon="4.91788">
        <ele>316.88</ele>
        <time>2025-01-03T13:45:29.413Z</time>
      </trkpt>
      <trkpt lat="48.27282" lon="4.91782">
        <ele>317.58</ele>
        <time>2025-01-03T13:45:30.171Z</time>
      </trkpt>
      <trkpt lat="48.27283" lon="4.91747">
        <ele>318.33</ele>
        <time>2025-01-03T13:45:30.933Z</time>
      </trkpt>
      <trkpt lat="48.27284" lon="4.91718">
        <ele>319.07</ele>
        <time>2025-01-03T13:45:31.698Z</time>
      </trkpt>
      <trkpt lat="48.27285" lon="4.91689">
        <ele>319.78</ele>
        <time>2025-01-03T13:45:32.466Z</time>
      </trkpt>
      <trkpt lat="48.27286" lon="4.91665">
        <ele>320.47</ele>
        <time>2025-01-03T13:45:33.237Z</time>
      </trkpt>
      <trkpt lat="48.27286" lon="4.91642">
        <ele>321.21</ele>
        <time>2025-01-03T13:45:34.010Z</time>
      </trkpt>
      <trkpt lat="48.27286" lon="4.91613">
        <ele>321.95</ele>
        <time>2025-01-03T13:45:34.786Z</time>
      </trkpt>
      <trkpt lat="48.27285" lon="4.91585">
        <ele>322.66</ele>
        <time>2025-01-03T13:45:35.565Z</time>
      </trkpt>
      <trkpt lat="48.2728" lon="4.91559">
        <ele>323.3</ele>
        <time>2025-01-03T13:45:36.347Z</time>
      </trkpt>
      <trkpt lat="48.27275" lon="4.91532">
        <ele>323.87</ele>
        <time>2025-01-03T13:45:37.132Z</time>
      </trkpt>
      <trkpt lat="48.27266" lon="4.91501">
        <ele>324.41</ele>
        <time>2025-01-03T13:45:37.921Z</time>
      </trkpt>
      <trkpt lat="48.27256" lon="4.91471">
        <ele>325.01</ele>
        <time>2025-01-03T13:45:38.713Z</time>
      </trkpt>
      <trkpt lat="48.27244" lon="4.91445">
        <ele>325.6</ele>
        <time>2025-01-03T13:45:39.509Z</time>
      </trkpt>
      <trkpt lat="48.27232" lon="4.91419">
        <ele>326.21</ele>
        <time>2025-01-03T13:45:40.308Z</time>
      </trkpt>
      <trkpt lat="48.27224" lon="4.91399">
        <ele>326.77</ele>
        <time>2025-01-03T13:45:41.110Z</time>
      </trkpt>
      <trkpt lat="48.27215" lon="4.91379">
        <ele>327.27</ele>
        <time>2025-01-03T13:45:41.914Z</time>
      </trkpt>
      <trkpt lat="48.27212" lon="4.91373">
        <ele>327.69</ele>
        <time>2025-01-03T13:45:42.719Z</time>
      </trkpt>
      <trkpt lat="48.27202" lon="4.91348">
        <ele>328.12</ele>
        <time>2025-01-03T13:45:43.527Z</time>
      </trkpt>
      <trkpt lat="48.27191" lon="4.91323">
        <ele>328.42</ele>
        <time>2025-01-03T13:45:44.338Z</time>
      </trkpt>
      <trkpt lat="48.2718" lon="4.91283">
        <ele>328.65</ele>
        <time>2025-01-03T13:45:45.154Z</time>
      </trkpt>
      <trkpt lat="48.2718" lon="4.91264">
        <ele>328.82</ele>
        <time>2025-01-03T13:45:45.972Z</time>
      </trkpt>
      <trkpt lat="48.27179" lon="4.91244">
        <ele>328.91</ele>
        <time>2025-01-03T13:45:46.792Z</time>
      </trkpt>
      <trkpt lat="48.27179" lon="4.91211">
        <ele>328.92</ele>
        <time>2025-01-03T13:45:47.616Z</time>
      </trkpt>
      <trkpt lat="48.27178" lon="4.91185">
        <ele>328.81</ele>
        <time>2025-01-03T13:45:48.443Z</time>
      </trkpt>
      <trkpt lat="48.27174" lon="4.91138">
        <ele>328.68</ele>
        <time>2025-01-03T13:45:49.275Z</time>
      </trkpt>
      <trkpt lat="48.27166" lon="4.91093">
        <ele>328.46</ele>
        <time>2025-01-03T13:45:50.112Z</time>
      </trkpt>
      <trkpt lat="48.27161" lon="4.91068">
        <ele>328.05</ele>
        <time>2025-01-03T13:45:50.951Z</time>
      </trkpt>
      <trkpt lat="48.27156" lon="4.91043">
        <ele>327.54</ele>
        <time>2025-01-03T13:45:51.793Z</time>
      </trkpt>
      <trkpt lat="48.27146" lon="4.91001">
        <ele>326.87</ele>
        <time>2025-01-03T13:45:52.640Z</time>
      </trkpt>
      <trkpt lat="48.27139" lon="4.90974">
        <ele>326.16</ele>
        <time>2025-01-03T13:45:53.490Z</time>
      </trkpt>
      <trkpt lat="48.27132" lon="4.90947">
        <ele>325.32</ele>
        <time>2025-01-03T13:45:54.343Z</time>
      </trkpt>
      <trkpt lat="48.27122" lon="4.90915">
        <ele>324.3</ele>
        <time>2025-01-03T13:45:55.200Z</time>
      </trkpt>
      <trkpt lat="48.27112" lon="4.90884">
        <ele>323.22</ele>
        <time>2025-01-03T13:45:56.061Z</time>
      </trkpt>
      <trkpt lat="48.27096" lon="4.9085">
        <ele>322.09</ele>
        <time>2025-01-03T13:45:56.926Z</time>
      </trkpt>
      <trkpt lat="48.2708" lon="4.90816">
        <ele>320.84</ele>
        <time>2025-01-03T13:45:57.795Z</time>
      </trkpt>
      <trkpt lat="48.27062" lon="4.90779">
        <ele>319.56</ele>
        <time>2025-01-03T13:45:58.669Z</time>
      </trkpt>
      <trkpt lat="48.27045" lon="4.90742">
        <ele>318.23</ele>
        <time>2025-01-03T13:45:59.548Z</time>
      </trkpt>
      <trkpt lat="48.27034" lon="4.9072">
        <ele>316.94</ele>
        <time>2025-01-03T13:46:00.430Z</time>
      </trkpt>
      <trkpt lat="48.27023" lon="4.90699">
        <ele>315.64</ele>
        <time>2025-01-03T13:46:01.315Z</time>
      </trkpt>
      <trkpt lat="48.27005" lon="4.90662">
        <ele>314.25</ele>
        <time>2025-01-03T13:46:02.205Z</time>
      </trkpt>
      <trkpt lat="48.26986" lon="4.90626">
        <ele>312.81</ele>
        <time>2025-01-03T13:46:03.100Z</time>
      </trkpt>
      <trkpt lat="48.26968" lon="4.90591">
        <ele>311.31</ele>
        <time>2025-01-03T13:46:03.999Z</time>
      </trkpt>
      <trkpt lat="48.2695" lon="4.90555">
        <ele>309.86</ele>
        <time>2025-01-03T13:46:04.903Z</time>
      </trkpt>
      <trkpt lat="48.26936" lon="4.90517">
        <ele>308.46</ele>
        <time>2025-01-03T13:46:05.812Z</time>
      </trkpt>
      <trkpt lat="48.26922" lon="4.90479">
        <ele>307.07</ele>
        <time>2025-01-03T13:46:06.725Z</time>
      </trkpt>
      <trkpt lat="48.26913" lon="4.90438">
        <ele>305.65</ele>
        <time>2025-01-03T13:46:07.643Z</time>
      </trkpt>
      <trkpt lat="48.26903" lon="4.90397">
        <ele>304.21</ele>
        <time>2025-01-03T13:46:08.566Z</time>
      </trkpt>
      <trkpt lat="48.26899" lon="4.9038">
        <ele>302.92</ele>
        <time>2025-01-03T13:46:09.491Z</time>
      </trkpt>
      <trkpt lat="48.26889" lon="4.90336">
        <ele>301.61</ele>
        <time>2025-01-03T13:46:10.421Z</time>
      </trkpt>
      <trkpt lat="48.26879" lon="4.90293">
        <ele>300.35</ele>
        <time>2025-01-03T13:46:11.356Z</time>
      </trkpt>
      <trkpt lat="48.26875" lon="4.90275">
        <ele>299.18</ele>
        <time>2025-01-03T13:46:12.293Z</time>
      </trkpt>
      <trkpt lat="48.26869" lon="4.9023">
        <ele>298.06</ele>
        <time>2025-01-03T13:46:13.235Z</time>
      </trkpt>
      <trkpt lat="48.26863" lon="4.90185">
        <ele>296.94</ele>
        <time>2025-01-03T13:46:14.181Z</time>
      </trkpt>
      <trkpt lat="48.26864" lon="4.90149">
        <ele>295.87</ele>
        <time>2025-01-03T13:46:15.131Z</time>
      </trkpt>
      <trkpt lat="48.26864" lon="4.90113">
        <ele>294.83</ele>
        <time>2025-01-03T13:46:16.085Z</time>
      </trkpt>
      <trkpt lat="48.2687" lon="4.90069">
        <ele>293.85</ele>
        <time>2025-01-03T13:46:17.044Z</time>
      </trkpt>
      <trkpt lat="48.26875" lon="4.90026">
        <ele>292.86</ele>
        <time>2025-01-03T13:46:18.008Z</time>
      </trkpt>
      <trkpt lat="48.26879" lon="4.89992">
        <ele>291.85</ele>
        <time>2025-01-03T13:46:18.975Z</time>
      </trkpt>
      <trkpt lat="48.26885" lon="4.89951">
        <ele>290.92</ele>
        <time>2025-01-03T13:46:19.947Z</time>
      </trkpt>
      <trkpt lat="48.2689" lon="4.89909">
        <ele>290.12</ele>
        <time>2025-01-03T13:46:20.923Z</time>
      </trkpt>
      <trkpt lat="48.26894" lon="4.89877">
        <ele>289.35</ele>
        <time>2025-01-03T13:46:21.903Z</time>
      </trkpt>
      <trkpt lat="48.26898" lon="4.89845">
        <ele>288.57</ele>
        <time>2025-01-03T13:46:22.886Z</time>
      </trkpt>
      <trkpt lat="48.26902" lon="4.89814">
        <ele>287.78</ele>
        <time>2025-01-03T13:46:23.873Z</time>
      </trkpt>
      <trkpt lat="48.26906" lon="4.89782">
        <ele>287.01</ele>
        <time>2025-01-03T13:46:24.863Z</time>
      </trkpt>
      <trkpt lat="48.26912" lon="4.89738">
        <ele>286.26</ele>
        <time>2025-01-03T13:46:25.858Z</time>
      </trkpt>
      <trkpt lat="48.26918" lon="4.89695">
        <ele>285.61</ele>
        <time>2025-01-03T13:46:26.858Z</time>
      </trkpt>
      <trkpt lat="48.26922" lon="4.89665">
        <ele>284.94</ele>
        <time>2025-01-03T13:46:27.861Z</time>
      </trkpt>
      <trkpt lat="48.26927" lon="4.89622">
        <ele>284.22</ele>
        <time>2025-01-03T13:46:28.869Z</time>
      </trkpt>
      <trkpt lat="48.26932" lon="4.89579">
        <ele>283.55</ele>
        <time>2025-01-03T13:46:29.881Z</time>
      </trkpt>
      <trkpt lat="48.26936" lon="4.89551">
        <ele>282.89</ele>
        <time>2025-01-03T13:46:30.896Z</time>
      </trkpt>
      <trkpt lat="48.2694" lon="4.89509">
        <ele>282.19</ele>
        <time>2025-01-03T13:46:31.916Z</time>
      </trkpt>
      <trkpt lat="48.26945" lon="4.89467">
        <ele>281.44</ele>
        <time>2025-01-03T13:46:32.940Z</time>
      </trkpt>
      <trkpt lat="48.26947" lon="4.89453">
        <ele>280.72</ele>
        <time>2025-01-03T13:46:33.966Z</time>
      </trkpt>
      <trkpt lat="48.26952" lon="4.89413">
        <ele>279.93</ele>
        <time>2025-01-03T13:46:34.996Z</time>
      </trkpt>
      <trkpt lat="48.26956" lon="4.89372">
        <ele>279.15</ele>
        <time>2025-01-03T13:46:36.031Z</time>
      </trkpt>
      <trkpt lat="48.26958" lon="4.89359">
        <ele>278.4</ele>
        <time>2025-01-03T13:46:37.067Z</time>
      </trkpt>
      <trkpt lat="48.26962" lon="4.89313">
        <ele>277.56</ele>
        <time>2025-01-03T13:46:38.108Z</time>
      </trkpt>
      <trkpt lat="48.26966" lon="4.89268">
        <ele>276.71</ele>
        <time>2025-01-03T13:46:39.154Z</time>
      </trkpt>
      <trkpt lat="48.26966" lon="4.89242">
        <ele>275.96</ele>
        <time>2025-01-03T13:46:40.203Z</time>
      </trkpt>
      <trkpt lat="48.26964" lon="4.89201">
        <ele>275.17</ele>
        <time>2025-01-03T13:46:41.256Z</time>
      </trkpt>
      <trkpt lat="48.26963" lon="4.8916">
        <ele>274.42</ele>
        <time>2025-01-03T13:46:42.313Z</time>
      </trkpt>
      <trkpt lat="48.26958" lon="4.89118">
        <ele>273.69</ele>
        <time>2025-01-03T13:46:43.375Z</time>
      </trkpt>
      <trkpt lat="48.26953" lon="4.89076">
        <ele>272.99</ele>
        <time>2025-01-03T13:46:44.442Z</time>
      </trkpt>
      <trkpt lat="48.26948" lon="4.89063">
        <ele>272.31</ele>
        <time>2025-01-03T13:46:45.510Z</time>
      </trkpt>
      <trkpt lat="48.26939" lon="4.89034">
        <ele>271.6</ele>
        <time>2025-01-03T13:46:46.582Z</time>
      </trkpt>
      <trkpt lat="48.26929" lon="4.89006">
        <ele>270.95</ele>
        <time>2025-01-03T13:46:47.657Z</time>
      </trkpt>
      <trkpt lat="48.26915" lon="4.88965">
        <ele>270.33</ele>
        <time>2025-01-03T13:46:48.737Z</time>
      </trkpt>
      <trkpt lat="48.26901" lon="4.88925">
        <ele>269.77</ele>
        <time>2025-01-03T13:46:49.822Z</time>
      </trkpt>
      <trkpt lat="48.26896" lon="4.88913">
        <ele>269.31</ele>
        <time>2025-01-03T13:46:50.908Z</time>
      </trkpt>
      <trkpt lat="48.2688" lon="4.88873">
        <ele>268.88</ele>
        <time>2025-01-03T13:46:51.999Z</time>
      </trkpt>
      <trkpt lat="48.26863" lon="4.88834">
        <ele>268.56</ele>
        <time>2025-01-03T13:46:53.095Z</time>
      </trkpt>
      <trkpt lat="48.26848" lon="4.88801">
        <ele>268.33</ele>
        <time>2025-01-03T13:46:54.195Z</time>
      </trkpt>
      <trkpt lat="48.26833" lon="4.88769">
        <ele>268.11</ele>
        <time>2025-01-03T13:46:55.300Z</time>
      </trkpt>
      <trkpt lat="48.26812" lon="4.88735">
        <ele>267.95</ele>
        <time>2025-01-03T13:46:56.410Z</time>
      </trkpt>
      <trkpt lat="48.26791" lon="4.88701">
        <ele>267.86</ele>
        <time>2025-01-03T13:46:57.525Z</time>
      </trkpt>
      <trkpt lat="48.26774" lon="4.88677">
        <ele>267.87</ele>
        <time>2025-01-03T13:46:58.643Z</time>
      </trkpt>
      <trkpt lat="48.26757" lon="4.88652">
        <ele>267.97</ele>
        <time>2025-01-03T13:46:59.765Z</time>
      </trkpt>
      <trkpt lat="48.26739" lon="4.88626">
        <ele>268.09</ele>
        <time>2025-01-03T13:47:00.891Z</time>
      </trkpt>
      <trkpt lat="48.2672" lon="4.88601">
        <ele>268.28</ele>
        <time>2025-01-03T13:47:02.021Z</time>
      </trkpt>
      <trkpt lat="48.26705" lon="4.8858">
        <ele>268.54</ele>
        <time>2025-01-03T13:47:03.154Z</time>
      </trkpt>
      <trkpt lat="48.26691" lon="4.88559">
        <ele>268.88</ele>
        <time>2025-01-03T13:47:04.291Z</time>
      </trkpt>
      <trkpt lat="48.26672" lon="4.88529">
        <ele>269.3</ele>
        <time>2025-01-03T13:47:05.432Z</time>
      </trkpt>
      <trkpt lat="48.26653" lon="4.88499">
        <ele>269.76</ele>
        <time>2025-01-03T13:47:06.577Z</time>
      </trkpt>
      <trkpt lat="48.26639" lon="4.88478">
        <ele>270.28</ele>
        <time>2025-01-03T13:47:07.726Z</time>
      </trkpt>
      <trkpt lat="48.26626" lon="4.88456">
        <ele>270.84</ele>
        <time>2025-01-03T13:47:08.878Z</time>
      </trkpt>
      <trkpt lat="48.26623" lon="4.88448">
        <ele>271.49</ele>
        <time>2025-01-03T13:47:10.031Z</time>
      </trkpt>
      <trkpt lat="48.26618" lon="4.88422">
        <ele>272.2</ele>
        <time>2025-01-03T13:47:11.187Z</time>
      </trkpt>
      <trkpt lat="48.26613" lon="4.88396">
        <ele>273</ele>
        <time>2025-01-03T13:47:12.346Z</time>
      </trkpt>
      <trkpt lat="48.26608" lon="4.88366">
        <ele>273.83</ele>
        <time>2025-01-03T13:47:13.508Z</time>
      </trkpt>
      <trkpt lat="48.26603" lon="4.88336">
        <ele>274.72</ele>
        <time>2025-01-03T13:47:14.673Z</time>
      </trkpt>
      <trkpt lat="48.26593" lon="4.88293">
        <ele>275.69</ele>
        <time>2025-01-03T13:47:15.843Z</time>
      </trkpt>
      <trkpt lat="48.26592" lon="4.88287">
        <ele>276.56</ele>
        <time>2025-01-03T13:47:17.014Z</time>
      </trkpt>
      <trkpt lat="48.26586" lon="4.88265">
        <ele>277.51</ele>
        <time>2025-01-03T13:47:18.187Z</time>
      </trkpt>
      <trkpt lat="48.2658" lon="4.88239">
        <ele>278.42</ele>
        <time>2025-01-03T13:47:19.363Z</time>
      </trkpt>
      <trkpt lat="48.26579" lon="4.88207">
        <ele>279.37</ele>
        <time>2025-01-03T13:47:20.543Z</time>
      </trkpt>
      <trkpt lat="48.26578" lon="4.88176">
        <ele>280.25</ele>
        <time>2025-01-03T13:47:21.726Z</time>
      </trkpt>
      <trkpt lat="48.26575" lon="4.88148">
        <ele>281.1</ele>
        <time>2025-01-03T13:47:22.912Z</time>
      </trkpt>
      <trkpt lat="48.26572" lon="4.88118">
        <ele>281.96</ele>
        <time>2025-01-03T13:47:24.101Z</time>
      </trkpt>
      <trkpt lat="48.26567" lon="4.88082">
        <ele>282.76</ele>
        <time>2025-01-03T13:47:25.294Z</time>
      </trkpt>
      <trkpt lat="48.26556" lon="4.88076">
        <ele>283.46</ele>
        <time>2025-01-03T13:47:26.489Z</time>
      </trkpt>
      <trkpt lat="48.26535" lon="4.88081">
        <ele>284.04</ele>
        <time>2025-01-03T13:47:27.687Z</time>
      </trkpt>
      <trkpt lat="48.2651" lon="4.88086">
        <ele>284.63</ele>
        <time>2025-01-03T13:47:28.889Z</time>
      </trkpt>
      <trkpt lat="48.26494" lon="4.8809">
        <ele>285.15</ele>
        <time>2025-01-03T13:47:30.094Z</time>
      </trkpt>
      <trkpt lat="48.26489" lon="4.88086">
        <ele>285.62</ele>
        <time>2025-01-03T13:47:31.300Z</time>
      </trkpt>
      <trkpt lat="48.26489" lon="4.88083">
        <ele>286.03</ele>
        <time>2025-01-03T13:47:32.506Z</time>
      </trkpt>
      <trkpt lat="48.26489" lon="4.88072">
        <ele>286.38</ele>
        <time>2025-01-03T13:47:33.713Z</time>
      </trkpt>
      <trkpt lat="48.26489" lon="4.88044">
        <ele>286.69</ele>
        <time>2025-01-03T13:47:34.923Z</time>
      </trkpt>
      <trkpt lat="48.26489" lon="4.88008">
        <ele>286.94</ele>
        <time>2025-01-03T13:47:36.137Z</time>
      </trkpt>
      <trkpt lat="48.2649" lon="4.8799">
        <ele>287.12</ele>
        <time>2025-01-03T13:47:37.353Z</time>
      </trkpt>
      <trkpt lat="48.26497" lon="4.87972">
        <ele>287.26</ele>
        <time>2025-01-03T13:47:38.571Z</time>
      </trkpt>
      <trkpt lat="48.26504" lon="4.87952">
        <ele>287.37</ele>
        <time>2025-01-03T13:47:39.792Z</time>
      </trkpt>
      <trkpt lat="48.26508" lon="4.87929">
        <ele>287.44</ele>
        <time>2025-01-03T13:47:41.015Z</time>
      </trkpt>
      <trkpt lat="48.26518" lon="4.8791">
        <ele>287.46</ele>
        <time>2025-01-03T13:47:42.241Z</time>
      </trkpt>
      <trkpt lat="48.26536" lon="4.87898">
        <ele>287.44</ele>
        <time>2025-01-03T13:47:43.470Z</time>
      </trkpt>
      <trkpt lat="48.26548" lon="4.879">
        <ele>287.48</ele>
        <time>2025-01-03T13:47:44.701Z</time>
      </trkpt>
      <trkpt lat="48.26547" lon="4.879">
        <ele>287.56</ele>
        <time>2025-01-03T13:47:45.932Z</time>
      </trkpt>
      <trkpt lat="48.26542" lon="4.87899">
        <ele>287.64</ele>
        <time>2025-01-03T13:47:47.164Z</time>
      </trkpt>
      <trkpt lat="48.26538" lon="4.87899">
        <ele>287.73</ele>
        <time>2025-01-03T13:47:48.397Z</time>
      </trkpt>
      <trkpt lat="48.26537" lon="4.87898">
        <ele>287.8</ele>
        <time>2025-01-03T13:47:49.630Z</time>
      </trkpt>
      <trkpt lat="48.26527" lon="4.87901">
        <ele>287.92</ele>
        <time>2025-01-03T13:47:50.864Z</time>
      </trkpt>
      <trkpt lat="48.26534" lon="4.87898">
        <ele>287.94</ele>
        <time>2025-01-03T13:47:52.100Z</time>
      </trkpt>
      <trkpt lat="48.26521" lon="4.87902">
        <ele>288.08</ele>
        <time>2025-01-03T13:47:53.338Z</time>
      </trkpt>
      <trkpt lat="48.26513" lon="4.87919">
        <ele>288.21</ele>
        <time>2025-01-03T13:47:54.578Z</time>
      </trkpt>
      <trkpt lat="48.26508" lon="4.87929">
        <ele>288.29</ele>
        <time>2025-01-03T13:47:55.819Z</time>
      </trkpt>
      <trkpt lat="48.26506" lon="4.87932">
        <ele>288.32</ele>
        <time>2025-01-03T13:47:57.061Z</time>
      </trkpt>
      <trkpt lat="48.26506" lon="4.87939">
        <ele>288.33</ele>
        <time>2025-01-03T13:47:58.303Z</time>
      </trkpt>
      <trkpt lat="48.26505" lon="4.87943">
        <ele>288.32</ele>
        <time>2025-01-03T13:47:59.546Z</time>
      </trkpt>
      <trkpt lat="48.26502" lon="4.87957">
        <ele>288.3</ele>
        <time>2025-01-03T13:48:00.790Z</time>
      </trkpt>
      <trkpt lat="48.26496" lon="4.87974">
        <ele>288.23</ele>
        <time>2025-01-03T13:48:02.037Z</time>
      </trkpt>
      <trkpt lat="48.26489" lon="4.87995">
        <ele>288.14</ele>
        <time>2025-01-03T13:48:03.286Z</time>
      </trkpt>
      <trkpt lat="48.26489" lon="4.88036">
        <ele>287.98</ele>
        <time>2025-01-03T13:48:04.539Z</time>
      </trkpt>
      <trkpt lat="48.26489" lon="4.88075">
        <ele>287.73</ele>
        <time>2025-01-03T13:48:05.797Z</time>
      </trkpt>
      <trkpt lat="48.26497" lon="4.88089">
        <ele>287.41</ele>
        <time>2025-01-03T13:48:07.057Z</time>
      </trkpt>
      <trkpt lat="48.26508" lon="4.88087">
        <ele>287.04</ele>
        <time>2025-01-03T13:48:08.318Z</time>
      </trkpt>
      <trkpt lat="48.26524" lon="4.88083">
        <ele>286.6</ele>
        <time>2025-01-03T13:48:09.582Z</time>
      </trkpt>
      <trkpt lat="48.26549" lon="4.88078">
        <ele>286.12</ele>
        <time>2025-01-03T13:48:10.850Z</time>
      </trkpt>
      <trkpt lat="48.26561" lon="4.88075">
        <ele>285.55</ele>
        <time>2025-01-03T13:48:12.120Z</time>
      </trkpt>
      <trkpt lat="48.26579" lon="4.88068">
        <ele>284.89</ele>
        <time>2025-01-03T13:48:13.393Z</time>
      </trkpt>
      <trkpt lat="48.26588" lon="4.88064">
        <ele>284.14</ele>
        <time>2025-01-03T13:48:14.667Z</time>
      </trkpt>
      <trkpt lat="48.26608" lon="4.88055">
        <ele>283.28</ele>
        <time>2025-01-03T13:48:15.945Z</time>
      </trkpt>
      <trkpt lat="48.26623" lon="4.88048">
        <ele>282.33</ele>
        <time>2025-01-03T13:48:17.225Z</time>
      </trkpt>
      <trkpt lat="48.26634" lon="4.88037">
        <ele>281.36</ele>
        <time>2025-01-03T13:48:18.507Z</time>
      </trkpt>
      <trkpt lat="48.26644" lon="4.88021">
        <ele>280.34</ele>
        <time>2025-01-03T13:48:19.792Z</time>
      </trkpt>
      <trkpt lat="48.26648" lon="4.88012">
        <ele>279.33</ele>
        <time>2025-01-03T13:48:21.078Z</time>
      </trkpt>
      <trkpt lat="48.26652" lon="4.88">
        <ele>278.27</ele>
        <time>2025-01-03T13:48:22.365Z</time>
      </trkpt>
      <trkpt lat="48.26657" lon="4.87974">
        <ele>277.16</ele>
        <time>2025-01-03T13:48:23.655Z</time>
      </trkpt>
      <trkpt lat="48.26667" lon="4.8793">
        <ele>275.95</ele>
        <time>2025-01-03T13:48:24.950Z</time>
      </trkpt>
      <trkpt lat="48.26676" lon="4.87886">
        <ele>274.77</ele>
        <time>2025-01-03T13:48:26.250Z</time>
      </trkpt>
      <trkpt lat="48.26691" lon="4.87844">
        <ele>273.59</ele>
        <time>2025-01-03T13:48:27.555Z</time>
      </trkpt>
      <trkpt lat="48.26697" lon="4.87831">
        <ele>272.44</ele>
        <time>2025-01-03T13:48:28.862Z</time>
      </trkpt>
      <trkpt lat="48.26703" lon="4.8782">
        <ele>271.32</ele>
        <time>2025-01-03T13:48:30.170Z</time>
      </trkpt>
      <trkpt lat="48.26718" lon="4.87798">
        <ele>270.17</ele>
        <time>2025-01-03T13:48:31.482Z</time>
      </trkpt>
      <trkpt lat="48.26732" lon="4.87775">
        <ele>269.03</ele>
        <time>2025-01-03T13:48:32.797Z</time>
      </trkpt>
      <trkpt lat="48.26747" lon="4.87753">
        <ele>267.88</ele>
        <time>2025-01-03T13:48:34.115Z</time>
      </trkpt>
      <trkpt lat="48.26762" lon="4.8773">
        <ele>266.77</ele>
        <time>2025-01-03T13:48:35.437Z</time>
      </trkpt>
      <trkpt lat="48.26777" lon="4.87707">
        <ele>265.66</ele>
        <time>2025-01-03T13:48:36.762Z</time>
      </trkpt>
      <trkpt lat="48.26788" lon="4.87689">
        <ele>264.59</ele>
        <time>2025-01-03T13:48:38.090Z</time>
      </trkpt>
      <trkpt lat="48.26799" lon="4.8767">
        <ele>263.58</ele>
        <time>2025-01-03T13:48:39.421Z</time>
      </trkpt>
      <trkpt lat="48.26817" lon="4.8764">
        <ele>262.52</ele>
        <time>2025-01-03T13:48:40.756Z</time>
      </trkpt>
      <trkpt lat="48.26835" lon="4.87609">
        <ele>261.5</ele>
        <time>2025-01-03T13:48:42.095Z</time>
      </trkpt>
      <trkpt lat="48.26849" lon="4.87586">
        <ele>260.52</ele>
        <time>2025-01-03T13:48:43.438Z</time>
      </trkpt>
      <trkpt lat="48.26862" lon="4.87562">
        <ele>259.55</ele>
        <time>2025-01-03T13:48:44.784Z</time>
      </trkpt>
      <trkpt lat="48.26883" lon="4.87529">
        <ele>258.65</ele>
        <time>2025-01-03T13:48:46.135Z</time>
      </trkpt>
      <trkpt lat="48.26903" lon="4.87495">
        <ele>257.82</ele>
        <time>2025-01-03T13:48:47.491Z</time>
      </trkpt>
      <trkpt lat="48.26909" lon="4.87485">
        <ele>257.03</ele>
        <time>2025-01-03T13:48:48.848Z</time>
      </trkpt>
      <trkpt lat="48.26931" lon="4.87453">
        <ele>256.21</ele>
        <time>2025-01-03T13:48:50.210Z</time>
      </trkpt>
      <trkpt lat="48.26953" lon="4.8742">
        <ele>255.39</ele>
        <time>2025-01-03T13:48:51.577Z</time>
      </trkpt>
      <trkpt lat="48.26973" lon="4.87393">
        <ele>254.57</ele>
        <time>2025-01-03T13:48:52.948Z</time>
      </trkpt>
      <trkpt lat="48.26993" lon="4.87365">
        <ele>253.89</ele>
        <time>2025-01-03T13:48:54.324Z</time>
      </trkpt>
      <trkpt lat="48.27001" lon="4.87359">
        <ele>253.29</ele>
        <time>2025-01-03T13:48:55.701Z</time>
      </trkpt>
      <trkpt lat="48.27021" lon="4.87343">
        <ele>252.76</ele>
        <time>2025-01-03T13:48:57.082Z</time>
      </trkpt>
      <trkpt lat="48.27026" lon="4.8734">
        <ele>252.26</ele>
        <time>2025-01-03T13:48:58.464Z</time>
      </trkpt>
      <trkpt lat="48.27028" lon="4.87335">
        <ele>251.8</ele>
        <time>2025-01-03T13:48:59.846Z</time>
      </trkpt>
      <trkpt lat="48.27029" lon="4.87323">
        <ele>251.38</ele>
        <time>2025-01-03T13:49:01.229Z</time>
      </trkpt>
      <trkpt lat="48.27034" lon="4.87309">
        <ele>251</ele>
        <time>2025-01-03T13:49:02.614Z</time>
      </trkpt>
      <trkpt lat="48.27039" lon="4.87305">
        <ele>250.7</ele>
        <time>2025-01-03T13:49:04.000Z</time>
      </trkpt>
      <trkpt lat="48.27057" lon="4.87291">
        <ele>250.4</ele>
        <time>2025-01-03T13:49:05.389Z</time>
      </trkpt>
      <trkpt lat="48.27076" lon="4.87276">
        <ele>250.22</ele>
        <time>2025-01-03T13:49:06.782Z</time>
      </trkpt>
      <trkpt lat="48.27096" lon="4.8726">
        <ele>250.09</ele>
        <time>2025-01-03T13:49:08.178Z</time>
      </trkpt>
      <trkpt lat="48.27117" lon="4.87243">
        <ele>249.99</ele>
        <time>2025-01-03T13:49:09.578Z</time>
      </trkpt>
      <trkpt lat="48.27143" lon="4.87223">
        <ele>249.96</ele>
        <time>2025-01-03T13:49:10.983Z</time>
      </trkpt>
      <trkpt lat="48.27169" lon="4.87203">
        <ele>249.96</ele>
        <time>2025-01-03T13:49:12.393Z</time>
      </trkpt>
      <trkpt lat="48.2719" lon="4.87186">
        <ele>250.02</ele>
        <time>2025-01-03T13:49:13.806Z</time>
      </trkpt>
      <trkpt lat="48.27211" lon="4.87169">
        <ele>250.13</ele>
        <time>2025-01-03T13:49:15.223Z</time>
      </trkpt>
      <trkpt lat="48.27235" lon="4.87153">
        <ele>250.29</ele>
        <time>2025-01-03T13:49:16.644Z</time>
      </trkpt>
      <trkpt lat="48.27259" lon="4.87137">
        <ele>250.45</ele>
        <time>2025-01-03T13:49:18.070Z</time>
      </trkpt>
      <trkpt lat="48.27287" lon="4.87126">
        <ele>250.68</ele>
        <time>2025-01-03T13:49:19.500Z</time>
      </trkpt>
      <trkpt lat="48.27315" lon="4.87115">
        <ele>250.92</ele>
        <time>2025-01-03T13:49:20.935Z</time>
      </trkpt>
      <trkpt lat="48.27342" lon="4.87099">
        <ele>251.21</ele>
        <time>2025-01-03T13:49:22.375Z</time>
      </trkpt>
      <trkpt lat="48.27369" lon="4.87083">
        <ele>251.57</ele>
        <time>2025-01-03T13:49:23.819Z</time>
      </trkpt>
      <trkpt lat="48.27376" lon="4.87079">
        <ele>252</ele>
        <time>2025-01-03T13:49:25.264Z</time>
      </trkpt>
      <trkpt lat="48.27395" lon="4.87066">
        <ele>252.48</ele>
        <time>2025-01-03T13:49:26.713Z</time>
      </trkpt>
      <trkpt lat="48.27415" lon="4.87053">
        <ele>252.99</ele>
        <time>2025-01-03T13:49:28.165Z</time>
      </trkpt>
      <trkpt lat="48.27439" lon="4.87038">
        <ele>253.65</ele>
        <time>2025-01-03T13:49:29.621Z</time>
      </trkpt>
      <trkpt lat="48.27463" lon="4.87022">
        <ele>254.27</ele>
        <time>2025-01-03T13:49:31.082Z</time>
      </trkpt>
      <trkpt lat="48.27494" lon="4.87011">
        <ele>254.98</ele>
        <time>2025-01-03T13:49:32.548Z</time>
      </trkpt>
      <trkpt lat="48.27516" lon="4.87003">
        <ele>255.65</ele>
        <time>2025-01-03T13:49:34.017Z</time>
      </trkpt>
      <trkpt lat="48.27525" lon="4.86999">
        <ele>256.33</ele>
        <time>2025-01-03T13:49:35.488Z</time>
      </trkpt>
      <trkpt lat="48.2754" lon="4.86991">
        <ele>257.04</ele>
        <time>2025-01-03T13:49:36.961Z</time>
      </trkpt>
      <trkpt lat="48.27555" lon="4.86983">
        <ele>257.77</ele>
        <time>2025-01-03T13:49:38.437Z</time>
      </trkpt>
      <trkpt lat="48.27571" lon="4.86969">
        <ele>258.49</ele>
        <time>2025-01-03T13:49:39.916Z</time>
      </trkpt>
      <trkpt lat="48.27587" lon="4.86954">
        <ele>259.19</ele>
        <time>2025-01-03T13:49:41.398Z</time>
      </trkpt>
      <trkpt lat="48.27607" lon="4.86936">
        <ele>259.9</ele>
        <time>2025-01-03T13:49:42.884Z</time>
      </trkpt>
      <trkpt lat="48.27628" lon="4.86918">
        <ele>260.56</ele>
        <time>2025-01-03T13:49:44.373Z</time>
      </trkpt>
      <trkpt lat="48.27644" lon="4.86904">
        <ele>261.19</ele>
        <time>2025-01-03T13:49:45.865Z</time>
      </trkpt>
      <trkpt lat="48.2766" lon="4.8689">
        <ele>261.84</ele>
        <time>2025-01-03T13:49:47.360Z</time>
      </trkpt>
      <trkpt lat="48.27677" lon="4.86879">
        <ele>262.48</ele>
        <time>2025-01-03T13:49:48.858Z</time>
      </trkpt>
      <trkpt lat="48.27689" lon="4.8687">
        <ele>263.04</ele>
        <time>2025-01-03T13:49:50.359Z</time>
      </trkpt>
      <trkpt lat="48.2771" lon="4.86855">
        <ele>263.55</ele>
        <time>2025-01-03T13:49:51.863Z</time>
      </trkpt>
      <trkpt lat="48.27732" lon="4.86841">
        <ele>264</ele>
        <time>2025-01-03T13:49:53.371Z</time>
      </trkpt>
      <trkpt lat="48.27753" lon="4.86827">
        <ele>264.36</ele>
        <time>2025-01-03T13:49:54.883Z</time>
      </trkpt>
      <trkpt lat="48.27773" lon="4.86813">
        <ele>264.52</ele>
        <time>2025-01-03T13:49:56.398Z</time>
      </trkpt>
      <trkpt lat="48.27794" lon="4.86796">
        <ele>264.62</ele>
        <time>2025-01-03T13:49:57.917Z</time>
      </trkpt>
      <trkpt lat="48.27801" lon="4.8679">
        <ele>264.6</ele>
        <time>2025-01-03T13:49:59.437Z</time>
      </trkpt>
      <trkpt lat="48.27816" lon="4.86777">
        <ele>264.48</ele>
        <time>2025-01-03T13:50:00.960Z</time>
      </trkpt>
      <trkpt lat="48.27835" lon="4.86752">
        <ele>264.24</ele>
        <time>2025-01-03T13:50:02.487Z</time>
      </trkpt>
      <trkpt lat="48.27837" lon="4.86746">
        <ele>263.91</ele>
        <time>2025-01-03T13:50:04.015Z</time>
      </trkpt>
      <trkpt lat="48.27849" lon="4.86723">
        <ele>263.4</ele>
        <time>2025-01-03T13:50:05.546Z</time>
      </trkpt>
      <trkpt lat="48.27851" lon="4.86716">
        <ele>262.87</ele>
        <time>2025-01-03T13:50:07.078Z</time>
      </trkpt>
      <trkpt lat="48.27852" lon="4.86708">
        <ele>262.27</ele>
        <time>2025-01-03T13:50:08.611Z</time>
      </trkpt>
      <trkpt lat="48.27856" lon="4.86689">
        <ele>261.54</ele>
        <time>2025-01-03T13:50:10.146Z</time>
      </trkpt>
      <trkpt lat="48.27858" lon="4.86678">
        <ele>260.79</ele>
        <time>2025-01-03T13:50:11.682Z</time>
      </trkpt>
      <trkpt lat="48.2786" lon="4.86666">
        <ele>259.97</ele>
        <time>2025-01-03T13:50:13.219Z</time>
      </trkpt>
      <trkpt lat="48.27863" lon="4.8666">
        <ele>259.16</ele>
        <time>2025-01-03T13:50:14.757Z</time>
      </trkpt>
      <trkpt lat="48.27866" lon="4.86655">
        <ele>258.31</ele>
        <time>2025-01-03T13:50:16.296Z</time>
      </trkpt>
      <trkpt lat="48.27878" lon="4.86638">
        <ele>257.38</ele>
        <time>2025-01-03T13:50:17.838Z</time>
      </trkpt>
      <trkpt lat="48.27889" lon="4.86621">
        <ele>256.42</ele>
        <time>2025-01-03T13:50:19.382Z</time>
      </trkpt>
      <trkpt lat="48.27902" lon="4.86597">
        <ele>255.43</ele>
        <time>2025-01-03T13:50:20.929Z</time>
      </trkpt>
      <trkpt lat="48.27914" lon="4.86573">
        <ele>254.45</ele>
        <time>2025-01-03T13:50:22.480Z</time>
      </trkpt>
      <trkpt lat="48.27921" lon="4.86541">
        <ele>253.49</ele>
        <time>2025-01-03T13:50:24.034Z</time>
      </trkpt>
      <trkpt lat="48.27929" lon="4.86528">
        <ele>252.6</ele>
        <time>2025-01-03T13:50:25.590Z</time>
      </trkpt>
      <trkpt lat="48.27931" lon="4.86522">
        <ele>251.77</ele>
        <time>2025-01-03T13:50:27.147Z</time>
      </trkpt>
      <trkpt lat="48.27944" lon="4.86499">
        <ele>250.96</ele>
        <time>2025-01-03T13:50:28.707Z</time>
      </trkpt>
      <trkpt lat="48.2795" lon="4.86488">
        <ele>250.21</ele>
        <time>2025-01-03T13:50:30.269Z</time>
      </trkpt>
      <trkpt lat="48.27954" lon="4.86474">
        <ele>249.52</ele>
        <time>2025-01-03T13:50:31.832Z</time>
      </trkpt>
      <trkpt lat="48.27953" lon="4.86461">
        <ele>248.9</ele>
        <time>2025-01-03T13:50:33.397Z</time>
      </trkpt>
      <trkpt lat="48.27951" lon="4.8645">
        <ele>248.36</ele>
        <time>2025-01-03T13:50:34.963Z</time>
      </trkpt>
      <trkpt lat="48.27945" lon="4.86436">
        <ele>247.89</ele>
        <time>2025-01-03T13:50:36.531Z</time>
      </trkpt>
      <trkpt lat="48.27933" lon="4.86413">
        <ele>247.52</ele>
        <time>2025-01-03T13:50:38.102Z</time>
      </trkpt>
      <trkpt lat="48.2793" lon="4.86405">
        <ele>247.19</ele>
        <time>2025-01-03T13:50:39.674Z</time>
      </trkpt>
      <trkpt lat="48.27929" lon="4.86403">
        <ele>246.91</ele>
        <time>2025-01-03T13:50:41.246Z</time>
      </trkpt>
      <trkpt lat="48.27932" lon="4.86414">
        <ele>246.65</ele>
        <time>2025-01-03T13:50:42.819Z</time>
      </trkpt>
      <trkpt lat="48.2794" lon="4.86427">
        <ele>246.44</ele>
        <time>2025-01-03T13:50:44.394Z</time>
      </trkpt>
      <trkpt lat="48.27952" lon="4.8645">
        <ele>246.31</ele>
        <time>2025-01-03T13:50:45.972Z</time>
      </trkpt>
      <trkpt lat="48.27955" lon="4.86478">
        <ele>246.28</ele>
        <time>2025-01-03T13:50:47.553Z</time>
      </trkpt>
      <trkpt lat="48.27943" lon="4.86501">
        <ele>246.36</ele>
        <time>2025-01-03T13:50:49.137Z</time>
      </trkpt>
      <trkpt lat="48.27933" lon="4.86519">
        <ele>246.5</ele>
        <time>2025-01-03T13:50:50.724Z</time>
      </trkpt>
      <trkpt lat="48.27922" lon="4.86539">
        <ele>246.73</ele>
        <time>2025-01-03T13:50:52.314Z</time>
      </trkpt>
      <trkpt lat="48.2791" lon="4.86547">
        <ele>246.99</ele>
        <time>2025-01-03T13:50:53.906Z</time>
      </trkpt>
      <trkpt lat="48.27897" lon="4.86547">
        <ele>247.3</ele>
        <time>2025-01-03T13:50:55.500Z</time>
      </trkpt>
      <trkpt lat="48.27875" lon="4.86548">
        <ele>247.66</ele>
        <time>2025-01-03T13:50:57.097Z</time>
      </trkpt>
      <trkpt lat="48.27865" lon="4.86548">
        <ele>248.05</ele>
        <time>2025-01-03T13:50:58.696Z</time>
      </trkpt>
      <trkpt lat="48.2786" lon="4.86549">
        <ele>248.48</ele>
        <time>2025-01-03T13:51:00.296Z</time>
      </trkpt>
      <trkpt lat="48.27872" lon="4.86548">
        <ele>248.95</ele>
        <time>2025-01-03T13:51:01.898Z</time>
      </trkpt>
      <trkpt lat="48.27877" lon="4.86548">
        <ele>249.47</ele>
        <time>2025-01-03T13:51:03.500Z</time>
      </trkpt>
      <trkpt lat="48.27881" lon="4.86548">
        <ele>250.02</ele>
        <time>2025-01-03T13:51:05.103Z</time>
      </trkpt>
      <trkpt lat="48.27888" lon="4.86547">
        <ele>250.6</ele>
        <time>2025-01-03T13:51:06.707Z</time>
      </trkpt>
      <trkpt lat="48.27906" lon="4.86547">
        <ele>251.19</ele>
        <time>2025-01-03T13:51:08.314Z</time>
      </trkpt>
      <trkpt lat="48.27911" lon="4.86547">
        <ele>251.83</ele>
        <time>2025-01-03T13:51:09.922Z</time>
      </trkpt>
      <trkpt lat="48.27916" lon="4.86559">
        <ele>252.53</ele>
        <time>2025-01-03T13:51:11.531Z</time>
      </trkpt>
      <trkpt lat="48.27912" lon="4.86579">
        <ele>253.3</ele>
        <time>2025-01-03T13:51:13.143Z</time>
      </trkpt>
      <trkpt lat="48.27907" lon="4.86589">
        <ele>254.05</ele>
        <time>2025-01-03T13:51:14.756Z</time>
      </trkpt>
      <trkpt lat="48.27905" lon="4.86593">
        <ele>254.78</ele>
        <time>2025-01-03T13:51:16.370Z</time>
      </trkpt>
      <trkpt lat="48.27893" lon="4.86614">
        <ele>255.64</ele>
        <time>2025-01-03T13:51:17.987Z</time>
      </trkpt>
      <trkpt lat="48.27887" lon="4.86623">
        <ele>256.37</ele>
        <time>2025-01-03T13:51:19.605Z</time>
      </trkpt>
      <trkpt lat="48.27895" lon="4.86621">
        <ele>257.12</ele>
        <time>2025-01-03T13:51:21.224Z</time>
      </trkpt>
      <trkpt lat="48.27911" lon="4.86613">
        <ele>257.84</ele>
        <time>2025-01-03T13:51:22.846Z</time>
      </trkpt>
      <trkpt lat="48.2793" lon="4.86603">
        <ele>258.49</ele>
        <time>2025-01-03T13:51:24.471Z</time>
      </trkpt>
      <trkpt lat="48.27947" lon="4.86595">
        <ele>259.15</ele>
        <time>2025-01-03T13:51:26.099Z</time>
      </trkpt>
      <trkpt lat="48.27956" lon="4.8659">
        <ele>259.78</ele>
        <time>2025-01-03T13:51:27.728Z</time>
      </trkpt>
      <trkpt lat="48.27972" lon="4.86582">
        <ele>260.41</ele>
        <time>2025-01-03T13:51:29.360Z</time>
      </trkpt>
      <trkpt lat="48.27983" lon="4.86575">
        <ele>261.01</ele>
        <time>2025-01-03T13:51:30.994Z</time>
      </trkpt>
      <trkpt lat="48.28004" lon="4.86564">
        <ele>261.6</ele>
        <time>2025-01-03T13:51:32.632Z</time>
      </trkpt>
      <trkpt lat="48.28029" lon="4.8655">
        <ele>262.1</ele>
        <time>2025-01-03T13:51:34.274Z</time>
      </trkpt>
      <trkpt lat="48.28058" lon="4.86533">
        <ele>262.58</ele>
        <time>2025-01-03T13:51:35.921Z</time>
      </trkpt>
      <trkpt lat="48.28075" lon="4.8652">
        <ele>262.95</ele>
        <time>2025-01-03T13:51:37.571Z</time>
      </trkpt>
      <trkpt lat="48.28093" lon="4.86507">
        <ele>263.29</ele>
        <time>2025-01-03T13:51:39.224Z</time>
      </trkpt>
      <trkpt lat="48.28107" lon="4.86496">
        <ele>263.49</ele>
        <time>2025-01-03T13:51:40.880Z</time>
      </trkpt>
      <trkpt lat="48.28122" lon="4.86485">
        <ele>263.66</ele>
        <time>2025-01-03T13:51:42.538Z</time>
      </trkpt>
      <trkpt lat="48.28138" lon="4.86471">
        <ele>263.7</ele>
        <time>2025-01-03T13:51:44.199Z</time>
      </trkpt>
      <trkpt lat="48.28147" lon="4.86463">
        <ele>263.58</ele>
        <time>2025-01-03T13:51:45.862Z</time>
      </trkpt>
      <trkpt lat="48.28157" lon="4.86454">
        <ele>263.38</ele>
        <time>2025-01-03T13:51:47.527Z</time>
      </trkpt>
      <trkpt lat="48.28173" lon="4.8644">
        <ele>263.03</ele>
        <time>2025-01-03T13:51:49.195Z</time>
      </trkpt>
      <trkpt lat="48.2819" lon="4.86425">
        <ele>262.55</ele>
        <time>2025-01-03T13:51:50.866Z</time>
      </trkpt>
      <trkpt lat="48.28201" lon="4.86415">
        <ele>262.12</ele>
        <time>2025-01-03T13:51:52.539Z</time>
      </trkpt>
      <trkpt lat="48.28208" lon="4.86411">
        <ele>261.65</ele>
        <time>2025-01-03T13:51:54.213Z</time>
      </trkpt>
      <trkpt lat="48.28233" lon="4.864">
        <ele>261.15</ele>
        <time>2025-01-03T13:51:55.891Z</time>
      </trkpt>
      <trkpt lat="48.2824" lon="4.86397">
        <ele>260.57</ele>
        <time>2025-01-03T13:51:57.571Z</time>
      </trkpt>
      <trkpt lat="48.28268" lon="4.86388">
        <ele>259.8</ele>
        <time>2025-01-03T13:51:59.255Z</time>
      </trkpt>
      <trkpt lat="48.28291" lon="4.86384">
        <ele>258.94</ele>
        <time>2025-01-03T13:52:00.943Z</time>
      </trkpt>
      <trkpt lat="48.28314" lon="4.8638">
        <ele>258.09</ele>
        <time>2025-01-03T13:52:02.635Z</time>
      </trkpt>
      <trkpt lat="48.28342" lon="4.86375">
        <ele>257.26</ele>
        <time>2025-01-03T13:52:04.331Z</time>
      </trkpt>
      <trkpt lat="48.2837" lon="4.8637">
        <ele>256.51</ele>
        <time>2025-01-03T13:52:06.032Z</time>
      </trkpt>
      <trkpt lat="48.28389" lon="4.86359">
        <ele>255.83</ele>
        <time>2025-01-03T13:52:07.736Z</time>
      </trkpt>
      <trkpt lat="48.28409" lon="4.86347">
        <ele>255.17</ele>
        <time>2025-01-03T13:52:09.443Z</time>
      </trkpt>
      <trkpt lat="48.28425" lon="4.8633">
        <ele>254.55</ele>
        <time>2025-01-03T13:52:11.154Z</time>
      </trkpt>
      <trkpt lat="48.28442" lon="4.86313">
        <ele>253.89</ele>
        <time>2025-01-03T13:52:12.868Z</time>
      </trkpt>
      <trkpt lat="48.28466" lon="4.86296">
        <ele>253.44</ele>
        <time>2025-01-03T13:52:14.586Z</time>
      </trkpt>
      <trkpt lat="48.2849" lon="4.86279">
        <ele>252.99</ele>
        <time>2025-01-03T13:52:16.308Z</time>
      </trkpt>
      <trkpt lat="48.28512" lon="4.8627">
        <ele>252.58</ele>
        <time>2025-01-03T13:52:18.034Z</time>
      </trkpt>
      <trkpt lat="48.28535" lon="4.86261">
        <ele>252.25</ele>
        <time>2025-01-03T13:52:19.764Z</time>
      </trkpt>
      <trkpt lat="48.28564" lon="4.86249">
        <ele>251.98</ele>
        <time>2025-01-03T13:52:21.498Z</time>
      </trkpt>
      <trkpt lat="48.28592" lon="4.86237">
        <ele>251.84</ele>
        <time>2025-01-03T13:52:23.237Z</time>
      </trkpt>
      <trkpt lat="48.28614" lon="4.86221">
        <ele>251.75</ele>
        <time>2025-01-03T13:52:24.980Z</time>
      </trkpt>
      <trkpt lat="48.28636" lon="4.86205">
        <ele>251.74</ele>
        <time>2025-01-03T13:52:26.727Z</time>
      </trkpt>
      <trkpt lat="48.28654" lon="4.86183">
        <ele>251.72</ele>
        <time>2025-01-03T13:52:28.478Z</time>
      </trkpt>
      <trkpt lat="48.28672" lon="4.86162">
        <ele>251.7</ele>
        <time>2025-01-03T13:52:30.232Z</time>
      </trkpt>
      <trkpt lat="48.28687" lon="4.86136">
        <ele>251.7</ele>
        <time>2025-01-03T13:52:31.990Z</time>
      </trkpt>
      <trkpt lat="48.28703" lon="4.86111">
        <ele>251.7</ele>
        <time>2025-01-03T13:52:33.752Z</time>
      </trkpt>
      <trkpt lat="48.28716" lon="4.86085">
        <ele>251.6</ele>
        <time>2025-01-03T13:52:35.517Z</time>
      </trkpt>
      <trkpt lat="48.2873" lon="4.86059">
        <ele>251.41</ele>
        <time>2025-01-03T13:52:37.286Z</time>
      </trkpt>
      <trkpt lat="48.28747" lon="4.86026">
        <ele>251.22</ele>
        <time>2025-01-03T13:52:39.059Z</time>
      </trkpt>
      <trkpt lat="48.28763" lon="4.85993">
        <ele>250.97</ele>
        <time>2025-01-03T13:52:40.837Z</time>
      </trkpt>
      <trkpt lat="48.2878" lon="4.85976">
        <ele>250.81</ele>
        <time>2025-01-03T13:52:42.618Z</time>
      </trkpt>
      <trkpt lat="48.28796" lon="4.85958">
        <ele>250.59</ele>
        <time>2025-01-03T13:52:44.402Z</time>
      </trkpt>
      <trkpt lat="48.2881" lon="4.85944">
        <ele>250.46</ele>
        <time>2025-01-03T13:52:46.189Z</time>
      </trkpt>
      <trkpt lat="48.28826" lon="4.85938">
        <ele>250.35</ele>
        <time>2025-01-03T13:52:47.978Z</time>
      </trkpt>
      <trkpt lat="48.28853" lon="4.85932">
        <ele>250.26</ele>
        <time>2025-01-03T13:52:49.772Z</time>
      </trkpt>
      <trkpt lat="48.28861" lon="4.8593">
        <ele>250.15</ele>
        <time>2025-01-03T13:52:51.567Z</time>
      </trkpt>
      <trkpt lat="48.2889" lon="4.85923">
        <ele>249.98</ele>
        <time>2025-01-03T13:52:53.367Z</time>
      </trkpt>
      <trkpt lat="48.28919" lon="4.85916">
        <ele>249.86</ele>
        <time>2025-01-03T13:52:55.172Z</time>
      </trkpt>
      <trkpt lat="48.28936" lon="4.85912">
        <ele>249.79</ele>
        <time>2025-01-03T13:52:56.979Z</time>
      </trkpt>
      <trkpt lat="48.28952" lon="4.85908">
        <ele>249.71</ele>
        <time>2025-01-03T13:52:58.789Z</time>
      </trkpt>
      <trkpt lat="48.2896" lon="4.85906">
        <ele>249.63</ele>
        <time>2025-01-03T13:53:00.600Z</time>
      </trkpt>
      <trkpt lat="48.28968" lon="4.85904">
        <ele>249.57</ele>
        <time>2025-01-03T13:53:02.412Z</time>
      </trkpt>
      <trkpt lat="48.2898" lon="4.85888">
        <ele>249.47</ele>
        <time>2025-01-03T13:53:04.227Z</time>
      </trkpt>
      <trkpt lat="48.28987" lon="4.85866">
        <ele>249.4</ele>
        <time>2025-01-03T13:53:06.045Z</time>
      </trkpt>
      <trkpt lat="48.2899" lon="4.85854">
        <ele>249.35</ele>
        <time>2025-01-03T13:53:07.864Z</time>
      </trkpt>
      <trkpt lat="48.28996" lon="4.85828">
        <ele>249.36</ele>
        <time>2025-01-03T13:53:09.686Z</time>
      </trkpt>
      <trkpt lat="48.29002" lon="4.85802">
        <ele>249.41</ele>
        <time>2025-01-03T13:53:11.511Z</time>
      </trkpt>
      <trkpt lat="48.29014" lon="4.85786">
        <ele>249.32</ele>
        <time>2025-01-03T13:53:13.338Z</time>
      </trkpt>
      <trkpt lat="48.29019" lon="4.85781">
        <ele>249.21</ele>
        <time>2025-01-03T13:53:15.166Z</time>
      </trkpt>
      <trkpt lat="48.29034" lon="4.85766">
        <ele>249.06</ele>
        <time>2025-01-03T13:53:16.997Z</time>
      </trkpt>
      <trkpt lat="48.29049" lon="4.85751">
        <ele>248.84</ele>
        <time>2025-01-03T13:53:18.831Z</time>
      </trkpt>
      <trkpt lat="48.29071" lon="4.8573">
        <ele>248.6</ele>
        <time>2025-01-03T13:53:20.669Z</time>
      </trkpt>
      <trkpt lat="48.29092" lon="4.8571">
        <ele>248.39</ele>
        <time>2025-01-03T13:53:22.511Z</time>
      </trkpt>
      <trkpt lat="48.29107" lon="4.85696">
        <ele>248.17</ele>
        <time>2025-01-03T13:53:24.356Z</time>
      </trkpt>
      <trkpt lat="48.29121" lon="4.85682">
        <ele>248</ele>
        <time>2025-01-03T13:53:26.204Z</time>
      </trkpt>
      <trkpt lat="48.29132" lon="4.85671">
        <ele>247.81</ele>
        <time>2025-01-03T13:53:28.054Z</time>
      </trkpt>
      <trkpt lat="48.29155" lon="4.85646">
        <ele>247.67</ele>
        <time>2025-01-03T13:53:29.909Z</time>
      </trkpt>
      <trkpt lat="48.29177" lon="4.85621">
        <ele>247.68</ele>
        <time>2025-01-03T13:53:31.768Z</time>
      </trkpt>
      <trkpt lat="48.29197" lon="4.85598">
        <ele>247.66</ele>
        <time>2025-01-03T13:53:33.631Z</time>
      </trkpt>
      <trkpt lat="48.29216" lon="4.85575">
        <ele>247.6</ele>
        <time>2025-01-03T13:53:35.498Z</time>
      </trkpt>
      <trkpt lat="48.29238" lon="4.85549">
        <ele>247.53</ele>
        <time>2025-01-03T13:53:37.369Z</time>
      </trkpt>
      <trkpt lat="48.2926" lon="4.85524">
        <ele>247.43</ele>
        <time>2025-01-03T13:53:39.245Z</time>
      </trkpt>
      <trkpt lat="48.29267" lon="4.85517">
        <ele>247.3</ele>
        <time>2025-01-03T13:53:41.122Z</time>
      </trkpt>
      <trkpt lat="48.29291" lon="4.85494">
        <ele>247.09</ele>
        <time>2025-01-03T13:53:43.004Z</time>
      </trkpt>
      <trkpt lat="48.29315" lon="4.8547">
        <ele>246.85</ele>
        <time>2025-01-03T13:53:44.890Z</time>
      </trkpt>
      <trkpt lat="48.29341" lon="4.85445">
        <ele>246.7</ele>
        <time>2025-01-03T13:53:46.781Z</time>
      </trkpt>
      <trkpt lat="48.29366" lon="4.85421">
        <ele>246.59</ele>
        <time>2025-01-03T13:53:48.677Z</time>
      </trkpt>
      <trkpt lat="48.29372" lon="4.85414">
        <ele>246.49</ele>
        <time>2025-01-03T13:53:50.574Z</time>
      </trkpt>
      <trkpt lat="48.29392" lon="4.85407">
        <ele>246.36</ele>
        <time>2025-01-03T13:53:52.475Z</time>
      </trkpt>
      <trkpt lat="48.29411" lon="4.854">
        <ele>246.27</ele>
        <time>2025-01-03T13:53:54.379Z</time>
      </trkpt>
      <trkpt lat="48.29435" lon="4.85394">
        <ele>246.16</ele>
        <time>2025-01-03T13:53:56.287Z</time>
      </trkpt>
      <trkpt lat="48.29459" lon="4.85388">
        <ele>245.99</ele>
        <time>2025-01-03T13:53:58.198Z</time>
      </trkpt>
      <trkpt lat="48.29486" lon="4.85378">
        <ele>245.82</ele>
        <time>2025-01-03T13:54:00.114Z</time>
      </trkpt>
      <trkpt lat="48.29513" lon="4.85368">
        <ele>245.56</ele>
        <time>2025-01-03T13:54:02.034Z</time>
      </trkpt>
      <trkpt lat="48.29542" lon="4.85349">
        <ele>245.31</ele>
        <time>2025-01-03T13:54:03.959Z</time>
      </trkpt>
      <trkpt lat="48.29555" lon="4.8533">
        <ele>245.24</ele>
        <time>2025-01-03T13:54:05.887Z</time>
      </trkpt>
      <trkpt lat="48.29568" lon="4.8531">
        <ele>245.16</ele>
        <time>2025-01-03T13:54:07.818Z</time>
      </trkpt>
      <trkpt lat="48.29586" lon="4.85282">
        <ele>245.09</ele>
        <time>2025-01-03T13:54:09.753Z</time>
      </trkpt>
      <trkpt lat="48.29603" lon="4.85254">
        <ele>245.1</ele>
        <time>2025-01-03T13:54:11.693Z</time>
      </trkpt>
      <trkpt lat="48.29622" lon="4.85225">
        <ele>245.23</ele>
        <time>2025-01-03T13:54:13.637Z</time>
      </trkpt>
      <trkpt lat="48.2964" lon="4.85196">
        <ele>245.36</ele>
        <time>2025-01-03T13:54:15.585Z</time>
      </trkpt>
      <trkpt lat="48.29653" lon="4.85175">
        <ele>245.44</ele>
        <time>2025-01-03T13:54:17.536Z</time>
      </trkpt>
      <trkpt lat="48.29667" lon="4.85153">
        <ele>245.48</ele>
        <time>2025-01-03T13:54:19.490Z</time>
      </trkpt>
      <trkpt lat="48.29686" lon="4.85123">
        <ele>245.49</ele>
        <time>2025-01-03T13:54:21.449Z</time>
      </trkpt>
      <trkpt lat="48.29689" lon="4.85118">
        <ele>245.41</ele>
        <time>2025-01-03T13:54:23.409Z</time>
      </trkpt>
      <trkpt lat="48.29701" lon="4.8508">
        <ele>245.33</ele>
        <time>2025-01-03T13:54:25.373Z</time>
      </trkpt>
      <trkpt lat="48.29708" lon="4.85057">
        <ele>245.2</ele>
        <time>2025-01-03T13:54:27.340Z</time>
      </trkpt>
      <trkpt lat="48.29715" lon="4.85035">
        <ele>245</ele>
        <time>2025-01-03T13:54:29.309Z</time>
      </trkpt>
      <trkpt lat="48.29724" lon="4.85005">
        <ele>244.73</ele>
        <time>2025-01-03T13:54:31.282Z</time>
      </trkpt>
      <trkpt lat="48.29726" lon="4.85">
        <ele>244.44</ele>
        <time>2025-01-03T13:54:33.255Z</time>
      </trkpt>
      <trkpt lat="48.29731" lon="4.84985">
        <ele>244.1</ele>
        <time>2025-01-03T13:54:35.230Z</time>
      </trkpt>
      <trkpt lat="48.29736" lon="4.84967">
        <ele>243.71</ele>
        <time>2025-01-03T13:54:37.207Z</time>
      </trkpt>
      <trkpt lat="48.29746" lon="4.84937">
        <ele>243.25</ele>
        <time>2025-01-03T13:54:39.188Z</time>
      </trkpt>
      <trkpt lat="48.29758" lon="4.84911">
        <ele>242.76</ele>
        <time>2025-01-03T13:54:41.172Z</time>
      </trkpt>
      <trkpt lat="48.2977" lon="4.84884">
        <ele>242.26</ele>
        <time>2025-01-03T13:54:43.160Z</time>
      </trkpt>
      <trkpt lat="48.29787" lon="4.84848">
        <ele>241.66</ele>
        <time>2025-01-03T13:54:45.153Z</time>
      </trkpt>
      <trkpt lat="48.29804" lon="4.84812">
        <ele>241.1</ele>
        <time>2025-01-03T13:54:47.150Z</time>
      </trkpt>
      <trkpt lat="48.29822" lon="4.84773">
        <ele>240.51</ele>
        <time>2025-01-03T13:54:49.152Z</time>
      </trkpt>
      <trkpt lat="48.2984" lon="4.84734">
        <ele>239.84</ele>
        <time>2025-01-03T13:54:51.159Z</time>
      </trkpt>
      <trkpt lat="48.29852" lon="4.84708">
        <ele>239.28</ele>
        <time>2025-01-03T13:54:53.170Z</time>
      </trkpt>
      <trkpt lat="48.29863" lon="4.84681">
        <ele>238.7</ele>
        <time>2025-01-03T13:54:55.184Z</time>
      </trkpt>
      <trkpt lat="48.29875" lon="4.84654">
        <ele>238.22</ele>
        <time>2025-01-03T13:54:57.202Z</time>
      </trkpt>
      <trkpt lat="48.29881" lon="4.84641">
        <ele>237.83</ele>
        <time>2025-01-03T13:54:59.221Z</time>
      </trkpt>
      <trkpt lat="48.29893" lon="4.84617">
        <ele>237.48</ele>
        <time>2025-01-03T13:55:01.243Z</time>
      </trkpt>
      <trkpt lat="48.29905" lon="4.84593">
        <ele>237.17</ele>
        <time>2025-01-03T13:55:03.269Z</time>
      </trkpt>
      <trkpt lat="48.29923" lon="4.8457">
        <ele>236.97</ele>
        <time>2025-01-03T13:55:05.298Z</time>
      </trkpt>
      <trkpt lat="48.29941" lon="4.84547">
        <ele>236.81</ele>
        <time>2025-01-03T13:55:07.331Z</time>
      </trkpt>
      <trkpt lat="48.2996" lon="4.84522">
        <ele>236.76</ele>
        <time>2025-01-03T13:55:09.368Z</time>
      </trkpt>
      <trkpt lat="48.29979" lon="4.84498">
        <ele>236.74</ele>
        <time>2025-01-03T13:55:11.409Z</time>
      </trkpt>
      <trkpt lat="48.29985" lon="4.84478">
        <ele>236.57</ele>
        <time>2025-01-03T13:55:13.453Z</time>
      </trkpt>
      <trkpt lat="48.29992" lon="4.84458">
        <ele>236.46</ele>
        <time>2025-01-03T13:55:15.499Z</time>
      </trkpt>
      <trkpt lat="48.30001" lon="4.84432">
        <ele>236.4</ele>
        <time>2025-01-03T13:55:17.548Z</time>
      </trkpt>
      <trkpt lat="48.30009" lon="4.84406">
        <ele>236.25</ele>
        <time>2025-01-03T13:55:19.600Z</time>
      </trkpt>
      <trkpt lat="48.30021" lon="4.84377">
        <ele>236.08</ele>
        <time>2025-01-03T13:55:21.656Z</time>
      </trkpt>
      <trkpt lat="48.30026" lon="4.84368">
        <ele>235.99</ele>
        <time>2025-01-03T13:55:23.713Z</time>
      </trkpt>
      <trkpt lat="48.30031" lon="4.8436">
        <ele>235.91</ele>
        <time>2025-01-03T13:55:25.771Z</time>
      </trkpt>
      <trkpt lat="48.30045" lon="4.84334">
        <ele>235.8</ele>
        <time>2025-01-03T13:55:27.833Z</time>
      </trkpt>
      <trkpt lat="48.30059" lon="4.84316">
        <ele>235.7</ele>
        <time>2025-01-03T13:55:29.898Z</time>
      </trkpt>
      <trkpt lat="48.30072" lon="4.84298">
        <ele>235.59</ele>
        <time>2025-01-03T13:55:31.966Z</time>
      </trkpt>
      <trkpt lat="48.30092" lon="4.84283">
        <ele>235.45</ele>
        <time>2025-01-03T13:55:34.037Z</time>
      </trkpt>
      <trkpt lat="48.30111" lon="4.84268">
        <ele>235.3</ele>
        <time>2025-01-03T13:55:36.112Z</time>
      </trkpt>
      <trkpt lat="48.30128" lon="4.84259">
        <ele>235.21</ele>
        <time>2025-01-03T13:55:38.190Z</time>
      </trkpt>
      <trkpt lat="48.30146" lon="4.84251">
        <ele>235.06</ele>
        <time>2025-01-03T13:55:40.271Z</time>
      </trkpt>
      <trkpt lat="48.30163" lon="4.84249">
        <ele>234.91</ele>
        <time>2025-01-03T13:55:42.354Z</time>
      </trkpt>
      <trkpt lat="48.30181" lon="4.84247">
        <ele>234.6</ele>
        <time>2025-01-03T13:55:44.440Z</time>
      </trkpt>
      <trkpt lat="48.30206" lon="4.84245">
        <ele>234.35</ele>
        <time>2025-01-03T13:55:46.530Z</time>
      </trkpt>
      <trkpt lat="48.30237" lon="4.84242">
        <ele>234.23</ele>
        <time>2025-01-03T13:55:48.625Z</time>
      </trkpt>
      <trkpt lat="48.30267" lon="4.84239">
        <ele>234.12</ele>
        <time>2025-01-03T13:55:50.725Z</time>
      </trkpt>
      <trkpt lat="48.30297" lon="4.84236">
        <ele>233.89</ele>
        <time>2025-01-03T13:55:52.830Z</time>
      </trkpt>
      <trkpt lat="48.30327" lon="4.84232">
        <ele>233.69</ele>
        <time>2025-01-03T13:55:54.940Z</time>
      </trkpt>
      <trkpt lat="48.30357" lon="4.84229">
        <ele>233.34</ele>
        <time>2025-01-03T13:55:57.054Z</time>
      </trkpt>
      <trkpt lat="48.30387" lon="4.84226">
        <ele>233.01</ele>
        <time>2025-01-03T13:55:59.173Z</time>
      </trkpt>
      <trkpt lat="48.30417" lon="4.84223">
        <ele>232.76</ele>
        <time>2025-01-03T13:56:01.297Z</time>
      </trkpt>
      <trkpt lat="48.30447" lon="4.8422">
        <ele>232.51</ele>
        <time>2025-01-03T13:56:03.426Z</time>
      </trkpt>
      <trkpt lat="48.30478" lon="4.84217">
        <ele>232.29</ele>
        <time>2025-01-03T13:56:05.560Z</time>
      </trkpt>
      <trkpt lat="48.30508" lon="4.84214">
        <ele>232.02</ele>
        <time>2025-01-03T13:56:07.699Z</time>
      </trkpt>
      <trkpt lat="48.30538" lon="4.84211">
        <ele>231.77</ele>
        <time>2025-01-03T13:56:09.842Z</time>
      </trkpt>
      <trkpt lat="48.30568" lon="4.84208">
        <ele>231.48</ele>
        <time>2025-01-03T13:56:11.990Z</time>
      </trkpt>
      <trkpt lat="48.30598" lon="4.84205">
        <ele>231.29</ele>
        <time>2025-01-03T13:56:14.143Z</time>
      </trkpt>
      <trkpt lat="48.30628" lon="4.84202">
        <ele>231.13</ele>
        <time>2025-01-03T13:56:16.301Z</time>
      </trkpt>
      <trkpt lat="48.30658" lon="4.84199">
        <ele>231.05</ele>
        <time>2025-01-03T13:56:18.464Z</time>
      </trkpt>
      <trkpt lat="48.30686" lon="4.84184">
        <ele>230.84</ele>
        <time>2025-01-03T13:56:20.631Z</time>
      </trkpt>
      <trkpt lat="48.30712" lon="4.84162">
        <ele>230.5</ele>
        <time>2025-01-03T13:56:22.803Z</time>
      </trkpt>
      <trkpt lat="48.30737" lon="4.8414">
        <ele>230.14</ele>
        <time>2025-01-03T13:56:24.980Z</time>
      </trkpt>
      <trkpt lat="48.30762" lon="4.84117">
        <ele>229.83</ele>
        <time>2025-01-03T13:56:27.162Z</time>
      </trkpt>
      <trkpt lat="48.30788" lon="4.84095">
        <ele>229.52</ele>
        <time>2025-01-03T13:56:29.348Z</time>
      </trkpt>
      <trkpt lat="48.30813" lon="4.84073">
        <ele>229.08</ele>
        <time>2025-01-03T13:56:31.539Z</time>
      </trkpt>
      <trkpt lat="48.30838" lon="4.84051">
        <ele>228.66</ele>
        <time>2025-01-03T13:56:33.735Z</time>
      </trkpt>
      <trkpt lat="48.30864" lon="4.84029">
        <ele>228.25</ele>
        <time>2025-01-03T13:56:35.935Z</time>
      </trkpt>
      <trkpt lat="48.30889" lon="4.84007">
        <ele>227.82</ele>
        <time>2025-01-03T13:56:38.140Z</time>
      </trkpt>
      <trkpt lat="48.30914" lon="4.83985">
        <ele>227.43</ele>
        <time>2025-01-03T13:56:40.350Z</time>
      </trkpt>
      <trkpt lat="48.3094" lon="4.83963">
        <ele>227</ele>
        <time>2025-01-03T13:56:42.564Z</time>
      </trkpt>
      <trkpt lat="48.30966" lon="4.83945">
        <ele>226.62</ele>
        <time>2025-01-03T13:56:44.783Z</time>
      </trkpt>
      <trkpt lat="48.30993" lon="4.83926">
        <ele>226.28</ele>
        <time>2025-01-03T13:56:47.007Z</time>
      </trkpt>
      <trkpt lat="48.31017" lon="4.83902">
        <ele>225.9</ele>
        <time>2025-01-03T13:56:49.235Z</time>
      </trkpt>
      <trkpt lat="48.3104" lon="4.83878">
        <ele>225.54</ele>
        <time>2025-01-03T13:56:51.468Z</time>
      </trkpt>
      <trkpt lat="48.31064" lon="4.83853">
        <ele>225.2</ele>
        <time>2025-01-03T13:56:53.706Z</time>
      </trkpt>
      <trkpt lat="48.3108" lon="4.83838">
        <ele>224.86</ele>
        <time>2025-01-03T13:56:55.947Z</time>
      </trkpt>
      <trkpt lat="48.31096" lon="4.83823">
        <ele>224.55</ele>
        <time>2025-01-03T13:56:58.191Z</time>
      </trkpt>
      <trkpt lat="48.31118" lon="4.83806">
        <ele>224.23</ele>
        <time>2025-01-03T13:57:00.439Z</time>
      </trkpt>
      <trkpt lat="48.31139" lon="4.83789">
        <ele>223.88</ele>
        <time>2025-01-03T13:57:02.690Z</time>
      </trkpt>
      <trkpt lat="48.31165" lon="4.83771">
        <ele>223.52</ele>
        <time>2025-01-03T13:57:04.946Z</time>
      </trkpt>
      <trkpt lat="48.31191" lon="4.83753">
        <ele>223.24</ele>
        <time>2025-01-03T13:57:07.207Z</time>
      </trkpt>
      <trkpt lat="48.31216" lon="4.83735">
        <ele>223.03</ele>
        <time>2025-01-03T13:57:09.472Z</time>
      </trkpt>
      <trkpt lat="48.31239" lon="4.83715">
        <ele>222.73</ele>
        <time>2025-01-03T13:57:11.741Z</time>
      </trkpt>
      <trkpt lat="48.31262" lon="4.83695">
        <ele>222.45</ele>
        <time>2025-01-03T13:57:14.015Z</time>
      </trkpt>
      <trkpt lat="48.31286" lon="4.83674">
        <ele>222.07</ele>
        <time>2025-01-03T13:57:16.293Z</time>
      </trkpt>
      <trkpt lat="48.31309" lon="4.83654">
        <ele>221.79</ele>
        <time>2025-01-03T13:57:18.575Z</time>
      </trkpt>
      <trkpt lat="48.31333" lon="4.83635">
        <ele>221.5</ele>
        <time>2025-01-03T13:57:20.862Z</time>
      </trkpt>
      <trkpt lat="48.31357" lon="4.83617">
        <ele>221.23</ele>
        <time>2025-01-03T13:57:23.153Z</time>
      </trkpt>
      <trkpt lat="48.31382" lon="4.83598">
        <ele>220.95</ele>
        <time>2025-01-03T13:57:25.448Z</time>
      </trkpt>
      <trkpt lat="48.3141" lon="4.83583">
        <ele>220.66</ele>
        <time>2025-01-03T13:57:27.748Z</time>
      </trkpt>
      <trkpt lat="48.31439" lon="4.83568">
        <ele>220.37</ele>
        <time>2025-01-03T13:57:30.053Z</time>
      </trkpt>
      <trkpt lat="48.31467" lon="4.83553">
        <ele>220.08</ele>
        <time>2025-01-03T13:57:32.363Z</time>
      </trkpt>
      <trkpt lat="48.31494" lon="4.83544">
        <ele>219.87</ele>
        <time>2025-01-03T13:57:34.677Z</time>
      </trkpt>
      <trkpt lat="48.3152" lon="4.83535">
        <ele>219.64</ele>
        <time>2025-01-03T13:57:36.996Z</time>
      </trkpt>
      <trkpt lat="48.31546" lon="4.83526">
        <ele>219.38</ele>
        <time>2025-01-03T13:57:39.319Z</time>
      </trkpt>
      <trkpt lat="48.31572" lon="4.83517">
        <ele>219.18</ele>
        <time>2025-01-03T13:57:41.646Z</time>
      </trkpt>
      <trkpt lat="48.31598" lon="4.83508">
        <ele>218.97</ele>
        <time>2025-01-03T13:57:43.977Z</time>
      </trkpt>
      <trkpt lat="48.31624" lon="4.83494">
        <ele>218.75</ele>
        <time>2025-01-03T13:57:46.313Z</time>
      </trkpt>
      <trkpt lat="48.31651" lon="4.8348">
        <ele>218.47</ele>
        <time>2025-01-03T13:57:48.653Z</time>
      </trkpt>
      <trkpt lat="48.31677" lon="4.83467">
        <ele>218.19</ele>
        <time>2025-01-03T13:57:50.998Z</time>
      </trkpt>
      <trkpt lat="48.31703" lon="4.83453">
        <ele>217.9</ele>
        <time>2025-01-03T13:57:53.347Z</time>
      </trkpt>
      <trkpt lat="48.31729" lon="4.83439">
        <ele>217.62</ele>
        <time>2025-01-03T13:57:55.701Z</time>
      </trkpt>
      <trkpt lat="48.31733" lon="4.83435">
        <ele>217.39</ele>
        <time>2025-01-03T13:57:58.055Z</time>
      </trkpt>
      <trkpt lat="48.31756" lon="4.83421">
        <ele>217.15</ele>
        <time>2025-01-03T13:58:00.413Z</time>
      </trkpt>
      <trkpt lat="48.31778" lon="4.83406">
        <ele>217.03</ele>
        <time>2025-01-03T13:58:02.775Z</time>
      </trkpt>
      <trkpt lat="48.318" lon="4.83392">
        <ele>216.9</ele>
        <time>2025-01-03T13:58:05.141Z</time>
      </trkpt>
      <trkpt lat="48.31817" lon="4.83362">
        <ele>216.74</ele>
        <time>2025-01-03T13:58:07.511Z</time>
      </trkpt>
      <trkpt lat="48.31832" lon="4.83334">
        <ele>216.56</ele>
        <time>2025-01-03T13:58:09.885Z</time>
      </trkpt>
      <trkpt lat="48.31839" lon="4.83328">
        <ele>216.42</ele>
        <time>2025-01-03T13:58:12.260Z</time>
      </trkpt>
      <trkpt lat="48.31867" lon="4.83321">
        <ele>216.31</ele>
        <time>2025-01-03T13:58:14.640Z</time>
      </trkpt>
      <trkpt lat="48.31895" lon="4.83314">
        <ele>216.19</ele>
        <time>2025-01-03T13:58:17.025Z</time>
      </trkpt>
      <trkpt lat="48.31924" lon="4.83307">
        <ele>216.14</ele>
        <time>2025-01-03T13:58:19.414Z</time>
      </trkpt>
      <trkpt lat="48.31952" lon="4.833">
        <ele>216.09</ele>
        <time>2025-01-03T13:58:21.808Z</time>
      </trkpt>
      <trkpt lat="48.31972" lon="4.83299">
        <ele>216.02</ele>
        <time>2025-01-03T13:58:24.205Z</time>
      </trkpt>
      <trkpt lat="48.31991" lon="4.83298">
        <ele>216</ele>
        <time>2025-01-03T13:58:26.605Z</time>
      </trkpt>
      <trkpt lat="48.32009" lon="4.83301">
        <ele>216.01</ele>
        <time>2025-01-03T13:58:29.008Z</time>
      </trkpt>
      <trkpt lat="48.32027" lon="4.83304">
        <ele>216.07</ele>
        <time>2025-01-03T13:58:31.414Z</time>
      </trkpt>
      <trkpt lat="48.32047" lon="4.83313">
        <ele>216.15</ele>
        <time>2025-01-03T13:58:33.823Z</time>
      </trkpt>
      <trkpt lat="48.32049" lon="4.83306">
        <ele>216.09</ele>
        <time>2025-01-03T13:58:36.233Z</time>
      </trkpt>
      <trkpt lat="48.32077" lon="4.83298">
        <ele>216.11</ele>
        <time>2025-01-03T13:58:38.648Z</time>
      </trkpt>
      <trkpt lat="48.32106" lon="4.83289">
        <ele>216.08</ele>
        <time>2025-01-03T13:58:41.067Z</time>
      </trkpt>
      <trkpt lat="48.32135" lon="4.8328">
        <ele>215.98</ele>
        <time>2025-01-03T13:58:43.491Z</time>
      </trkpt>
      <trkpt lat="48.32163" lon="4.83268">
        <ele>215.89</ele>
        <time>2025-01-03T13:58:45.920Z</time>
      </trkpt>
      <trkpt lat="48.32191" lon="4.83255">
        <ele>215.86</ele>
        <time>2025-01-03T13:58:48.353Z</time>
      </trkpt>
      <trkpt lat="48.32218" lon="4.83242">
        <ele>215.72</ele>
        <time>2025-01-03T13:58:50.791Z</time>
      </trkpt>
      <trkpt lat="48.32245" lon="4.83222">
        <ele>215.57</ele>
        <time>2025-01-03T13:58:53.234Z</time>
      </trkpt>
      <trkpt lat="48.32271" lon="4.83202">
        <ele>215.47</ele>
        <time>2025-01-03T13:58:55.681Z</time>
      </trkpt>
      <trkpt lat="48.32298" lon="4.83182">
        <ele>215.37</ele>
        <time>2025-01-03T13:58:58.133Z</time>
      </trkpt>
      <trkpt lat="48.32324" lon="4.83162">
        <ele>215.17</ele>
        <time>2025-01-03T13:59:00.590Z</time>
      </trkpt>
      <trkpt lat="48.3235" lon="4.83142">
        <ele>215</ele>
        <time>2025-01-03T13:59:03.052Z</time>
      </trkpt>
      <trkpt lat="48.32377" lon="4.83122">
        <ele>214.84</ele>
        <time>2025-01-03T13:59:05.518Z</time>
      </trkpt>
      <trkpt lat="48.32403" lon="4.83102">
        <ele>214.67</ele>
        <time>2025-01-03T13:59:07.989Z</time>
      </trkpt>
      <trkpt lat="48.32422" lon="4.83086">
        <ele>214.5</ele>
        <time>2025-01-03T13:59:10.463Z</time>
      </trkpt>
      <trkpt lat="48.3244" lon="4.83069">
        <ele>214.38</ele>
        <time>2025-01-03T13:59:12.941Z</time>
      </trkpt>
      <trkpt lat="48.32459" lon="4.83053">
        <ele>214.25</ele>
        <time>2025-01-03T13:59:15.422Z</time>
      </trkpt>
      <trkpt lat="48.32485" lon="4.83034">
        <ele>214.05</ele>
        <time>2025-01-03T13:59:17.908Z</time>
      </trkpt>
      <trkpt lat="48.32512" lon="4.83015">
        <ele>213.86</ele>
        <time>2025-01-03T13:59:20.399Z</time>
      </trkpt>
      <trkpt lat="48.32538" lon="4.82996">
        <ele>213.75</ele>
        <time>2025-01-03T13:59:22.894Z</time>
      </trkpt>
      <trkpt lat="48.32565" lon="4.82977">
        <ele>213.6</ele>
        <time>2025-01-03T13:59:25.394Z</time>
      </trkpt>
      <trkpt lat="48.32591" lon="4.82958">
        <ele>213.49</ele>
        <time>2025-01-03T13:59:27.899Z</time>
      </trkpt>
      <trkpt lat="48.32618" lon="4.82938">
        <ele>213.47</ele>
        <time>2025-01-03T13:59:30.409Z</time>
      </trkpt>
      <trkpt lat="48.32644" lon="4.82919">
        <ele>213.42</ele>
        <time>2025-01-03T13:59:32.923Z</time>
      </trkpt>
      <trkpt lat="48.32671" lon="4.829">
        <ele>213.38</ele>
        <time>2025-01-03T13:59:35.442Z</time>
      </trkpt>
      <trkpt lat="48.32697" lon="4.82881">
        <ele>213.33</ele>
        <time>2025-01-03T13:59:37.966Z</time>
      </trkpt>
      <trkpt lat="48.32716" lon="4.82868">
        <ele>213.23</ele>
        <time>2025-01-03T13:59:40.493Z</time>
      </trkpt>
      <trkpt lat="48.32736" lon="4.82856">
        <ele>213.23</ele>
        <time>2025-01-03T13:59:43.023Z</time>
      </trkpt>
      <trkpt lat="48.32755" lon="4.82843">
        <ele>213.16</ele>
        <time>2025-01-03T13:59:45.557Z</time>
      </trkpt>
      <trkpt lat="48.32776" lon="4.82831">
        <ele>213.15</ele>
        <time>2025-01-03T13:59:48.094Z</time>
      </trkpt>
      <trkpt lat="48.32798" lon="4.8282">
        <ele>213.15</ele>
        <time>2025-01-03T13:59:50.635Z</time>
      </trkpt>
      <trkpt lat="48.32819" lon="4.82808">
        <ele>213.12</ele>
        <time>2025-01-03T13:59:53.180Z</time>
      </trkpt>
      <trkpt lat="48.32819" lon="4.82808">
        <ele>213.11</ele>
        <time>2025-01-03T13:59:55.725Z</time>
      </trkpt>
      <trkpt lat="48.32847" lon="4.82789">
        <ele>213.07</ele>
        <time>2025-01-03T13:59:58.275Z</time>
      </trkpt>
      <trkpt lat="48.32874" lon="4.8277">
        <ele>213.04</ele>
        <time>2025-01-03T14:00:00.830Z</time>
      </trkpt>
      <trkpt lat="48.32902" lon="4.8275">
        <ele>213.03</ele>
        <time>2025-01-03T14:00:03.389Z</time>
      </trkpt>
      <trkpt lat="48.3293" lon="4.82731">
        <ele>212.94</ele>
        <time>2025-01-03T14:00:05.953Z</time>
      </trkpt>
      <trkpt lat="48.32957" lon="4.82712">
        <ele>212.88</ele>
        <time>2025-01-03T14:00:08.522Z</time>
      </trkpt>
      <trkpt lat="48.32985" lon="4.82692">
        <ele>212.83</ele>
        <time>2025-01-03T14:00:11.096Z</time>
      </trkpt>
      <trkpt lat="48.33012" lon="4.82673">
        <ele>212.77</ele>
        <time>2025-01-03T14:00:13.675Z</time>
      </trkpt>
      <trkpt lat="48.33034" lon="4.82652">
        <ele>212.73</ele>
        <time>2025-01-03T14:00:16.258Z</time>
      </trkpt>
      <trkpt lat="48.33055" lon="4.8263">
        <ele>212.68</ele>
        <time>2025-01-03T14:00:18.845Z</time>
      </trkpt>
      <trkpt lat="48.33074" lon="4.82601">
        <ele>212.55</ele>
        <time>2025-01-03T14:00:21.436Z</time>
      </trkpt>
      <trkpt lat="48.33093" lon="4.82572">
        <ele>212.36</ele>
        <time>2025-01-03T14:00:24.032Z</time>
      </trkpt>
      <trkpt lat="48.33112" lon="4.82543">
        <ele>212.09</ele>
        <time>2025-01-03T14:00:26.632Z</time>
      </trkpt>
      <trkpt lat="48.33131" lon="4.82514">
        <ele>211.73</ele>
        <time>2025-01-03T14:00:29.237Z</time>
      </trkpt>
      <trkpt lat="48.3315" lon="4.82485">
        <ele>211.48</ele>
        <time>2025-01-03T14:00:31.846Z</time>
      </trkpt>
      <trkpt lat="48.33169" lon="4.82456">
        <ele>211.14</ele>
        <time>2025-01-03T14:00:34.459Z</time>
      </trkpt>
      <trkpt lat="48.33185" lon="4.8243">
        <ele>210.81</ele>
        <time>2025-01-03T14:00:37.076Z</time>
      </trkpt>
      <trkpt lat="48.33202" lon="4.82403">
        <ele>210.45</ele>
        <time>2025-01-03T14:00:39.697Z</time>
      </trkpt>
      <trkpt lat="48.33218" lon="4.82377">
        <ele>209.99</ele>
        <time>2025-01-03T14:00:42.322Z</time>
      </trkpt>
      <trkpt lat="48.33243" lon="4.82349">
        <ele>209.58</ele>
        <time>2025-01-03T14:00:44.952Z</time>
      </trkpt>
      <trkpt lat="48.33267" lon="4.82322">
        <ele>209.18</ele>
        <time>2025-01-03T14:00:47.587Z</time>
      </trkpt>
      <trkpt lat="48.33292" lon="4.82294">
        <ele>208.84</ele>
        <time>2025-01-03T14:00:50.226Z</time>
      </trkpt>
      <trkpt lat="48.33316" lon="4.82266">
        <ele>208.39</ele>
        <time>2025-01-03T14:00:52.870Z</time>
      </trkpt>
      <trkpt lat="48.33341" lon="4.82239">
        <ele>207.86</ele>
        <time>2025-01-03T14:00:55.519Z</time>
      </trkpt>
      <trkpt lat="48.33365" lon="4.82211">
        <ele>207.32</ele>
        <time>2025-01-03T14:00:58.173Z</time>
      </trkpt>
      <trkpt lat="48.3339" lon="4.82183">
        <ele>206.81</ele>
        <time>2025-01-03T14:01:00.832Z</time>
      </trkpt>
      <trkpt lat="48.33414" lon="4.82155">
        <ele>206.3</ele>
        <time>2025-01-03T14:01:03.496Z</time>
      </trkpt>
      <trkpt lat="48.33439" lon="4.82128">
        <ele>205.71</ele>
        <time>2025-01-03T14:01:06.165Z</time>
      </trkpt>
      <trkpt lat="48.33463" lon="4.821">
        <ele>205.21</ele>
        <time>2025-01-03T14:01:08.839Z</time>
      </trkpt>
      <trkpt lat="48.33484" lon="4.82066">
        <ele>204.69</ele>
        <time>2025-01-03T14:01:11.518Z</time>
      </trkpt>
      <trkpt lat="48.33506" lon="4.82031">
        <ele>204.26</ele>
        <time>2025-01-03T14:01:14.202Z</time>
      </trkpt>
      <trkpt lat="48.33527" lon="4.81997">
        <ele>203.83</ele>
        <time>2025-01-03T14:01:16.891Z</time>
      </trkpt>
      <trkpt lat="48.33532" lon="4.81989">
        <ele>203.4</ele>
        <time>2025-01-03T14:01:19.581Z</time>
      </trkpt>
      <trkpt lat="48.33532" lon="4.81989">
        <ele>203</ele>
        <time>2025-01-03T14:01:22.271Z</time>
      </trkpt>
      <trkpt lat="48.33551" lon="4.81958">
        <ele>202.53</ele>
        <time>2025-01-03T14:01:24.966Z</time>
      </trkpt>
      <trkpt lat="48.3357" lon="4.81927">
        <ele>202.11</ele>
        <time>2025-01-03T14:01:27.665Z</time>
      </trkpt>
      <trkpt lat="48.3359" lon="4.81897">
        <ele>201.73</ele>
        <time>2025-01-03T14:01:30.369Z</time>
      </trkpt>
      <trkpt lat="48.33609" lon="4.81866">
        <ele>201.44</ele>
        <time>2025-01-03T14:01:33.077Z</time>
      </trkpt>
      <trkpt lat="48.33629" lon="4.81839">
        <ele>201.21</ele>
        <time>2025-01-03T14:01:35.789Z</time>
      </trkpt>
      <trkpt lat="48.33649" lon="4.81812">
        <ele>200.98</ele>
        <time>2025-01-03T14:01:38.506Z</time>
      </trkpt>
      <trkpt lat="48.33669" lon="4.81785">
        <ele>200.78</ele>
        <time>2025-01-03T14:01:41.227Z</time>
      </trkpt>
      <trkpt lat="48.3369" lon="4.81758">
        <ele>200.54</ele>
        <time>2025-01-03T14:01:43.952Z</time>
      </trkpt>
      <trkpt lat="48.3371" lon="4.81731">
        <ele>200.38</ele>
        <time>2025-01-03T14:01:46.682Z</time>
      </trkpt>
      <trkpt lat="48.33725" lon="4.81708">
        <ele>200.32</ele>
        <time>2025-01-03T14:01:49.415Z</time>
      </trkpt>
      <trkpt lat="48.3374" lon="4.81684">
        <ele>200.24</ele>
        <time>2025-01-03T14:01:52.152Z</time>
      </trkpt>
      <trkpt lat="48.33758" lon="4.81647">
        <ele>200.18</ele>
        <time>2025-01-03T14:01:54.894Z</time>
      </trkpt>
      <trkpt lat="48.33776" lon="4.81609">
        <ele>200.1</ele>
        <time>2025-01-03T14:01:57.640Z</time>
      </trkpt>
      <trkpt lat="48.33793" lon="4.81572">
        <ele>200.1</ele>
        <time>2025-01-03T14:02:00.391Z</time>
      </trkpt>
      <trkpt lat="48.33806" lon="4.81537">
        <ele>200.15</ele>
        <time>2025-01-03T14:02:03.147Z</time>
      </trkpt>
      <trkpt lat="48.33819" lon="4.81502">
        <ele>200.22</ele>
        <time>2025-01-03T14:02:05.907Z</time>
      </trkpt>
      <trkpt lat="48.33829" lon="4.81464">
        <ele>200.26</ele>
        <time>2025-01-03T14:02:08.671Z</time>
      </trkpt>
      <trkpt lat="48.33839" lon="4.81427">
        <ele>200.33</ele>
        <time>2025-01-03T14:02:11.440Z</time>
      </trkpt>
      <trkpt lat="48.33849" lon="4.8139">
        <ele>200.37</ele>
        <time>2025-01-03T14:02:14.213Z</time>
      </trkpt>
      <trkpt lat="48.33857" lon="4.81347">
        <ele>200.42</ele>
        <time>2025-01-03T14:02:16.991Z</time>
      </trkpt>
      <trkpt lat="48.33865" lon="4.81304">
        <ele>200.51</ele>
        <time>2025-01-03T14:02:19.773Z</time>
      </trkpt>
      <trkpt lat="48.33873" lon="4.81262">
        <ele>200.58</ele>
        <time>2025-01-03T14:02:22.560Z</time>
      </trkpt>
      <trkpt lat="48.3388" lon="4.81219">
        <ele>200.68</ele>
        <time>2025-01-03T14:02:25.352Z</time>
      </trkpt>
      <trkpt lat="48.33888" lon="4.81176">
        <ele>200.79</ele>
        <time>2025-01-03T14:02:28.148Z</time>
      </trkpt>
      <trkpt lat="48.33896" lon="4.81133">
        <ele>200.9</ele>
        <time>2025-01-03T14:02:30.949Z</time>
      </trkpt>
      <trkpt lat="48.33904" lon="4.81091">
        <ele>200.99</ele>
        <time>2025-01-03T14:02:33.755Z</time>
      </trkpt>
      <trkpt lat="48.33911" lon="4.81049">
        <ele>201.09</ele>
        <time>2025-01-03T14:02:36.566Z</time>
      </trkpt>
      <trkpt lat="48.33921" lon="4.81006">
        <ele>201.15</ele>
        <time>2025-01-03T14:02:39.381Z</time>
      </trkpt>
      <trkpt lat="48.33931" lon="4.80964">
        <ele>201.24</ele>
        <time>2025-01-03T14:02:42.201Z</time>
      </trkpt>
      <trkpt lat="48.3394" lon="4.80921">
        <ele>201.34</ele>
        <time>2025-01-03T14:02:45.026Z</time>
      </trkpt>
      <trkpt lat="48.3395" lon="4.80879">
        <ele>201.47</ele>
        <time>2025-01-03T14:02:47.856Z</time>
      </trkpt>
      <trkpt lat="48.33958" lon="4.8085">
        <ele>201.49</ele>
        <time>2025-01-03T14:02:50.689Z</time>
      </trkpt>
      <trkpt lat="48.33965" lon="4.80821">
        <ele>201.44</ele>
        <time>2025-01-03T14:02:53.525Z</time>
      </trkpt>
      <trkpt lat="48.33977" lon="4.80783">
        <ele>201.3</ele>
        <time>2025-01-03T14:02:56.366Z</time>
      </trkpt>
      <trkpt lat="48.33989" lon="4.80744">
        <ele>201.15</ele>
        <time>2025-01-03T14:02:59.211Z</time>
      </trkpt>
      <trkpt lat="48.34004" lon="4.8071">
        <ele>201.09</ele>
        <time>2025-01-03T14:03:02.061Z</time>
      </trkpt>
      <trkpt lat="48.3402" lon="4.80675">
        <ele>200.95</ele>
        <time>2025-01-03T14:03:04.915Z</time>
      </trkpt>
      <trkpt lat="48.34036" lon="4.80641">
        <ele>200.82</ele>
        <time>2025-01-03T14:03:07.774Z</time>
      </trkpt>
      <trkpt lat="48.34051" lon="4.80607">
        <ele>200.58</ele>
        <time>2025-01-03T14:03:10.637Z</time>
      </trkpt>
      <trkpt lat="48.34067" lon="4.80572">
        <ele>200.32</ele>
        <time>2025-01-03T14:03:13.505Z</time>
      </trkpt>
      <trkpt lat="48.34083" lon="4.80538">
        <ele>199.98</ele>
        <time>2025-01-03T14:03:16.377Z</time>
      </trkpt>
      <trkpt lat="48.34098" lon="4.80504">
        <ele>199.65</ele>
        <time>2025-01-03T14:03:19.253Z</time>
      </trkpt>
      <trkpt lat="48.34114" lon="4.80466">
        <ele>199.29</ele>
        <time>2025-01-03T14:03:22.134Z</time>
      </trkpt>
      <trkpt lat="48.34131" lon="4.80428">
        <ele>198.85</ele>
        <time>2025-01-03T14:03:25.020Z</time>
      </trkpt>
      <trkpt lat="48.34147" lon="4.8039">
        <ele>198.5</ele>
        <time>2025-01-03T14:03:27.911Z</time>
      </trkpt>
      <trkpt lat="48.34163" lon="4.80353">
        <ele>198.04</ele>
        <time>2025-01-03T14:03:30.807Z</time>
      </trkpt>
      <trkpt lat="48.34179" lon="4.80315">
        <ele>197.52</ele>
        <time>2025-01-03T14:03:33.707Z</time>
      </trkpt>
      <trkpt lat="48.34196" lon="4.80277">
        <ele>196.99</ele>
        <time>2025-01-03T14:03:36.612Z</time>
      </trkpt>
      <trkpt lat="48.34212" lon="4.8024">
        <ele>196.5</ele>
        <time>2025-01-03T14:03:39.522Z</time>
      </trkpt>
      <trkpt lat="48.34226" lon="4.80201">
        <ele>196.04</ele>
        <time>2025-01-03T14:03:42.437Z</time>
      </trkpt>
      <trkpt lat="48.34241" lon="4.80162">
        <ele>195.6</ele>
        <time>2025-01-03T14:03:45.356Z</time>
      </trkpt>
      <trkpt lat="48.34256" lon="4.80124">
        <ele>195.19</ele>
        <time>2025-01-03T14:03:48.280Z</time>
      </trkpt>
      <trkpt lat="48.3427" lon="4.80085">
        <ele>194.69</ele>
        <time>2025-01-03T14:03:51.209Z</time>
      </trkpt>
      <trkpt lat="48.34285" lon="4.80046">
        <ele>194.18</ele>
        <time>2025-01-03T14:03:54.143Z</time>
      </trkpt>
      <trkpt lat="48.34299" lon="4.80008">
        <ele>193.73</ele>
        <time>2025-01-03T14:03:57.081Z</time>
      </trkpt>
      <trkpt lat="48.34314" lon="4.79969">
        <ele>193.26</ele>
        <time>2025-01-03T14:04:00.024Z</time>
      </trkpt>
      <trkpt lat="48.34328" lon="4.7993">
        <ele>192.76</ele>
        <time>2025-01-03T14:04:02.972Z</time>
      </trkpt>
      <trkpt lat="48.34343" lon="4.79892">
        <ele>192.36</ele>
        <time>2025-01-03T14:04:05.925Z</time>
      </trkpt>
      <trkpt lat="48.34358" lon="4.7986">
        <ele>191.94</ele>
        <time>2025-01-03T14:04:08.882Z</time>
      </trkpt>
      <trkpt lat="48.34373" lon="4.79828">
        <ele>191.6</ele>
        <time>2025-01-03T14:04:11.843Z</time>
      </trkpt>
      <trkpt lat="48.3439" lon="4.79796">
        <ele>191.28</ele>
        <time>2025-01-03T14:04:14.808Z</time>
      </trkpt>
      <trkpt lat="48.34407" lon="4.79765">
        <ele>190.99</ele>
        <time>2025-01-03T14:04:17.778Z</time>
      </trkpt>
      <trkpt lat="48.34424" lon="4.79733">
        <ele>190.67</ele>
        <time>2025-01-03T14:04:20.752Z</time>
      </trkpt>
      <trkpt lat="48.34442" lon="4.79702">
        <ele>190.28</ele>
        <time>2025-01-03T14:04:23.730Z</time>
      </trkpt>
      <trkpt lat="48.34459" lon="4.7967">
        <ele>189.95</ele>
        <time>2025-01-03T14:04:26.713Z</time>
      </trkpt>
      <trkpt lat="48.34476" lon="4.79639">
        <ele>189.6</ele>
        <time>2025-01-03T14:04:29.700Z</time>
      </trkpt>
      <trkpt lat="48.34495" lon="4.79615">
        <ele>189.36</ele>
        <time>2025-01-03T14:04:32.691Z</time>
      </trkpt>
      <trkpt lat="48.34512" lon="4.79605">
        <ele>189.11</ele>
        <time>2025-01-03T14:04:35.685Z</time>
      </trkpt>
      <trkpt lat="48.3454" lon="4.79593">
        <ele>188.92</ele>
        <time>2025-01-03T14:04:38.684Z</time>
      </trkpt>
      <trkpt lat="48.34568" lon="4.79581">
        <ele>188.69</ele>
        <time>2025-01-03T14:04:41.687Z</time>
      </trkpt>
      <trkpt lat="48.34589" lon="4.79562">
        <ele>188.47</ele>
        <time>2025-01-03T14:04:44.694Z</time>
      </trkpt>
      <trkpt lat="48.34605" lon="4.79536">
        <ele>188.24</ele>
        <time>2025-01-03T14:04:47.705Z</time>
      </trkpt>
      <trkpt lat="48.34605" lon="4.79536">
        <ele>188.05</ele>
        <time>2025-01-03T14:04:50.716Z</time>
      </trkpt>
      <trkpt lat="48.34621" lon="4.79499">
        <ele>187.88</ele>
        <time>2025-01-03T14:04:53.732Z</time>
      </trkpt>
      <trkpt lat="48.34638" lon="4.79462">
        <ele>187.63</ele>
        <time>2025-01-03T14:04:56.752Z</time>
      </trkpt>
      <trkpt lat="48.34655" lon="4.79426">
        <ele>187.42</ele>
        <time>2025-01-03T14:04:59.777Z</time>
      </trkpt>
      <trkpt lat="48.34672" lon="4.79389">
        <ele>187.29</ele>
        <time>2025-01-03T14:05:02.807Z</time>
      </trkpt>
      <trkpt lat="48.34689" lon="4.79352">
        <ele>187.13</ele>
        <time>2025-01-03T14:05:05.842Z</time>
      </trkpt>
      <trkpt lat="48.34706" lon="4.79315">
        <ele>186.99</ele>
        <time>2025-01-03T14:05:08.882Z</time>
      </trkpt>
      <trkpt lat="48.34723" lon="4.79279">
        <ele>186.9</ele>
        <time>2025-01-03T14:05:11.926Z</time>
      </trkpt>
      <trkpt lat="48.34731" lon="4.79245">
        <ele>186.84</ele>
        <time>2025-01-03T14:05:14.974Z</time>
      </trkpt>
      <trkpt lat="48.3474" lon="4.79212">
        <ele>186.74</ele>
        <time>2025-01-03T14:05:18.026Z</time>
      </trkpt>
      <trkpt lat="48.34731" lon="4.7918">
        <ele>186.7</ele>
        <time>2025-01-03T14:05:21.082Z</time>
      </trkpt>
      <trkpt lat="48.34722" lon="4.79148">
        <ele>186.66</ele>
        <time>2025-01-03T14:05:24.141Z</time>
      </trkpt>
      <trkpt lat="48.34714" lon="4.79115">
        <ele>186.7</ele>
        <time>2025-01-03T14:05:27.204Z</time>
      </trkpt>
      <trkpt lat="48.34703" lon="4.79092">
        <ele>186.72</ele>
        <time>2025-01-03T14:05:30.270Z</time>
      </trkpt>
      <trkpt lat="48.34685" lon="4.79059">
        <ele>186.81</ele>
        <time>2025-01-03T14:05:33.341Z</time>
      </trkpt>
      <trkpt lat="48.34668" lon="4.79026">
        <ele>186.95</ele>
        <time>2025-01-03T14:05:36.416Z</time>
      </trkpt>
      <trkpt lat="48.3465" lon="4.78994">
        <ele>187.09</ele>
        <time>2025-01-03T14:05:39.496Z</time>
      </trkpt>
      <trkpt lat="48.34632" lon="4.78961">
        <ele>187.22</ele>
        <time>2025-01-03T14:05:42.580Z</time>
      </trkpt>
      <trkpt lat="48.34626" lon="4.7894">
        <ele>187.39</ele>
        <time>2025-01-03T14:05:45.667Z</time>
      </trkpt>
      <trkpt lat="48.34625" lon="4.78907">
        <ele>187.57</ele>
        <time>2025-01-03T14:05:48.757Z</time>
      </trkpt>
      <trkpt lat="48.34624" lon="4.78875">
        <ele>187.82</ele>
        <time>2025-01-03T14:05:51.850Z</time>
      </trkpt>
      <trkpt lat="48.34629" lon="4.78831">
        <ele>188.2</ele>
        <time>2025-01-03T14:05:54.948Z</time>
      </trkpt>
      <trkpt lat="48.34634" lon="4.78787">
        <ele>188.54</ele>
        <time>2025-01-03T14:05:58.051Z</time>
      </trkpt>
      <trkpt lat="48.34639" lon="4.78742">
        <ele>188.8</ele>
        <time>2025-01-03T14:06:01.159Z</time>
      </trkpt>
      <trkpt lat="48.34644" lon="4.78698">
        <ele>189.02</ele>
        <time>2025-01-03T14:06:04.272Z</time>
      </trkpt>
      <trkpt lat="48.3465" lon="4.78654">
        <ele>189.17</ele>
        <time>2025-01-03T14:06:07.389Z</time>
      </trkpt>
      <trkpt lat="48.34657" lon="4.7862">
        <ele>189.25</ele>
        <time>2025-01-03T14:06:10.510Z</time>
      </trkpt>
      <trkpt lat="48.34665" lon="4.78585">
        <ele>189.32</ele>
        <time>2025-01-03T14:06:13.635Z</time>
      </trkpt>
      <trkpt lat="48.34676" lon="4.78555">
        <ele>189.31</ele>
        <time>2025-01-03T14:06:16.764Z</time>
      </trkpt>
      <trkpt lat="48.34688" lon="4.78525">
        <ele>189.25</ele>
        <time>2025-01-03T14:06:19.897Z</time>
      </trkpt>
      <trkpt lat="48.34695" lon="4.78508">
        <ele>189.2</ele>
        <time>2025-01-03T14:06:23.032Z</time>
      </trkpt>
      <trkpt lat="48.34712" lon="4.78489">
        <ele>189.09</ele>
        <time>2025-01-03T14:06:26.170Z</time>
      </trkpt>
      <trkpt lat="48.3472" lon="4.78482">
        <ele>189.01</ele>
        <time>2025-01-03T14:06:29.310Z</time>
      </trkpt>
      <trkpt lat="48.34742" lon="4.78458">
        <ele>188.88</ele>
        <time>2025-01-03T14:06:32.454Z</time>
      </trkpt>
      <trkpt lat="48.34763" lon="4.78433">
        <ele>188.78</ele>
        <time>2025-01-03T14:06:35.602Z</time>
      </trkpt>
      <trkpt lat="48.34772" lon="4.78416">
        <ele>188.71</ele>
        <time>2025-01-03T14:06:38.753Z</time>
      </trkpt>
      <trkpt lat="48.34783" lon="4.78392">
        <ele>188.64</ele>
        <time>2025-01-03T14:06:41.907Z</time>
      </trkpt>
      <trkpt lat="48.34793" lon="4.78364">
        <ele>188.6</ele>
        <time>2025-01-03T14:06:45.064Z</time>
      </trkpt>
      <trkpt lat="48.34806" lon="4.78337">
        <ele>188.54</ele>
        <time>2025-01-03T14:06:48.225Z</time>
      </trkpt>
      <trkpt lat="48.34817" lon="4.78313">
        <ele>188.44</ele>
        <time>2025-01-03T14:06:51.389Z</time>
      </trkpt>
      <trkpt lat="48.34836" lon="4.78345">
        <ele>188.22</ele>
        <time>2025-01-03T14:06:54.557Z</time>
      </trkpt>
      <trkpt lat="48.34853" lon="4.78358">
        <ele>188.02</ele>
        <time>2025-01-03T14:06:57.728Z</time>
      </trkpt>
      <trkpt lat="48.34864" lon="4.78367">
        <ele>187.82</ele>
        <time>2025-01-03T14:07:00.901Z</time>
      </trkpt>
      <trkpt lat="48.34866" lon="4.78382">
        <ele>187.6</ele>
        <time>2025-01-03T14:07:04.076Z</time>
      </trkpt>
      <trkpt lat="48.34862" lon="4.7842">
        <ele>187.37</ele>
        <time>2025-01-03T14:07:07.255Z</time>
      </trkpt>
      <trkpt lat="48.3486" lon="4.78448">
        <ele>187.11</ele>
        <time>2025-01-03T14:07:10.437Z</time>
      </trkpt>
      <trkpt lat="48.34864" lon="4.78467">
        <ele>186.88</ele>
        <time>2025-01-03T14:07:13.621Z</time>
      </trkpt>
      <trkpt lat="48.34875" lon="4.78499">
        <ele>186.67</ele>
        <time>2025-01-03T14:07:16.809Z</time>
      </trkpt>
      <trkpt lat="48.34886" lon="4.7853">
        <ele>186.41</ele>
        <time>2025-01-03T14:07:20.001Z</time>
      </trkpt>
      <trkpt lat="48.349" lon="4.78563">
        <ele>186.14</ele>
        <time>2025-01-03T14:07:23.197Z</time>
      </trkpt>
      <trkpt lat="48.34914" lon="4.78597">
        <ele>185.86</ele>
        <time>2025-01-03T14:07:26.397Z</time>
      </trkpt>
      <trkpt lat="48.34929" lon="4.78631">
        <ele>185.59</ele>
        <time>2025-01-03T14:07:29.602Z</time>
      </trkpt>
      <trkpt lat="48.34942" lon="4.78657">
        <ele>185.3</ele>
        <time>2025-01-03T14:07:32.810Z</time>
      </trkpt>
      <trkpt lat="48.34956" lon="4.78684">
        <ele>184.96</ele>
        <time>2025-01-03T14:07:36.022Z</time>
      </trkpt>
      <trkpt lat="48.34969" lon="4.78698">
        <ele>184.6</ele>
        <time>2025-01-03T14:07:39.236Z</time>
      </trkpt>
      <trkpt lat="48.34982" lon="4.78712">
        <ele>184.22</ele>
        <time>2025-01-03T14:07:42.453Z</time>
      </trkpt>
      <trkpt lat="48.35012" lon="4.78725">
        <ele>183.79</ele>
        <time>2025-01-03T14:07:45.675Z</time>
      </trkpt>
      <trkpt lat="48.35034" lon="4.78721">
        <ele>183.44</ele>
        <time>2025-01-03T14:07:48.900Z</time>
      </trkpt>
      <trkpt lat="48.35057" lon="4.78709">
        <ele>183.09</ele>
        <time>2025-01-03T14:07:52.129Z</time>
      </trkpt>
      <trkpt lat="48.35079" lon="4.78698">
        <ele>182.68</ele>
        <time>2025-01-03T14:07:55.362Z</time>
      </trkpt>
      <trkpt lat="48.35102" lon="4.78686">
        <ele>182.28</ele>
        <time>2025-01-03T14:07:58.599Z</time>
      </trkpt>
      <trkpt lat="48.35132" lon="4.78682">
        <ele>181.87</ele>
        <time>2025-01-03T14:08:01.841Z</time>
      </trkpt>
      <trkpt lat="48.35161" lon="4.78685">
        <ele>181.45</ele>
        <time>2025-01-03T14:08:05.087Z</time>
      </trkpt>
      <trkpt lat="48.3519" lon="4.78687">
        <ele>181.1</ele>
        <time>2025-01-03T14:08:08.338Z</time>
      </trkpt>
      <trkpt lat="48.35219" lon="4.7869">
        <ele>180.81</ele>
        <time>2025-01-03T14:08:11.594Z</time>
      </trkpt>
      <trkpt lat="48.35248" lon="4.78693">
        <ele>180.48</ele>
        <time>2025-01-03T14:08:14.854Z</time>
      </trkpt>
      <trkpt lat="48.35277" lon="4.78696">
        <ele>180.16</ele>
        <time>2025-01-03T14:08:18.119Z</time>
      </trkpt>
      <trkpt lat="48.35306" lon="4.78698">
        <ele>179.79</ele>
        <time>2025-01-03T14:08:21.389Z</time>
      </trkpt>
      <trkpt lat="48.35334" lon="4.78701">
        <ele>179.41</ele>
        <time>2025-01-03T14:08:24.663Z</time>
      </trkpt>
      <trkpt lat="48.35363" lon="4.78704">
        <ele>179.13</ele>
        <time>2025-01-03T14:08:27.942Z</time>
      </trkpt>
      <trkpt lat="48.35392" lon="4.78707">
        <ele>178.87</ele>
        <time>2025-01-03T14:08:31.226Z</time>
      </trkpt>
      <trkpt lat="48.35421" lon="4.78709">
        <ele>178.63</ele>
        <time>2025-01-03T14:08:34.514Z</time>
      </trkpt>
      <trkpt lat="48.3545" lon="4.78712">
        <ele>178.37</ele>
        <time>2025-01-03T14:08:37.807Z</time>
      </trkpt>
      <trkpt lat="48.3548" lon="4.78698">
        <ele>178.13</ele>
        <time>2025-01-03T14:08:41.105Z</time>
      </trkpt>
      <trkpt lat="48.3551" lon="4.78684">
        <ele>177.92</ele>
        <time>2025-01-03T14:08:44.408Z</time>
      </trkpt>
      <trkpt lat="48.35535" lon="4.78683">
        <ele>177.73</ele>
        <time>2025-01-03T14:08:47.715Z</time>
      </trkpt>
      <trkpt lat="48.35559" lon="4.78682">
        <ele>177.56</ele>
        <time>2025-01-03T14:08:51.026Z</time>
      </trkpt>
      <trkpt lat="48.35585" lon="4.78672">
        <ele>177.43</ele>
        <time>2025-01-03T14:08:54.341Z</time>
      </trkpt>
      <trkpt lat="48.3561" lon="4.78663">
        <ele>177.32</ele>
        <time>2025-01-03T14:08:57.660Z</time>
      </trkpt>
      <trkpt lat="48.35635" lon="4.78653">
        <ele>177.26</ele>
        <time>2025-01-03T14:09:00.983Z</time>
      </trkpt>
      <trkpt lat="48.3566" lon="4.78643">
        <ele>177.17</ele>
        <time>2025-01-03T14:09:04.310Z</time>
      </trkpt>
      <trkpt lat="48.35688" lon="4.7864">
        <ele>177.02</ele>
        <time>2025-01-03T14:09:07.642Z</time>
      </trkpt>
      <trkpt lat="48.35716" lon="4.78637">
        <ele>176.85</ele>
        <time>2025-01-03T14:09:10.978Z</time>
      </trkpt>
      <trkpt lat="48.35737" lon="4.78628">
        <ele>176.75</ele>
        <time>2025-01-03T14:09:14.318Z</time>
      </trkpt>
      <trkpt lat="48.35759" lon="4.7862">
        <ele>176.65</ele>
        <time>2025-01-03T14:09:17.662Z</time>
      </trkpt>
      <trkpt lat="48.35777" lon="4.78601">
        <ele>176.55</ele>
        <time>2025-01-03T14:09:21.009Z</time>
      </trkpt>
      <trkpt lat="48.35795" lon="4.78583">
        <ele>176.41</ele>
        <time>2025-01-03T14:09:24.359Z</time>
      </trkpt>
      <trkpt lat="48.35813" lon="4.78564">
        <ele>176.31</ele>
        <time>2025-01-03T14:09:27.713Z</time>
      </trkpt>
      <trkpt lat="48.35834" lon="4.78549">
        <ele>176.2</ele>
        <time>2025-01-03T14:09:31.071Z</time>
      </trkpt>
      <trkpt lat="48.3586" lon="4.78534">
        <ele>176.1</ele>
        <time>2025-01-03T14:09:34.433Z</time>
      </trkpt>
      <trkpt lat="48.35886" lon="4.78518">
        <ele>175.95</ele>
        <time>2025-01-03T14:09:37.800Z</time>
      </trkpt>
      <trkpt lat="48.35912" lon="4.78503">
        <ele>175.76</ele>
        <time>2025-01-03T14:09:41.171Z</time>
      </trkpt>
      <trkpt lat="48.35938" lon="4.78487">
        <ele>175.67</ele>
        <time>2025-01-03T14:09:44.547Z</time>
      </trkpt>
      <trkpt lat="48.35965" lon="4.78472">
        <ele>175.58</ele>
        <time>2025-01-03T14:09:47.927Z</time>
      </trkpt>
      <trkpt lat="48.35991" lon="4.78457">
        <ele>175.5</ele>
        <time>2025-01-03T14:09:51.312Z</time>
      </trkpt>
      <trkpt lat="48.36012" lon="4.78442">
        <ele>175.42</ele>
        <time>2025-01-03T14:09:54.701Z</time>
      </trkpt>
      <trkpt lat="48.36034" lon="4.78427">
        <ele>175.36</ele>
        <time>2025-01-03T14:09:58.093Z</time>
      </trkpt>
      <trkpt lat="48.36062" lon="4.78406">
        <ele>175.31</ele>
        <time>2025-01-03T14:10:01.490Z</time>
      </trkpt>
      <trkpt lat="48.3609" lon="4.78385">
        <ele>175.26</ele>
        <time>2025-01-03T14:10:04.892Z</time>
      </trkpt>
      <trkpt lat="48.36118" lon="4.78364">
        <ele>175.22</ele>
        <time>2025-01-03T14:10:08.299Z</time>
      </trkpt>
      <trkpt lat="48.36147" lon="4.78344">
        <ele>175.23</ele>
        <time>2025-01-03T14:10:11.711Z</time>
      </trkpt>
      <trkpt lat="48.36175" lon="4.78323">
        <ele>175.19</ele>
        <time>2025-01-03T14:10:15.128Z</time>
      </trkpt>
      <trkpt lat="48.36203" lon="4.78302">
        <ele>175.13</ele>
        <time>2025-01-03T14:10:18.551Z</time>
      </trkpt>
      <trkpt lat="48.36229" lon="4.78293">
        <ele>175.1</ele>
        <time>2025-01-03T14:10:21.978Z</time>
      </trkpt>
      <trkpt lat="48.36255" lon="4.78283">
        <ele>175.09</ele>
        <time>2025-01-03T14:10:25.409Z</time>
      </trkpt>
      <trkpt lat="48.3628" lon="4.78273">
        <ele>175.16</ele>
        <time>2025-01-03T14:10:28.844Z</time>
      </trkpt>
      <trkpt lat="48.36306" lon="4.78264">
        <ele>175.22</ele>
        <time>2025-01-03T14:10:32.284Z</time>
      </trkpt>
      <trkpt lat="48.3633" lon="4.78248">
        <ele>175.19</ele>
        <time>2025-01-03T14:10:35.728Z</time>
      </trkpt>
      <trkpt lat="48.36353" lon="4.78231">
        <ele>175.21</ele>
        <time>2025-01-03T14:10:39.176Z</time>
      </trkpt>
      <trkpt lat="48.3637" lon="4.78217">
        <ele>175.21</ele>
        <time>2025-01-03T14:10:42.627Z</time>
      </trkpt>
      <trkpt lat="48.36388" lon="4.78204">
        <ele>175.16</ele>
        <time>2025-01-03T14:10:46.081Z</time>
      </trkpt>
      <trkpt lat="48.36409" lon="4.78196">
        <ele>175.22</ele>
        <time>2025-01-03T14:10:49.539Z</time>
      </trkpt>
      <trkpt lat="48.36431" lon="4.78189">
        <ele>175.25</ele>
        <time>2025-01-03T14:10:53.000Z</time>
      </trkpt>
      <trkpt lat="48.36452" lon="4.78182">
        <ele>175.31</ele>
        <time>2025-01-03T14:10:56.465Z</time>
      </trkpt>
      <trkpt lat="48.36482" lon="4.78173">
        <ele>175.37</ele>
        <time>2025-01-03T14:10:59.934Z</time>
      </trkpt>
      <trkpt lat="48.36511" lon="4.78165">
        <ele>175.42</ele>
        <time>2025-01-03T14:11:03.408Z</time>
      </trkpt>
      <trkpt lat="48.36541" lon="4.78156">
        <ele>175.52</ele>
        <time>2025-01-03T14:11:06.887Z</time>
      </trkpt>
      <trkpt lat="48.3657" lon="4.78148">
        <ele>175.58</ele>
        <time>2025-01-03T14:11:10.371Z</time>
      </trkpt>
      <trkpt lat="48.366" lon="4.78139">
        <ele>175.72</ele>
        <time>2025-01-03T14:11:13.860Z</time>
      </trkpt>
      <trkpt lat="48.36602" lon="4.78154">
        <ele>175.91</ele>
        <time>2025-01-03T14:11:17.350Z</time>
      </trkpt>
      <trkpt lat="48.36607" lon="4.78189">
        <ele>176.17</ele>
        <time>2025-01-03T14:11:20.844Z</time>
      </trkpt>
      <trkpt lat="48.36607" lon="4.78189">
        <ele>176.39</ele>
        <time>2025-01-03T14:11:24.338Z</time>
      </trkpt>
      <trkpt lat="48.3661" lon="4.78221">
        <ele>176.69</ele>
        <time>2025-01-03T14:11:27.836Z</time>
      </trkpt>
      <trkpt lat="48.36613" lon="4.78253">
        <ele>177.03</ele>
        <time>2025-01-03T14:11:31.337Z</time>
      </trkpt>
      <trkpt lat="48.36611" lon="4.78292">
        <ele>177.39</ele>
        <time>2025-01-03T14:11:34.842Z</time>
      </trkpt>
      <trkpt lat="48.36609" lon="4.7833">
        <ele>177.77</ele>
        <time>2025-01-03T14:11:38.351Z</time>
      </trkpt>
      <trkpt lat="48.36611" lon="4.78332">
        <ele>178.07</ele>
        <time>2025-01-03T14:11:41.861Z</time>
      </trkpt>
      <trkpt lat="48.36626" lon="4.78332">
        <ele>178.34</ele>
        <time>2025-01-03T14:11:45.373Z</time>
      </trkpt>
      <trkpt lat="48.36632" lon="4.78347">
        <ele>178.67</ele>
        <time>2025-01-03T14:11:48.887Z</time>
      </trkpt>
      <trkpt lat="48.36647" lon="4.78364">
        <ele>179</ele>
        <time>2025-01-03T14:11:52.404Z</time>
      </trkpt>
      <trkpt lat="48.36662" lon="4.78382">
        <ele>179.32</ele>
        <time>2025-01-03T14:11:55.924Z</time>
      </trkpt>
      <trkpt lat="48.36667" lon="4.78399">
        <ele>179.63</ele>
        <time>2025-01-03T14:11:59.446Z</time>
      </trkpt>
      <trkpt lat="48.36664" lon="4.78407">
        <ele>179.97</ele>
        <time>2025-01-03T14:12:02.969Z</time>
      </trkpt>
      <trkpt lat="48.36649" lon="4.78437">
        <ele>180.42</ele>
        <time>2025-01-03T14:12:06.496Z</time>
      </trkpt>
      <trkpt lat="48.36633" lon="4.78466">
        <ele>180.85</ele>
        <time>2025-01-03T14:12:10.027Z</time>
      </trkpt>
      <trkpt lat="48.36617" lon="4.78495">
        <ele>181.21</ele>
        <time>2025-01-03T14:12:13.562Z</time>
      </trkpt>
      <trkpt lat="48.36615" lon="4.7851">
        <ele>181.51</ele>
        <time>2025-01-03T14:12:17.099Z</time>
      </trkpt>
      <trkpt lat="48.36622" lon="4.78525">
        <ele>181.77</ele>
        <time>2025-01-03T14:12:20.638Z</time>
      </trkpt>
      <trkpt lat="48.36645" lon="4.78554">
        <ele>182.02</ele>
        <time>2025-01-03T14:12:24.182Z</time>
      </trkpt>
      <trkpt lat="48.36669" lon="4.78583">
        <ele>182.35</ele>
        <time>2025-01-03T14:12:27.730Z</time>
      </trkpt>
      <trkpt lat="48.36692" lon="4.78612">
        <ele>182.75</ele>
        <time>2025-01-03T14:12:31.283Z</time>
      </trkpt>
      <trkpt lat="48.36716" lon="4.78641">
        <ele>183.21</ele>
        <time>2025-01-03T14:12:34.841Z</time>
      </trkpt>
      <trkpt lat="48.36738" lon="4.78673">
        <ele>183.7</ele>
        <time>2025-01-03T14:12:38.404Z</time>
      </trkpt>
      <trkpt lat="48.3676" lon="4.78706">
        <ele>184.19</ele>
        <time>2025-01-03T14:12:41.972Z</time>
      </trkpt>
      <trkpt lat="48.36782" lon="4.78738">
        <ele>184.71</ele>
        <time>2025-01-03T14:12:45.545Z</time>
      </trkpt>
      <trkpt lat="48.36806" lon="4.78765">
        <ele>185.28</ele>
        <time>2025-01-03T14:12:49.123Z</time>
      </trkpt>
      <trkpt lat="48.3683" lon="4.78791">
        <ele>185.93</ele>
        <time>2025-01-03T14:12:52.705Z</time>
      </trkpt>
      <trkpt lat="48.36825" lon="4.78838">
        <ele>186.62</ele>
        <time>2025-01-03T14:12:56.292Z</time>
      </trkpt>
      <trkpt lat="48.36821" lon="4.78885">
        <ele>187.33</ele>
        <time>2025-01-03T14:12:59.884Z</time>
      </trkpt>
      <trkpt lat="48.36817" lon="4.78931">
        <ele>188.09</ele>
        <time>2025-01-03T14:13:03.482Z</time>
      </trkpt>
      <trkpt lat="48.36813" lon="4.78978">
        <ele>188.93</ele>
        <time>2025-01-03T14:13:07.085Z</time>
      </trkpt>
      <trkpt lat="48.36809" lon="4.79024">
        <ele>189.83</ele>
        <time>2025-01-03T14:13:10.693Z</time>
      </trkpt>
      <trkpt lat="48.36805" lon="4.79071">
        <ele>190.75</ele>
        <time>2025-01-03T14:13:14.306Z</time>
      </trkpt>
      <trkpt lat="48.368" lon="4.79117">
        <ele>191.68</ele>
        <time>2025-01-03T14:13:17.924Z</time>
      </trkpt>
      <trkpt lat="48.36796" lon="4.79164">
        <ele>192.72</ele>
        <time>2025-01-03T14:13:21.547Z</time>
      </trkpt>
      <trkpt lat="48.36792" lon="4.7921">
        <ele>193.75</ele>
        <time>2025-01-03T14:13:25.175Z</time>
      </trkpt>
      <trkpt lat="48.36788" lon="4.79257">
        <ele>194.85</ele>
        <time>2025-01-03T14:13:28.808Z</time>
      </trkpt>
      <trkpt lat="48.36784" lon="4.79303">
        <ele>196.04</ele>
        <time>2025-01-03T14:13:32.446Z</time>
      </trkpt>
      <trkpt lat="48.3678" lon="4.7935">
        <ele>197.24</ele>
        <time>2025-01-03T14:13:36.089Z</time>
      </trkpt>
      <trkpt lat="48.36775" lon="4.79396">
        <ele>198.48</ele>
        <time>2025-01-03T14:13:39.737Z</time>
      </trkpt>
      <trkpt lat="48.36771" lon="4.79443">
        <ele>199.77</ele>
        <time>2025-01-03T14:13:43.390Z</time>
      </trkpt>
      <trkpt lat="48.36767" lon="4.79489">
        <ele>201.08</ele>
        <time>2025-01-03T14:13:47.048Z</time>
      </trkpt>
      <trkpt lat="48.36763" lon="4.79534">
        <ele>202.33</ele>
        <time>2025-01-03T14:13:50.710Z</time>
      </trkpt>
      <trkpt lat="48.36759" lon="4.7958">
        <ele>203.61</ele>
        <time>2025-01-03T14:13:54.377Z</time>
      </trkpt>
      <trkpt lat="48.36755" lon="4.79626">
        <ele>204.94</ele>
        <time>2025-01-03T14:13:58.049Z</time>
      </trkpt>
      <trkpt lat="48.3675" lon="4.79672">
        <ele>206.27</ele>
        <time>2025-01-03T14:14:01.726Z</time>
      </trkpt>
      <trkpt lat="48.36746" lon="4.79718">
        <ele>207.68</ele>
        <time>2025-01-03T14:14:05.408Z</time>
      </trkpt>
      <trkpt lat="48.36742" lon="4.79764">
        <ele>209.06</ele>
        <time>2025-01-03T14:14:09.095Z</time>
      </trkpt>
      <trkpt lat="48.36737" lon="4.79811">
        <ele>210.3</ele>
        <time>2025-01-03T14:14:12.787Z</time>
      </trkpt>
      <trkpt lat="48.36733" lon="4.79856">
        <ele>211.51</ele>
        <time>2025-01-03T14:14:16.484Z</time>
      </trkpt>
      <trkpt lat="48.36729" lon="4.79899">
        <ele>212.76</ele>
        <time>2025-01-03T14:14:20.186Z</time>
      </trkpt>
      <trkpt lat="48.36725" lon="4.79942">
        <ele>213.93</ele>
        <time>2025-01-03T14:14:23.892Z</time>
      </trkpt>
      <trkpt lat="48.36721" lon="4.79985">
        <ele>215.02</ele>
        <time>2025-01-03T14:14:27.603Z</time>
      </trkpt>
      <trkpt lat="48.36717" lon="4.80028">
        <ele>216.09</ele>
        <time>2025-01-03T14:14:31.319Z</time>
      </trkpt>
      <trkpt lat="48.36713" lon="4.80071">
        <ele>217.05</ele>
        <time>2025-01-03T14:14:35.039Z</time>
      </trkpt>
      <trkpt lat="48.3671" lon="4.80113">
        <ele>218</ele>
        <time>2025-01-03T14:14:38.764Z</time>
      </trkpt>
      <trkpt lat="48.36705" lon="4.80141">
        <ele>218.8</ele>
        <time>2025-01-03T14:14:42.492Z</time>
      </trkpt>
      <trkpt lat="48.36694" lon="4.80181">
        <ele>219.56</ele>
        <time>2025-01-03T14:14:46.224Z</time>
      </trkpt>
      <trkpt lat="48.36684" lon="4.80221">
        <ele>220.24</ele>
        <time>2025-01-03T14:14:49.961Z</time>
      </trkpt>
      <trkpt lat="48.36673" lon="4.80261">
        <ele>220.83</ele>
        <time>2025-01-03T14:14:53.703Z</time>
      </trkpt>
      <trkpt lat="48.36662" lon="4.80301">
        <ele>221.33</ele>
        <time>2025-01-03T14:14:57.449Z</time>
      </trkpt>
      <trkpt lat="48.36652" lon="4.80341">
        <ele>221.85</ele>
        <time>2025-01-03T14:15:01.200Z</time>
      </trkpt>
      <trkpt lat="48.36652" lon="4.80371">
        <ele>222.28</ele>
        <time>2025-01-03T14:15:04.954Z</time>
      </trkpt>
      <trkpt lat="48.36652" lon="4.80401">
        <ele>222.6</ele>
        <time>2025-01-03T14:15:08.711Z</time>
      </trkpt>
      <trkpt lat="48.36638" lon="4.80424">
        <ele>222.9</ele>
        <time>2025-01-03T14:15:12.472Z</time>
      </trkpt>
      <trkpt lat="48.36624" lon="4.80448">
        <ele>223.17</ele>
        <time>2025-01-03T14:15:16.236Z</time>
      </trkpt>
      <trkpt lat="48.36613" lon="4.80475">
        <ele>223.4</ele>
        <time>2025-01-03T14:15:20.003Z</time>
      </trkpt>
      <trkpt lat="48.36602" lon="4.80502">
        <ele>223.58</ele>
        <time>2025-01-03T14:15:23.774Z</time>
      </trkpt>
      <trkpt lat="48.36598" lon="4.80521">
        <ele>223.72</ele>
        <time>2025-01-03T14:15:27.547Z</time>
      </trkpt>
      <trkpt lat="48.36595" lon="4.80564">
        <ele>223.76</ele>
        <time>2025-01-03T14:15:31.324Z</time>
      </trkpt>
      <trkpt lat="48.36591" lon="4.80607">
        <ele>223.77</ele>
        <time>2025-01-03T14:15:35.106Z</time>
      </trkpt>
      <trkpt lat="48.36589" lon="4.80624">
        <ele>223.76</ele>
        <time>2025-01-03T14:15:38.890Z</time>
      </trkpt>
      <trkpt lat="48.36581" lon="4.80654">
        <ele>223.75</ele>
        <time>2025-01-03T14:15:42.677Z</time>
      </trkpt>
      <trkpt lat="48.36562" lon="4.80687">
        <ele>223.74</ele>
        <time>2025-01-03T14:15:46.469Z</time>
      </trkpt>
      <trkpt lat="48.36544" lon="4.8072">
        <ele>223.69</ele>
        <time>2025-01-03T14:15:50.266Z</time>
      </trkpt>
      <trkpt lat="48.36526" lon="4.80752">
        <ele>223.59</ele>
        <time>2025-01-03T14:15:54.067Z</time>
      </trkpt>
      <trkpt lat="48.36508" lon="4.80785">
        <ele>223.44</ele>
        <time>2025-01-03T14:15:57.873Z</time>
      </trkpt>
      <trkpt lat="48.36501" lon="4.80794">
        <ele>223.2</ele>
        <time>2025-01-03T14:16:01.680Z</time>
      </trkpt>
      <trkpt lat="48.36489" lon="4.8081">
        <ele>222.89</ele>
        <time>2025-01-03T14:16:05.490Z</time>
      </trkpt>
      <trkpt lat="48.36478" lon="4.80826">
        <ele>222.53</ele>
        <time>2025-01-03T14:16:09.302Z</time>
      </trkpt>
      <trkpt lat="48.36471" lon="4.80834">
        <ele>222.12</ele>
        <time>2025-01-03T14:16:13.115Z</time>
      </trkpt>
      <trkpt lat="48.36451" lon="4.80861">
        <ele>221.66</ele>
        <time>2025-01-03T14:16:16.933Z</time>
      </trkpt>
      <trkpt lat="48.36431" lon="4.80888">
        <ele>221.19</ele>
        <time>2025-01-03T14:16:20.755Z</time>
      </trkpt>
      <trkpt lat="48.36431" lon="4.80901">
        <ele>220.57</ele>
        <time>2025-01-03T14:16:24.579Z</time>
      </trkpt>
      <trkpt lat="48.36437" lon="4.80924">
        <ele>219.87</ele>
        <time>2025-01-03T14:16:28.405Z</time>
      </trkpt>
      <trkpt lat="48.36444" lon="4.80965">
        <ele>219.05</ele>
        <time>2025-01-03T14:16:32.236Z</time>
      </trkpt>
      <trkpt lat="48.36451" lon="4.81006">
        <ele>218.17</ele>
        <time>2025-01-03T14:16:36.071Z</time>
      </trkpt>
      <trkpt lat="48.36458" lon="4.81047">
        <ele>217.22</ele>
        <time>2025-01-03T14:16:39.911Z</time>
      </trkpt>
      <trkpt lat="48.36465" lon="4.81087">
        <ele>216.19</ele>
        <time>2025-01-03T14:16:43.755Z</time>
      </trkpt>
      <trkpt lat="48.36467" lon="4.81117">
        <ele>215.16</ele>
        <time>2025-01-03T14:16:47.602Z</time>
      </trkpt>
      <trkpt lat="48.36464" lon="4.81157">
        <ele>214.01</ele>
        <time>2025-01-03T14:16:51.454Z</time>
      </trkpt>
      <trkpt lat="48.36461" lon="4.81197">
        <ele>212.81</ele>
        <time>2025-01-03T14:16:55.310Z</time>
      </trkpt>
      <trkpt lat="48.36458" lon="4.81236">
        <ele>211.62</ele>
        <time>2025-01-03T14:16:59.170Z</time>
      </trkpt>
      <trkpt lat="48.36455" lon="4.81276">
        <ele>210.47</ele>
        <time>2025-01-03T14:17:03.034Z</time>
      </trkpt>
      <trkpt lat="48.36452" lon="4.81315">
        <ele>209.33</ele>
        <time>2025-01-03T14:17:06.903Z</time>
      </trkpt>
      <trkpt lat="48.36454" lon="4.81356">
        <ele>208.16</ele>
        <time>2025-01-03T14:17:10.776Z</time>
      </trkpt>
      <trkpt lat="48.36458" lon="4.81386">
        <ele>206.99</ele>
        <time>2025-01-03T14:17:14.652Z</time>
      </trkpt>
      <trkpt lat="48.36463" lon="4.81416">
        <ele>205.77</ele>
        <time>2025-01-03T14:17:18.532Z</time>
      </trkpt>
      <trkpt lat="48.36463" lon="4.81416">
        <ele>204.59</ele>
        <time>2025-01-03T14:17:22.412Z</time>
      </trkpt>
      <trkpt lat="48.3647" lon="4.81457">
        <ele>203.39</ele>
        <time>2025-01-03T14:17:26.296Z</time>
      </trkpt>
      <trkpt lat="48.36477" lon="4.81497">
        <ele>202.23</ele>
        <time>2025-01-03T14:17:30.185Z</time>
      </trkpt>
      <trkpt lat="48.36484" lon="4.81538">
        <ele>201.01</ele>
        <time>2025-01-03T14:17:34.078Z</time>
      </trkpt>
      <trkpt lat="48.36485" lon="4.81568">
        <ele>199.81</ele>
        <time>2025-01-03T14:17:37.974Z</time>
      </trkpt>
      <trkpt lat="48.36486" lon="4.81598">
        <ele>198.57</ele>
        <time>2025-01-03T14:17:41.873Z</time>
      </trkpt>
      <trkpt lat="48.36483" lon="4.81635">
        <ele>197.38</ele>
        <time>2025-01-03T14:17:45.776Z</time>
      </trkpt>
      <trkpt lat="48.3648" lon="4.81672">
        <ele>196.09</ele>
        <time>2025-01-03T14:17:49.683Z</time>
      </trkpt>
      <trkpt lat="48.36477" lon="4.81709">
        <ele>194.86</ele>
        <time>2025-01-03T14:17:53.594Z</time>
      </trkpt>
      <trkpt lat="48.36473" lon="4.81746">
        <ele>193.62</ele>
        <time>2025-01-03T14:17:57.509Z</time>
      </trkpt>
      <trkpt lat="48.36465" lon="4.81784">
        <ele>192.44</ele>
        <time>2025-01-03T14:18:01.429Z</time>
      </trkpt>
      <trkpt lat="48.36456" lon="4.81821">
        <ele>191.3</ele>
        <time>2025-01-03T14:18:05.353Z</time>
      </trkpt>
      <trkpt lat="48.36448" lon="4.81859">
        <ele>190.16</ele>
        <time>2025-01-03T14:18:09.281Z</time>
      </trkpt>
      <trkpt lat="48.36439" lon="4.81896">
        <ele>189.04</ele>
        <time>2025-01-03T14:18:13.213Z</time>
      </trkpt>
      <trkpt lat="48.36436" lon="4.81929">
        <ele>188.03</ele>
        <time>2025-01-03T14:18:17.149Z</time>
      </trkpt>
      <trkpt lat="48.36433" lon="4.81962">
        <ele>187.07</ele>
        <time>2025-01-03T14:18:21.088Z</time>
      </trkpt>
      <trkpt lat="48.36431" lon="4.81995">
        <ele>186.18</ele>
        <time>2025-01-03T14:18:25.031Z</time>
      </trkpt>
      <trkpt lat="48.36432" lon="4.82039">
        <ele>185.33</ele>
        <time>2025-01-03T14:18:28.979Z</time>
      </trkpt>
      <trkpt lat="48.36433" lon="4.82082">
        <ele>184.56</ele>
        <time>2025-01-03T14:18:32.931Z</time>
      </trkpt>
      <trkpt lat="48.36435" lon="4.82125">
        <ele>183.92</ele>
        <time>2025-01-03T14:18:36.888Z</time>
      </trkpt>
      <trkpt lat="48.36436" lon="4.82169">
        <ele>183.34</ele>
        <time>2025-01-03T14:18:40.850Z</time>
      </trkpt>
      <trkpt lat="48.36437" lon="4.82212">
        <ele>182.89</ele>
        <time>2025-01-03T14:18:44.816Z</time>
      </trkpt>
      <trkpt lat="48.36439" lon="4.82256">
        <ele>182.52</ele>
        <time>2025-01-03T14:18:48.787Z</time>
      </trkpt>
      <trkpt lat="48.3644" lon="4.82299">
        <ele>182.25</ele>
        <time>2025-01-03T14:18:52.762Z</time>
      </trkpt>
      <trkpt lat="48.36442" lon="4.82342">
        <ele>182.08</ele>
        <time>2025-01-03T14:18:56.742Z</time>
      </trkpt>
      <trkpt lat="48.36443" lon="4.82386">
        <ele>182.04</ele>
        <time>2025-01-03T14:19:00.727Z</time>
      </trkpt>
      <trkpt lat="48.36444" lon="4.82429">
        <ele>182.1</ele>
        <time>2025-01-03T14:19:04.716Z</time>
      </trkpt>
      <trkpt lat="48.36446" lon="4.82471">
        <ele>182.28</ele>
        <time>2025-01-03T14:19:08.710Z</time>
      </trkpt>
      <trkpt lat="48.3644" lon="4.82514">
        <ele>182.42</ele>
        <time>2025-01-03T14:19:12.708Z</time>
      </trkpt>
      <trkpt lat="48.36435" lon="4.82557">
        <ele>182.7</ele>
        <time>2025-01-03T14:19:16.711Z</time>
      </trkpt>
      <trkpt lat="48.36429" lon="4.826">
        <ele>183.14</ele>
        <time>2025-01-03T14:19:20.719Z</time>
      </trkpt>
      <trkpt lat="48.36423" lon="4.82642">
        <ele>183.69</ele>
        <time>2025-01-03T14:19:24.731Z</time>
      </trkpt>
      <trkpt lat="48.36418" lon="4.82685">
        <ele>184.29</ele>
        <time>2025-01-03T14:19:28.748Z</time>
      </trkpt>
      <trkpt lat="48.36412" lon="4.82728">
        <ele>185.1</ele>
        <time>2025-01-03T14:19:32.770Z</time>
      </trkpt>
      <trkpt lat="48.36407" lon="4.8277">
        <ele>186.05</ele>
        <time>2025-01-03T14:19:36.796Z</time>
      </trkpt>
      <trkpt lat="48.36403" lon="4.82799">
        <ele>187.09</ele>
        <time>2025-01-03T14:19:40.825Z</time>
      </trkpt>
      <trkpt lat="48.36398" lon="4.82828">
        <ele>188.25</ele>
        <time>2025-01-03T14:19:44.858Z</time>
      </trkpt>
      <trkpt lat="48.36403" lon="4.82864">
        <ele>189.53</ele>
        <time>2025-01-03T14:19:48.895Z</time>
      </trkpt>
      <trkpt lat="48.36415" lon="4.82906">
        <ele>190.91</ele>
        <time>2025-01-03T14:19:52.936Z</time>
      </trkpt>
      <trkpt lat="48.36428" lon="4.82947">
        <ele>192.28</ele>
        <time>2025-01-03T14:19:56.982Z</time>
      </trkpt>
      <trkpt lat="48.36441" lon="4.82988">
        <ele>193.61</ele>
        <time>2025-01-03T14:20:01.033Z</time>
      </trkpt>
      <trkpt lat="48.36453" lon="4.8303">
        <ele>194.99</ele>
        <time>2025-01-03T14:20:05.089Z</time>
      </trkpt>
      <trkpt lat="48.36466" lon="4.83071">
        <ele>196.42</ele>
        <time>2025-01-03T14:20:09.150Z</time>
      </trkpt>
      <trkpt lat="48.36478" lon="4.83113">
        <ele>197.89</ele>
        <time>2025-01-03T14:20:13.216Z</time>
      </trkpt>
      <trkpt lat="48.36491" lon="4.83154">
        <ele>199.38</ele>
        <time>2025-01-03T14:20:17.287Z</time>
      </trkpt>
      <trkpt lat="48.36504" lon="4.83195">
        <ele>200.9</ele>
        <time>2025-01-03T14:20:21.362Z</time>
      </trkpt>
      <trkpt lat="48.36519" lon="4.83233">
        <ele>202.33</ele>
        <time>2025-01-03T14:20:25.442Z</time>
      </trkpt>
      <trkpt lat="48.36535" lon="4.83271">
        <ele>203.72</ele>
        <time>2025-01-03T14:20:29.527Z</time>
      </trkpt>
      <trkpt lat="48.36551" lon="4.83309">
        <ele>205.09</ele>
        <time>2025-01-03T14:20:33.617Z</time>
      </trkpt>
      <trkpt lat="48.36567" lon="4.83348">
        <ele>206.46</ele>
        <time>2025-01-03T14:20:37.712Z</time>
      </trkpt>
      <trkpt lat="48.36583" lon="4.83386">
        <ele>207.8</ele>
        <time>2025-01-03T14:20:41.811Z</time>
      </trkpt>
      <trkpt lat="48.36591" lon="4.83413">
        <ele>209.07</ele>
        <time>2025-01-03T14:20:45.914Z</time>
      </trkpt>
      <trkpt lat="48.36599" lon="4.83456">
        <ele>210.32</ele>
        <time>2025-01-03T14:20:50.021Z</time>
      </trkpt>
      <trkpt lat="48.36606" lon="4.83498">
        <ele>211.6</ele>
        <time>2025-01-03T14:20:54.133Z</time>
      </trkpt>
      <trkpt lat="48.36613" lon="4.83541">
        <ele>212.81</ele>
        <time>2025-01-03T14:20:58.250Z</time>
      </trkpt>
      <trkpt lat="48.3662" lon="4.83583">
        <ele>213.98</ele>
        <time>2025-01-03T14:21:02.371Z</time>
      </trkpt>
      <trkpt lat="48.36627" lon="4.83626">
        <ele>215.09</ele>
        <time>2025-01-03T14:21:06.497Z</time>
      </trkpt>
      <trkpt lat="48.36634" lon="4.83668">
        <ele>216.14</ele>
        <time>2025-01-03T14:21:10.628Z</time>
      </trkpt>
      <trkpt lat="48.36641" lon="4.8371">
        <ele>217.12</ele>
        <time>2025-01-03T14:21:14.763Z</time>
      </trkpt>
      <trkpt lat="48.36642" lon="4.83757">
        <ele>218.07</ele>
        <time>2025-01-03T14:21:18.903Z</time>
      </trkpt>
      <trkpt lat="48.36643" lon="4.83804">
        <ele>218.93</ele>
        <time>2025-01-03T14:21:23.048Z</time>
      </trkpt>
      <trkpt lat="48.36644" lon="4.83851">
        <ele>219.64</ele>
        <time>2025-01-03T14:21:27.198Z</time>
      </trkpt>
      <trkpt lat="48.36645" lon="4.83898">
        <ele>220.32</ele>
        <time>2025-01-03T14:21:31.353Z</time>
      </trkpt>
      <trkpt lat="48.36646" lon="4.83945">
        <ele>220.99</ele>
        <time>2025-01-03T14:21:35.513Z</time>
      </trkpt>
      <trkpt lat="48.36647" lon="4.83992">
        <ele>221.58</ele>
        <time>2025-01-03T14:21:39.678Z</time>
      </trkpt>
      <trkpt lat="48.36648" lon="4.84039">
        <ele>222.1</ele>
        <time>2025-01-03T14:21:43.848Z</time>
      </trkpt>
      <trkpt lat="48.36648" lon="4.84086">
        <ele>222.55</ele>
        <time>2025-01-03T14:21:48.023Z</time>
      </trkpt>
      <trkpt lat="48.36649" lon="4.84132">
        <ele>222.99</ele>
        <time>2025-01-03T14:21:52.203Z</time>
      </trkpt>
      <trkpt lat="48.3665" lon="4.84172">
        <ele>223.35</ele>
        <time>2025-01-03T14:21:56.388Z</time>
      </trkpt>
      <trkpt lat="48.36651" lon="4.84213">
        <ele>223.68</ele>
        <time>2025-01-03T14:22:00.577Z</time>
      </trkpt>
      <trkpt lat="48.36652" lon="4.84252">
        <ele>223.93</ele>
        <time>2025-01-03T14:22:04.770Z</time>
      </trkpt>
      <trkpt lat="48.36652" lon="4.84296">
        <ele>224.16</ele>
        <time>2025-01-03T14:22:08.968Z</time>
      </trkpt>
      <trkpt lat="48.36653" lon="4.8434">
        <ele>224.39</ele>
        <time>2025-01-03T14:22:13.171Z</time>
      </trkpt>
      <trkpt lat="48.36654" lon="4.84384">
        <ele>224.57</ele>
        <time>2025-01-03T14:22:17.378Z</time>
      </trkpt>
      <trkpt lat="48.36655" lon="4.84428">
        <ele>224.68</ele>
        <time>2025-01-03T14:22:21.590Z</time>
      </trkpt>
      <trkpt lat="48.36656" lon="4.84472">
        <ele>224.78</ele>
        <time>2025-01-03T14:22:25.807Z</time>
      </trkpt>
      <trkpt lat="48.36656" lon="4.84515">
        <ele>224.85</ele>
        <time>2025-01-03T14:22:30.028Z</time>
      </trkpt>
      <trkpt lat="48.36657" lon="4.84559">
        <ele>224.9</ele>
        <time>2025-01-03T14:22:34.254Z</time>
      </trkpt>
      <trkpt lat="48.36658" lon="4.84602">
        <ele>224.92</ele>
        <time>2025-01-03T14:22:38.484Z</time>
      </trkpt>
      <trkpt lat="48.36651" lon="4.84645">
        <ele>224.95</ele>
        <time>2025-01-03T14:22:42.719Z</time>
      </trkpt>
      <trkpt lat="48.36645" lon="4.84687">
        <ele>224.98</ele>
        <time>2025-01-03T14:22:46.959Z</time>
      </trkpt>
      <trkpt lat="48.36638" lon="4.8473">
        <ele>225.01</ele>
        <time>2025-01-03T14:22:51.203Z</time>
      </trkpt>
      <trkpt lat="48.36631" lon="4.84772">
        <ele>225</ele>
        <time>2025-01-03T14:22:55.452Z</time>
      </trkpt>
      <trkpt lat="48.36624" lon="4.84815">
        <ele>225.02</ele>
        <time>2025-01-03T14:22:59.706Z</time>
      </trkpt>
      <trkpt lat="48.36618" lon="4.84857">
        <ele>225.04</ele>
        <time>2025-01-03T14:23:03.964Z</time>
      </trkpt>
      <trkpt lat="48.36611" lon="4.849">
        <ele>225.13</ele>
        <time>2025-01-03T14:23:08.227Z</time>
      </trkpt>
      <trkpt lat="48.36604" lon="4.84941">
        <ele>225.26</ele>
        <time>2025-01-03T14:23:12.495Z</time>
      </trkpt>
      <trkpt lat="48.36602" lon="4.84982">
        <ele>225.45</ele>
        <time>2025-01-03T14:23:16.767Z</time>
      </trkpt>
      <trkpt lat="48.36605" lon="4.85028">
        <ele>225.65</ele>
        <time>2025-01-03T14:23:21.044Z</time>
      </trkpt>
      <trkpt lat="48.36608" lon="4.85075">
        <ele>225.99</ele>
        <time>2025-01-03T14:23:25.326Z</time>
      </trkpt>
      <trkpt lat="48.36611" lon="4.85121">
        <ele>226.32</ele>
        <time>2025-01-03T14:23:29.613Z</time>
      </trkpt>
      <trkpt lat="48.36614" lon="4.85168">
        <ele>226.72</ele>
        <time>2025-01-03T14:23:33.905Z</time>
      </trkpt>
      <trkpt lat="48.36617" lon="4.85214">
        <ele>227.2</ele>
        <time>2025-01-03T14:23:38.202Z</time>
      </trkpt>
      <trkpt lat="48.36619" lon="4.8526">
        <ele>227.66</ele>
        <time>2025-01-03T14:23:42.504Z</time>
      </trkpt>
      <trkpt lat="48.36622" lon="4.85307">
        <ele>228.11</ele>
        <time>2025-01-03T14:23:46.811Z</time>
      </trkpt>
      <trkpt lat="48.36625" lon="4.85353">
        <ele>228.62</ele>
        <time>2025-01-03T14:23:51.123Z</time>
      </trkpt>
      <trkpt lat="48.36628" lon="4.85398">
        <ele>229.1</ele>
        <time>2025-01-03T14:23:55.440Z</time>
      </trkpt>
      <trkpt lat="48.36626" lon="4.85435">
        <ele>229.62</ele>
        <time>2025-01-03T14:23:59.761Z</time>
      </trkpt>
      <trkpt lat="48.36624" lon="4.85458">
        <ele>230.11</ele>
        <time>2025-01-03T14:24:04.084Z</time>
      </trkpt>
      <trkpt lat="48.36619" lon="4.85473">
        <ele>230.62</ele>
        <time>2025-01-03T14:24:08.409Z</time>
      </trkpt>
      <trkpt lat="48.3661" lon="4.85501">
        <ele>231.13</ele>
        <time>2025-01-03T14:24:12.737Z</time>
      </trkpt>
      <trkpt lat="48.366" lon="4.85529">
        <ele>231.64</ele>
        <time>2025-01-03T14:24:17.069Z</time>
      </trkpt>
      <trkpt lat="48.36596" lon="4.85559">
        <ele>232.11</ele>
        <time>2025-01-03T14:24:21.404Z</time>
      </trkpt>
      <trkpt lat="48.36596" lon="4.85585">
        <ele>232.6</ele>
        <time>2025-01-03T14:24:25.742Z</time>
      </trkpt>
      <trkpt lat="48.36606" lon="4.85623">
        <ele>233.09</ele>
        <time>2025-01-03T14:24:30.084Z</time>
      </trkpt>
      <trkpt lat="48.36616" lon="4.8566">
        <ele>233.67</ele>
        <time>2025-01-03T14:24:34.430Z</time>
      </trkpt>
      <trkpt lat="48.36626" lon="4.85698">
        <ele>234.24</ele>
        <time>2025-01-03T14:24:38.781Z</time>
      </trkpt>
      <trkpt lat="48.36637" lon="4.85735">
        <ele>234.8</ele>
        <time>2025-01-03T14:24:43.136Z</time>
      </trkpt>
      <trkpt lat="48.36652" lon="4.85765">
        <ele>235.32</ele>
        <time>2025-01-03T14:24:47.495Z</time>
      </trkpt>
      <trkpt lat="48.36667" lon="4.85795">
        <ele>235.83</ele>
        <time>2025-01-03T14:24:51.858Z</time>
      </trkpt>
      <trkpt lat="48.36684" lon="4.85831">
        <ele>236.37</ele>
        <time>2025-01-03T14:24:56.226Z</time>
      </trkpt>
      <trkpt lat="48.36701" lon="4.85867">
        <ele>236.77</ele>
        <time>2025-01-03T14:25:00.598Z</time>
      </trkpt>
      <trkpt lat="48.36718" lon="4.85903">
        <ele>237.19</ele>
        <time>2025-01-03T14:25:04.975Z</time>
      </trkpt>
      <trkpt lat="48.3672" lon="4.85911">
        <ele>237.62</ele>
        <time>2025-01-03T14:25:09.353Z</time>
      </trkpt>
      <trkpt lat="48.36729" lon="4.85953">
        <ele>238.05</ele>
        <time>2025-01-03T14:25:13.736Z</time>
      </trkpt>
      <trkpt lat="48.36739" lon="4.85994">
        <ele>238.48</ele>
        <time>2025-01-03T14:25:18.123Z</time>
      </trkpt>
      <trkpt lat="48.36748" lon="4.86035">
        <ele>238.91</ele>
        <time>2025-01-03T14:25:22.515Z</time>
      </trkpt>
      <trkpt lat="48.36757" lon="4.86076">
        <ele>239.4</ele>
        <time>2025-01-03T14:25:26.912Z</time>
      </trkpt>
      <trkpt lat="48.36766" lon="4.86121">
        <ele>239.76</ele>
        <time>2025-01-03T14:25:31.314Z</time>
      </trkpt>
      <trkpt lat="48.36776" lon="4.86166">
        <ele>240.09</ele>
        <time>2025-01-03T14:25:35.721Z</time>
      </trkpt>
      <trkpt lat="48.36786" lon="4.8621">
        <ele>240.47</ele>
        <time>2025-01-03T14:25:40.133Z</time>
      </trkpt>
      <trkpt lat="48.36795" lon="4.86255">
        <ele>240.87</ele>
        <time>2025-01-03T14:25:44.550Z</time>
      </trkpt>
      <trkpt lat="48.36805" lon="4.863">
        <ele>241.2</ele>
        <time>2025-01-03T14:25:48.972Z</time>
      </trkpt>
      <trkpt lat="48.36815" lon="4.86344">
        <ele>241.47</ele>
        <time>2025-01-03T14:25:53.399Z</time>
      </trkpt>
      <trkpt lat="48.36824" lon="4.86389">
        <ele>241.81</ele>
        <time>2025-01-03T14:25:57.831Z</time>
      </trkpt>
      <trkpt lat="48.36834" lon="4.86433">
        <ele>242.12</ele>
        <time>2025-01-03T14:26:02.267Z</time>
      </trkpt>
      <trkpt lat="48.36841" lon="4.86468">
        <ele>242.44</ele>
        <time>2025-01-03T14:26:06.707Z</time>
      </trkpt>
      <trkpt lat="48.36849" lon="4.86502">
        <ele>242.69</ele>
        <time>2025-01-03T14:26:11.151Z</time>
      </trkpt>
      <trkpt lat="48.36857" lon="4.86537">
        <ele>242.96</ele>
        <time>2025-01-03T14:26:15.599Z</time>
      </trkpt>
      <trkpt lat="48.36864" lon="4.86572">
        <ele>243.15</ele>
        <time>2025-01-03T14:26:20.051Z</time>
      </trkpt>
      <trkpt lat="48.36869" lon="4.86602">
        <ele>243.39</ele>
        <time>2025-01-03T14:26:24.506Z</time>
      </trkpt>
      <trkpt lat="48.36875" lon="4.86632">
        <ele>243.67</ele>
        <time>2025-01-03T14:26:28.965Z</time>
      </trkpt>
      <trkpt lat="48.36874" lon="4.86679">
        <ele>243.97</ele>
        <time>2025-01-03T14:26:33.429Z</time>
      </trkpt>
      <trkpt lat="48.36873" lon="4.86727">
        <ele>244.12</ele>
        <time>2025-01-03T14:26:37.898Z</time>
      </trkpt>
      <trkpt lat="48.36871" lon="4.86774">
        <ele>244.33</ele>
        <time>2025-01-03T14:26:42.372Z</time>
      </trkpt>
      <trkpt lat="48.3687" lon="4.86821">
        <ele>244.59</ele>
        <time>2025-01-03T14:26:46.851Z</time>
      </trkpt>
      <trkpt lat="48.36869" lon="4.86869">
        <ele>244.82</ele>
        <time>2025-01-03T14:26:51.335Z</time>
      </trkpt>
      <trkpt lat="48.36868" lon="4.86916">
        <ele>244.92</ele>
        <time>2025-01-03T14:26:55.824Z</time>
      </trkpt>
      <trkpt lat="48.36867" lon="4.86963">
        <ele>245.04</ele>
        <time>2025-01-03T14:27:00.318Z</time>
      </trkpt>
      <trkpt lat="48.36866" lon="4.87011">
        <ele>245.11</ele>
        <time>2025-01-03T14:27:04.817Z</time>
      </trkpt>
      <trkpt lat="48.36865" lon="4.87058">
        <ele>245.23</ele>
        <time>2025-01-03T14:27:09.321Z</time>
      </trkpt>
      <trkpt lat="48.36864" lon="4.87105">
        <ele>245.24</ele>
        <time>2025-01-03T14:27:13.830Z</time>
      </trkpt>
      <trkpt lat="48.36863" lon="4.87153">
        <ele>245.29</ele>
        <time>2025-01-03T14:27:18.344Z</time>
      </trkpt>
      <trkpt lat="48.36862" lon="4.872">
        <ele>245.42</ele>
        <time>2025-01-03T14:27:22.863Z</time>
      </trkpt>
      <trkpt lat="48.36861" lon="4.87247">
        <ele>245.54</ele>
        <time>2025-01-03T14:27:27.387Z</time>
      </trkpt>
      <trkpt lat="48.3686" lon="4.87295">
        <ele>245.66</ele>
        <time>2025-01-03T14:27:31.917Z</time>
      </trkpt>
      <trkpt lat="48.36859" lon="4.87342">
        <ele>245.72</ele>
        <time>2025-01-03T14:27:36.452Z</time>
      </trkpt>
      <trkpt lat="48.36858" lon="4.87387">
        <ele>245.79</ele>
        <time>2025-01-03T14:27:40.991Z</time>
      </trkpt>
      <trkpt lat="48.36858" lon="4.87422">
        <ele>245.85</ele>
        <time>2025-01-03T14:27:45.534Z</time>
      </trkpt>
      <trkpt lat="48.36862" lon="4.8745">
        <ele>245.87</ele>
        <time>2025-01-03T14:27:50.080Z</time>
      </trkpt>
      <trkpt lat="48.36872" lon="4.87484">
        <ele>245.89</ele>
        <time>2025-01-03T14:27:54.630Z</time>
      </trkpt>
      <trkpt lat="48.36881" lon="4.87518">
        <ele>245.89</ele>
        <time>2025-01-03T14:27:59.184Z</time>
      </trkpt>
      <trkpt lat="48.36881" lon="4.87518">
        <ele>245.89</ele>
        <time>2025-01-03T14:28:03.738Z</time>
      </trkpt>
      <trkpt lat="48.36894" lon="4.8756">
        <ele>245.87</ele>
        <time>2025-01-03T14:28:08.297Z</time>
      </trkpt>
      <trkpt lat="48.36908" lon="4.87602">
        <ele>245.83</ele>
        <time>2025-01-03T14:28:12.861Z</time>
      </trkpt>
      <trkpt lat="48.36921" lon="4.87644">
        <ele>245.78</ele>
        <time>2025-01-03T14:28:17.430Z</time>
      </trkpt>
      <trkpt lat="48.36934" lon="4.87686">
        <ele>245.72</ele>
        <time>2025-01-03T14:28:22.004Z</time>
      </trkpt>
      <trkpt lat="48.36947" lon="4.87728">
        <ele>245.71</ele>
        <time>2025-01-03T14:28:26.583Z</time>
      </trkpt>
      <trkpt lat="48.36961" lon="4.87769">
        <ele>245.68</ele>
        <time>2025-01-03T14:28:31.167Z</time>
      </trkpt>
      <trkpt lat="48.36969" lon="4.87813">
        <ele>245.6</ele>
        <time>2025-01-03T14:28:35.756Z</time>
      </trkpt>
      <trkpt lat="48.36977" lon="4.87858">
        <ele>245.48</ele>
        <time>2025-01-03T14:28:40.349Z</time>
      </trkpt>
      <trkpt lat="48.36985" lon="4.87902">
        <ele>245.39</ele>
        <time>2025-01-03T14:28:44.947Z</time>
      </trkpt>
      <trkpt lat="48.36993" lon="4.87945">
        <ele>245.34</ele>
        <time>2025-01-03T14:28:49.550Z</time>
      </trkpt>
      <trkpt lat="48.37" lon="4.87982">
        <ele>245.3</ele>
        <time>2025-01-03T14:28:54.157Z</time>
      </trkpt>
      <trkpt lat="48.37007" lon="4.8802">
        <ele>245.23</ele>
        <time>2025-01-03T14:28:58.768Z</time>
      </trkpt>
      <trkpt lat="48.37014" lon="4.88057">
        <ele>245.17</ele>
        <time>2025-01-03T14:29:03.384Z</time>
      </trkpt>
      <trkpt lat="48.37021" lon="4.88093">
        <ele>245.07</ele>
        <time>2025-01-03T14:29:08.004Z</time>
      </trkpt>
      <trkpt lat="48.37024" lon="4.88139">
        <ele>244.99</ele>
        <time>2025-01-03T14:29:12.629Z</time>
      </trkpt>
      <trkpt lat="48.37028" lon="4.88185">
        <ele>244.89</ele>
        <time>2025-01-03T14:29:17.258Z</time>
      </trkpt>
      <trkpt lat="48.37031" lon="4.88231">
        <ele>244.76</ele>
        <time>2025-01-03T14:29:21.892Z</time>
      </trkpt>
      <trkpt lat="48.37035" lon="4.88277">
        <ele>244.7</ele>
        <time>2025-01-03T14:29:26.531Z</time>
      </trkpt>
      <trkpt lat="48.37038" lon="4.88323">
        <ele>244.66</ele>
        <time>2025-01-03T14:29:31.175Z</time>
      </trkpt>
      <trkpt lat="48.37042" lon="4.88369">
        <ele>244.61</ele>
        <time>2025-01-03T14:29:35.824Z</time>
      </trkpt>
      <trkpt lat="48.37045" lon="4.88415">
        <ele>244.57</ele>
        <time>2025-01-03T14:29:40.478Z</time>
      </trkpt>
      <trkpt lat="48.37049" lon="4.88461">
        <ele>244.59</ele>
        <time>2025-01-03T14:29:45.137Z</time>
      </trkpt>
      <trkpt lat="48.37052" lon="4.88507">
        <ele>244.58</ele>
        <time>2025-01-03T14:29:49.801Z</time>
      </trkpt>
      <trkpt lat="48.37056" lon="4.88553">
        <ele>244.59</ele>
        <time>2025-01-03T14:29:54.470Z</time>
      </trkpt>
      <trkpt lat="48.37059" lon="4.88598">
        <ele>244.67</ele>
        <time>2025-01-03T14:29:59.144Z</time>
      </trkpt>
      <trkpt lat="48.37059" lon="4.88598">
        <ele>244.7</ele>
        <time>2025-01-03T14:30:03.818Z</time>
      </trkpt>
      <trkpt lat="48.37061" lon="4.88636">
        <ele>244.81</ele>
        <time>2025-01-03T14:30:08.496Z</time>
      </trkpt>
      <trkpt lat="48.37064" lon="4.88675">
        <ele>244.84</ele>
        <time>2025-01-03T14:30:13.178Z</time>
      </trkpt>
      <trkpt lat="48.37066" lon="4.88714">
        <ele>244.87</ele>
        <time>2025-01-03T14:30:17.864Z</time>
      </trkpt>
      <trkpt lat="48.37072" lon="4.88754">
        <ele>244.95</ele>
        <time>2025-01-03T14:30:22.555Z</time>
      </trkpt>
      <trkpt lat="48.37088" lon="4.88791">
        <ele>245</ele>
        <time>2025-01-03T14:30:27.250Z</time>
      </trkpt>
      <trkpt lat="48.37103" lon="4.88827">
        <ele>245.14</ele>
        <time>2025-01-03T14:30:31.950Z</time>
      </trkpt>
      <trkpt lat="48.37118" lon="4.88863">
        <ele>245.32</ele>
        <time>2025-01-03T14:30:36.654Z</time>
      </trkpt>
      <trkpt lat="48.37134" lon="4.889">
        <ele>245.6</ele>
        <time>2025-01-03T14:30:41.363Z</time>
      </trkpt>
      <trkpt lat="48.37149" lon="4.88936">
        <ele>245.9</ele>
        <time>2025-01-03T14:30:46.077Z</time>
      </trkpt>
      <trkpt lat="48.37165" lon="4.88972">
        <ele>246.21</ele>
        <time>2025-01-03T14:30:50.795Z</time>
      </trkpt>
      <trkpt lat="48.3718" lon="4.89009">
        <ele>246.57</ele>
        <time>2025-01-03T14:30:55.518Z</time>
      </trkpt>
      <trkpt lat="48.37196" lon="4.89045">
        <ele>246.96</ele>
        <time>2025-01-03T14:31:00.245Z</time>
      </trkpt>
      <trkpt lat="48.37211" lon="4.89081">
        <ele>247.4</ele>
        <time>2025-01-03T14:31:04.977Z</time>
      </trkpt>
      <trkpt lat="48.37227" lon="4.89118">
        <ele>247.88</ele>
        <time>2025-01-03T14:31:09.714Z</time>
      </trkpt>
      <trkpt lat="48.37242" lon="4.89153">
        <ele>248.42</ele>
        <time>2025-01-03T14:31:14.455Z</time>
      </trkpt>
      <trkpt lat="48.37246" lon="4.89173">
        <ele>249</ele>
        <time>2025-01-03T14:31:19.198Z</time>
      </trkpt>
      <trkpt lat="48.37248" lon="4.89207">
        <ele>249.66</ele>
        <time>2025-01-03T14:31:23.945Z</time>
      </trkpt>
      <trkpt lat="48.3725" lon="4.89241">
        <ele>250.3</ele>
        <time>2025-01-03T14:31:28.696Z</time>
      </trkpt>
      <trkpt lat="48.37253" lon="4.89283">
        <ele>250.97</ele>
        <time>2025-01-03T14:31:33.451Z</time>
      </trkpt>
      <trkpt lat="48.37257" lon="4.89325">
        <ele>251.62</ele>
        <time>2025-01-03T14:31:38.211Z</time>
      </trkpt>
      <trkpt lat="48.3726" lon="4.89367">
        <ele>252.39</ele>
        <time>2025-01-03T14:31:42.975Z</time>
      </trkpt>
      <trkpt lat="48.37263" lon="4.89409">
        <ele>253.15</ele>
        <time>2025-01-03T14:31:47.744Z</time>
      </trkpt>
      <trkpt lat="48.37265" lon="4.89445">
        <ele>253.93</ele>
        <time>2025-01-03T14:31:52.517Z</time>
      </trkpt>
      <trkpt lat="48.37266" lon="4.89482">
        <ele>254.73</ele>
        <time>2025-01-03T14:31:57.293Z</time>
      </trkpt>
      <trkpt lat="48.37267" lon="4.89518">
        <ele>255.57</ele>
        <time>2025-01-03T14:32:02.073Z</time>
      </trkpt>
      <trkpt lat="48.37258" lon="4.89557">
        <ele>256.44</ele>
        <time>2025-01-03T14:32:06.858Z</time>
      </trkpt>
      <trkpt lat="48.37249" lon="4.89597">
        <ele>257.28</ele>
        <time>2025-01-03T14:32:11.647Z</time>
      </trkpt>
      <trkpt lat="48.3724" lon="4.89636">
        <ele>258.11</ele>
        <time>2025-01-03T14:32:16.441Z</time>
      </trkpt>
      <trkpt lat="48.37231" lon="4.89675">
        <ele>258.88</ele>
        <time>2025-01-03T14:32:21.239Z</time>
      </trkpt>
      <trkpt lat="48.37218" lon="4.89718">
        <ele>259.65</ele>
        <time>2025-01-03T14:32:26.042Z</time>
      </trkpt>
      <trkpt lat="48.37204" lon="4.89759">
        <ele>260.44</ele>
        <time>2025-01-03T14:32:30.850Z</time>
      </trkpt>
      <trkpt lat="48.37189" lon="4.89799">
        <ele>261.17</ele>
        <time>2025-01-03T14:32:35.663Z</time>
      </trkpt>
      <trkpt lat="48.37175" lon="4.8984">
        <ele>261.78</ele>
        <time>2025-01-03T14:32:40.481Z</time>
      </trkpt>
      <trkpt lat="48.3717" lon="4.89866">
        <ele>262.3</ele>
        <time>2025-01-03T14:32:45.302Z</time>
      </trkpt>
      <trkpt lat="48.37164" lon="4.89892">
        <ele>262.71</ele>
        <time>2025-01-03T14:32:50.126Z</time>
      </trkpt>
      <trkpt lat="48.37164" lon="4.89917">
        <ele>263</ele>
        <time>2025-01-03T14:32:54.952Z</time>
      </trkpt>
      <trkpt lat="48.37164" lon="4.89943">
        <ele>263.17</ele>
        <time>2025-01-03T14:32:59.781Z</time>
      </trkpt>
      <trkpt lat="48.37167" lon="4.8997">
        <ele>263.18</ele>
        <time>2025-01-03T14:33:04.613Z</time>
      </trkpt>
      <trkpt lat="48.37169" lon="4.89997">
        <ele>263.09</ele>
        <time>2025-01-03T14:33:09.448Z</time>
      </trkpt>
      <trkpt lat="48.37171" lon="4.90043">
        <ele>262.89</ele>
        <time>2025-01-03T14:33:14.288Z</time>
      </trkpt>
      <trkpt lat="48.37173" lon="4.90089">
        <ele>262.52</ele>
        <time>2025-01-03T14:33:19.133Z</time>
      </trkpt>
      <trkpt lat="48.37178" lon="4.90135">
        <ele>262.09</ele>
        <time>2025-01-03T14:33:23.983Z</time>
      </trkpt>
      <trkpt lat="48.37183" lon="4.90181">
        <ele>261.58</ele>
        <time>2025-01-03T14:33:28.838Z</time>
      </trkpt>
      <trkpt lat="48.37188" lon="4.90228">
        <ele>261.01</ele>
        <time>2025-01-03T14:33:33.698Z</time>
      </trkpt>
      <trkpt lat="48.37192" lon="4.90273">
        <ele>260.32</ele>
        <time>2025-01-03T14:33:38.563Z</time>
      </trkpt>
      <trkpt lat="48.37199" lon="4.90305">
        <ele>259.62</ele>
        <time>2025-01-03T14:33:43.431Z</time>
      </trkpt>
      <trkpt lat="48.37205" lon="4.90336">
        <ele>258.86</ele>
        <time>2025-01-03T14:33:48.303Z</time>
      </trkpt>
      <trkpt lat="48.37222" lon="4.90376">
        <ele>258.04</ele>
        <time>2025-01-03T14:33:53.180Z</time>
      </trkpt>
      <trkpt lat="48.37238" lon="4.90416">
        <ele>257.2</ele>
        <time>2025-01-03T14:33:58.062Z</time>
      </trkpt>
      <trkpt lat="48.37254" lon="4.90457">
        <ele>256.36</ele>
        <time>2025-01-03T14:34:02.949Z</time>
      </trkpt>
      <trkpt lat="48.37271" lon="4.90497">
        <ele>255.55</ele>
        <time>2025-01-03T14:34:07.841Z</time>
      </trkpt>
      <trkpt lat="48.37287" lon="4.90537">
        <ele>254.69</ele>
        <time>2025-01-03T14:34:12.738Z</time>
      </trkpt>
      <trkpt lat="48.37304" lon="4.90578">
        <ele>253.83</ele>
        <time>2025-01-03T14:34:17.640Z</time>
      </trkpt>
      <trkpt lat="48.3732" lon="4.90618">
        <ele>253.04</ele>
        <time>2025-01-03T14:34:22.547Z</time>
      </trkpt>
      <trkpt lat="48.37336" lon="4.90658">
        <ele>252.19</ele>
        <time>2025-01-03T14:34:27.459Z</time>
      </trkpt>
      <trkpt lat="48.37353" lon="4.90698">
        <ele>251.3</ele>
        <time>2025-01-03T14:34:32.376Z</time>
      </trkpt>
      <trkpt lat="48.37369" lon="4.90739">
        <ele>250.45</ele>
        <time>2025-01-03T14:34:37.298Z</time>
      </trkpt>
      <trkpt lat="48.37385" lon="4.90779">
        <ele>249.65</ele>
        <time>2025-01-03T14:34:42.225Z</time>
      </trkpt>
      <trkpt lat="48.37402" lon="4.90819">
        <ele>248.9</ele>
        <time>2025-01-03T14:34:47.157Z</time>
      </trkpt>
      <trkpt lat="48.37418" lon="4.9086">
        <ele>248.12</ele>
        <time>2025-01-03T14:34:52.094Z</time>
      </trkpt>
      <trkpt lat="48.37435" lon="4.909">
        <ele>247.33</ele>
        <time>2025-01-03T14:34:57.036Z</time>
      </trkpt>
      <trkpt lat="48.37451" lon="4.9094">
        <ele>246.59</ele>
        <time>2025-01-03T14:35:01.983Z</time>
      </trkpt>
      <trkpt lat="48.37467" lon="4.90979">
        <ele>245.88</ele>
        <time>2025-01-03T14:35:06.935Z</time>
      </trkpt>
      <trkpt lat="48.37474" lon="4.91008">
        <ele>245.13</ele>
        <time>2025-01-03T14:35:11.890Z</time>
      </trkpt>
      <trkpt lat="48.37482" lon="4.91037">
        <ele>244.43</ele>
        <time>2025-01-03T14:35:16.849Z</time>
      </trkpt>
      <trkpt lat="48.37488" lon="4.91081">
        <ele>243.74</ele>
        <time>2025-01-03T14:35:21.812Z</time>
      </trkpt>
      <trkpt lat="48.37495" lon="4.91125">
        <ele>243.05</ele>
        <time>2025-01-03T14:35:26.780Z</time>
      </trkpt>
      <trkpt lat="48.375" lon="4.91166">
        <ele>242.37</ele>
        <time>2025-01-03T14:35:31.753Z</time>
      </trkpt>
      <trkpt lat="48.37505" lon="4.91206">
        <ele>241.79</ele>
        <time>2025-01-03T14:35:36.730Z</time>
      </trkpt>
      <trkpt lat="48.3751" lon="4.91247">
        <ele>241.17</ele>
        <time>2025-01-03T14:35:41.711Z</time>
      </trkpt>
      <trkpt lat="48.37515" lon="4.91288">
        <ele>240.51</ele>
        <time>2025-01-03T14:35:46.697Z</time>
      </trkpt>
      <trkpt lat="48.37519" lon="4.91328">
        <ele>239.88</ele>
        <time>2025-01-03T14:35:51.687Z</time>
      </trkpt>
      <trkpt lat="48.37524" lon="4.91369">
        <ele>239.3</ele>
        <time>2025-01-03T14:35:56.682Z</time>
      </trkpt>
      <trkpt lat="48.37529" lon="4.91409">
        <ele>238.67</ele>
        <time>2025-01-03T14:36:01.681Z</time>
      </trkpt>
      <trkpt lat="48.37533" lon="4.91452">
        <ele>238.01</ele>
        <time>2025-01-03T14:36:06.685Z</time>
      </trkpt>
      <trkpt lat="48.37538" lon="4.91495">
        <ele>237.32</ele>
        <time>2025-01-03T14:36:11.693Z</time>
      </trkpt>
      <trkpt lat="48.37542" lon="4.91537">
        <ele>236.73</ele>
        <time>2025-01-03T14:36:16.706Z</time>
      </trkpt>
      <trkpt lat="48.37548" lon="4.91572">
        <ele>236.03</ele>
        <time>2025-01-03T14:36:21.723Z</time>
      </trkpt>
      <trkpt lat="48.37554" lon="4.91608">
        <ele>235.24</ele>
        <time>2025-01-03T14:36:26.744Z</time>
      </trkpt>
      <trkpt lat="48.37559" lon="4.91642">
        <ele>234.36</ele>
        <time>2025-01-03T14:36:31.768Z</time>
      </trkpt>
      <trkpt lat="48.37568" lon="4.9168">
        <ele>233.41</ele>
        <time>2025-01-03T14:36:36.797Z</time>
      </trkpt>
      <trkpt lat="48.37576" lon="4.91718">
        <ele>232.35</ele>
        <time>2025-01-03T14:36:41.830Z</time>
      </trkpt>
      <trkpt lat="48.37585" lon="4.91756">
        <ele>231.36</ele>
        <time>2025-01-03T14:36:46.867Z</time>
      </trkpt>
      <trkpt lat="48.37594" lon="4.91787">
        <ele>230.29</ele>
        <time>2025-01-03T14:36:51.908Z</time>
      </trkpt>
      <trkpt lat="48.37602" lon="4.91818">
        <ele>229.19</ele>
        <time>2025-01-03T14:36:56.952Z</time>
      </trkpt>
      <trkpt lat="48.37611" lon="4.91848">
        <ele>228.1</ele>
        <time>2025-01-03T14:37:02.000Z</time>
      </trkpt>
      <trkpt lat="48.37621" lon="4.91885">
        <ele>226.97</ele>
        <time>2025-01-03T14:37:07.052Z</time>
      </trkpt>
      <trkpt lat="48.37631" lon="4.91922">
        <ele>225.94</ele>
        <time>2025-01-03T14:37:12.108Z</time>
      </trkpt>
      <trkpt lat="48.37642" lon="4.91958">
        <ele>224.86</ele>
        <time>2025-01-03T14:37:17.169Z</time>
      </trkpt>
      <trkpt lat="48.37652" lon="4.91995">
        <ele>223.77</ele>
        <time>2025-01-03T14:37:22.234Z</time>
      </trkpt>
      <trkpt lat="48.37662" lon="4.92031">
        <ele>222.74</ele>
        <time>2025-01-03T14:37:27.303Z</time>
      </trkpt>
      <trkpt lat="48.37664" lon="4.92052">
        <ele>221.79</ele>
        <time>2025-01-03T14:37:32.374Z</time>
      </trkpt>
      <trkpt lat="48.3766" lon="4.92091">
        <ele>220.88</ele>
        <time>2025-01-03T14:37:37.450Z</time>
      </trkpt>
      <trkpt lat="48.37657" lon="4.92129">
        <ele>219.98</ele>
        <time>2025-01-03T14:37:42.530Z</time>
      </trkpt>
      <trkpt lat="48.37654" lon="4.92166">
        <ele>219.06</ele>
        <time>2025-01-03T14:37:47.614Z</time>
      </trkpt>
      <trkpt lat="48.37658" lon="4.92179">
        <ele>218.23</ele>
        <time>2025-01-03T14:37:52.699Z</time>
      </trkpt>
      <trkpt lat="48.37684" lon="4.92203">
        <ele>217.37</ele>
        <time>2025-01-03T14:37:57.789Z</time>
      </trkpt>
      <trkpt lat="48.37699" lon="4.92212">
        <ele>216.61</ele>
        <time>2025-01-03T14:38:02.882Z</time>
      </trkpt>
      <trkpt lat="48.37714" lon="4.92222">
        <ele>215.9</ele>
        <time>2025-01-03T14:38:07.977Z</time>
      </trkpt>
      <trkpt lat="48.37742" lon="4.92241">
        <ele>215.26</ele>
        <time>2025-01-03T14:38:13.077Z</time>
      </trkpt>
      <trkpt lat="48.37759" lon="4.92254">
        <ele>214.65</ele>
        <time>2025-01-03T14:38:18.180Z</time>
      </trkpt>
      <trkpt lat="48.37767" lon="4.9226">
        <ele>214.08</ele>
        <time>2025-01-03T14:38:23.285Z</time>
      </trkpt>
      <trkpt lat="48.37785" lon="4.92278">
        <ele>213.51</ele>
        <time>2025-01-03T14:38:28.393Z</time>
      </trkpt>
      <trkpt lat="48.37803" lon="4.92293">
        <ele>212.99</ele>
        <time>2025-01-03T14:38:33.504Z</time>
      </trkpt>
      <trkpt lat="48.37822" lon="4.92308">
        <ele>212.53</ele>
        <time>2025-01-03T14:38:38.619Z</time>
      </trkpt>
      <trkpt lat="48.3784" lon="4.92323">
        <ele>212.11</ele>
        <time>2025-01-03T14:38:43.737Z</time>
      </trkpt>
      <trkpt lat="48.37836" lon="4.92336">
        <ele>211.74</ele>
        <time>2025-01-03T14:38:48.857Z</time>
      </trkpt>
      <trkpt lat="48.37832" lon="4.9234">
        <ele>211.42</ele>
        <time>2025-01-03T14:38:53.978Z</time>
      </trkpt>
      <trkpt lat="48.37812" lon="4.92337">
        <ele>211.18</ele>
        <time>2025-01-03T14:38:59.102Z</time>
      </trkpt>
      <trkpt lat="48.37793" lon="4.92333">
        <ele>210.96</ele>
        <time>2025-01-03T14:39:04.229Z</time>
      </trkpt>
      <trkpt lat="48.37774" lon="4.92319">
        <ele>210.77</ele>
        <time>2025-01-03T14:39:09.359Z</time>
      </trkpt>
      <trkpt lat="48.37754" lon="4.92306">
        <ele>210.56</ele>
        <time>2025-01-03T14:39:14.493Z</time>
      </trkpt>
      <trkpt lat="48.37748" lon="4.92301">
        <ele>210.38</ele>
        <time>2025-01-03T14:39:19.628Z</time>
      </trkpt>
      <trkpt lat="48.37744" lon="4.92297">
        <ele>210.21</ele>
        <time>2025-01-03T14:39:24.764Z</time>
      </trkpt>
      <trkpt lat="48.37729" lon="4.92286">
        <ele>210.05</ele>
        <time>2025-01-03T14:39:29.902Z</time>
      </trkpt>
      <trkpt lat="48.37708" lon="4.9227">
        <ele>209.91</ele>
        <time>2025-01-03T14:39:35.044Z</time>
      </trkpt>
      <trkpt lat="48.37688" lon="4.92254">
        <ele>209.78</ele>
        <time>2025-01-03T14:39:40.190Z</time>
      </trkpt>
      <trkpt lat="48.37677" lon="4.92245">
        <ele>209.68</ele>
        <time>2025-01-03T14:39:45.338Z</time>
      </trkpt>
      <trkpt lat="48.37652" lon="4.92234">
        <ele>209.6</ele>
        <time>2025-01-03T14:39:50.490Z</time>
      </trkpt>
      <trkpt lat="48.37627" lon="4.92223">
        <ele>209.51</ele>
        <time>2025-01-03T14:39:55.646Z</time>
      </trkpt>
      <trkpt lat="48.37602" lon="4.92211">
        <ele>209.4</ele>
        <time>2025-01-03T14:40:00.806Z</time>
      </trkpt>
      <trkpt lat="48.37581" lon="4.92207">
        <ele>209.25</ele>
        <time>2025-01-03T14:40:05.970Z</time>
      </trkpt>
      <trkpt lat="48.37576" lon="4.92228">
        <ele>209.03</ele>
        <time>2025-01-03T14:40:11.136Z</time>
      </trkpt>
      <trkpt lat="48.37574" lon="4.92266">
        <ele>208.83</ele>
        <time>2025-01-03T14:40:16.306Z</time>
      </trkpt>
      <trkpt lat="48.37571" lon="4.92305">
        <ele>208.68</ele>
        <time>2025-01-03T14:40:21.480Z</time>
      </trkpt>
      <trkpt lat="48.37568" lon="4.92343">
        <ele>208.47</ele>
        <time>2025-01-03T14:40:26.658Z</time>
      </trkpt>
      <trkpt lat="48.37566" lon="4.92381">
        <ele>208.24</ele>
        <time>2025-01-03T14:40:31.840Z</time>
      </trkpt>
      <trkpt lat="48.37564" lon="4.92406">
        <ele>208.09</ele>
        <time>2025-01-03T14:40:37.025Z</time>
      </trkpt>
      <trkpt lat="48.37561" lon="4.92432">
        <ele>208</ele>
        <time>2025-01-03T14:40:42.213Z</time>
      </trkpt>
      <trkpt lat="48.37559" lon="4.92439">
        <ele>207.93</ele>
        <time>2025-01-03T14:40:47.402Z</time>
      </trkpt>
      <trkpt lat="48.37559" lon="4.92447">
        <ele>207.88</ele>
        <time>2025-01-03T14:40:52.592Z</time>
      </trkpt>
      <trkpt lat="48.37555" lon="4.92458">
        <ele>207.85</ele>
        <time>2025-01-03T14:40:57.783Z</time>
      </trkpt>
      <trkpt lat="48.37549" lon="4.92488">
        <ele>207.85</ele>
        <time>2025-01-03T14:41:02.977Z</time>
      </trkpt>
      <trkpt lat="48.37542" lon="4.92512">
        <ele>207.88</ele>
        <time>2025-01-03T14:41:08.174Z</time>
      </trkpt>
      <trkpt lat="48.3754" lon="4.92516">
        <ele>207.94</ele>
        <time>2025-01-03T14:41:13.372Z</time>
      </trkpt>
      <trkpt lat="48.37533" lon="4.92522">
        <ele>208.03</ele>
        <time>2025-01-03T14:41:18.571Z</time>
      </trkpt>
      <trkpt lat="48.37504" lon="4.92533">
        <ele>208.16</ele>
        <time>2025-01-03T14:41:23.775Z</time>
      </trkpt>
      <trkpt lat="48.37475" lon="4.92543">
        <ele>208.33</ele>
        <time>2025-01-03T14:41:28.983Z</time>
      </trkpt>
      <trkpt lat="48.37446" lon="4.92553">
        <ele>208.46</ele>
        <time>2025-01-03T14:41:34.196Z</time>
      </trkpt>
      <trkpt lat="48.37417" lon="4.92563">
        <ele>208.6</ele>
        <time>2025-01-03T14:41:39.414Z</time>
      </trkpt>
      <trkpt lat="48.37388" lon="4.92574">
        <ele>208.79</ele>
        <time>2025-01-03T14:41:44.637Z</time>
      </trkpt>
      <trkpt lat="48.37362" lon="4.9258">
        <ele>209</ele>
        <time>2025-01-03T14:41:49.864Z</time>
      </trkpt>
      <trkpt lat="48.37336" lon="4.92586">
        <ele>209.29</ele>
        <time>2025-01-03T14:41:55.095Z</time>
      </trkpt>
      <trkpt lat="48.3731" lon="4.92591">
        <ele>209.54</ele>
        <time>2025-01-03T14:42:00.330Z</time>
      </trkpt>
      <trkpt lat="48.37285" lon="4.92597">
        <ele>209.8</ele>
        <time>2025-01-03T14:42:05.569Z</time>
      </trkpt>
      <trkpt lat="48.37259" lon="4.92595">
        <ele>210.12</ele>
        <time>2025-01-03T14:42:10.813Z</time>
      </trkpt>
      <trkpt lat="48.37231" lon="4.92587">
        <ele>210.46</ele>
        <time>2025-01-03T14:42:16.061Z</time>
      </trkpt>
      <trkpt lat="48.37212" lon="4.92574">
        <ele>210.81</ele>
        <time>2025-01-03T14:42:21.313Z</time>
      </trkpt>
      <trkpt lat="48.37192" lon="4.92561">
        <ele>211.23</ele>
        <time>2025-01-03T14:42:26.568Z</time>
      </trkpt>
      <trkpt lat="48.37173" lon="4.92548">
        <ele>211.61</ele>
        <time>2025-01-03T14:42:31.826Z</time>
      </trkpt>
      <trkpt lat="48.37173" lon="4.92548">
        <ele>211.96</ele>
        <time>2025-01-03T14:42:37.084Z</time>
      </trkpt>
      <trkpt lat="48.37147" lon="4.92525">
        <ele>212.31</ele>
        <time>2025-01-03T14:42:42.347Z</time>
      </trkpt>
      <trkpt lat="48.37121" lon="4.92501">
        <ele>212.57</ele>
        <time>2025-01-03T14:42:47.615Z</time>
      </trkpt>
      <trkpt lat="48.37095" lon="4.92478">
        <ele>212.83</ele>
        <time>2025-01-03T14:42:52.888Z</time>
      </trkpt>
      <trkpt lat="48.37069" lon="4.92455">
        <ele>213.22</ele>
        <time>2025-01-03T14:42:58.166Z</time>
      </trkpt>
      <trkpt lat="48.37043" lon="4.92431">
        <ele>213.7</ele>
        <time>2025-01-03T14:43:03.449Z</time>
      </trkpt>
      <trkpt lat="48.37017" lon="4.92408">
        <ele>214.06</ele>
        <time>2025-01-03T14:43:08.736Z</time>
      </trkpt>
      <trkpt lat="48.36991" lon="4.92385">
        <ele>214.41</ele>
        <time>2025-01-03T14:43:14.028Z</time>
      </trkpt>
      <trkpt lat="48.36963" lon="4.92362">
        <ele>214.82</ele>
        <time>2025-01-03T14:43:19.325Z</time>
      </trkpt>
      <trkpt lat="48.36936" lon="4.92338">
        <ele>215.2</ele>
        <time>2025-01-03T14:43:24.627Z</time>
      </trkpt>
      <trkpt lat="48.36909" lon="4.92315">
        <ele>215.61</ele>
        <time>2025-01-03T14:43:29.934Z</time>
      </trkpt>
      <trkpt lat="48.36881" lon="4.92292">
        <ele>216.09</ele>
        <time>2025-01-03T14:43:35.246Z</time>
      </trkpt>
      <trkpt lat="48.36854" lon="4.92268">
        <ele>216.45</ele>
        <time>2025-01-03T14:43:40.563Z</time>
      </trkpt>
      <trkpt lat="48.36827" lon="4.92245">
        <ele>216.86</ele>
        <time>2025-01-03T14:43:45.885Z</time>
      </trkpt>
      <trkpt lat="48.368" lon="4.92222">
        <ele>217.33</ele>
        <time>2025-01-03T14:43:51.212Z</time>
      </trkpt>
      <trkpt lat="48.36774" lon="4.92195">
        <ele>217.69</ele>
        <time>2025-01-03T14:43:56.544Z</time>
      </trkpt>
      <trkpt lat="48.36749" lon="4.92167">
        <ele>218.14</ele>
        <time>2025-01-03T14:44:01.881Z</time>
      </trkpt>
      <trkpt lat="48.36724" lon="4.9214">
        <ele>218.57</ele>
        <time>2025-01-03T14:44:07.223Z</time>
      </trkpt>
      <trkpt lat="48.36699" lon="4.92113">
        <ele>218.84</ele>
        <time>2025-01-03T14:44:12.570Z</time>
      </trkpt>
      <trkpt lat="48.36674" lon="4.92085">
        <ele>218.91</ele>
        <time>2025-01-03T14:44:17.922Z</time>
      </trkpt>
      <trkpt lat="48.36649" lon="4.92058">
        <ele>218.88</ele>
        <time>2025-01-03T14:44:23.279Z</time>
      </trkpt>
      <trkpt lat="48.36624" lon="4.92031">
        <ele>218.86</ele>
        <time>2025-01-03T14:44:28.641Z</time>
      </trkpt>
      <trkpt lat="48.36595" lon="4.92012">
        <ele>218.97</ele>
        <time>2025-01-03T14:44:34.008Z</time>
      </trkpt>
      <trkpt lat="48.36567" lon="4.91993">
        <ele>219.07</ele>
        <time>2025-01-03T14:44:39.380Z</time>
      </trkpt>
      <trkpt lat="48.36539" lon="4.91974">
        <ele>219.12</ele>
        <time>2025-01-03T14:44:44.757Z</time>
      </trkpt>
      <trkpt lat="48.3651" lon="4.91955">
        <ele>219.19</ele>
        <time>2025-01-03T14:44:50.139Z</time>
      </trkpt>
      <trkpt lat="48.36482" lon="4.91936">
        <ele>219.19</ele>
        <time>2025-01-03T14:44:55.526Z</time>
      </trkpt>
      <trkpt lat="48.36455" lon="4.91925">
        <ele>219.16</ele>
        <time>2025-01-03T14:45:00.918Z</time>
      </trkpt>
      <trkpt lat="48.36428" lon="4.91913">
        <ele>219.06</ele>
        <time>2025-01-03T14:45:06.314Z</time>
      </trkpt>
      <trkpt lat="48.36402" lon="4.91905">
        <ele>219</ele>
        <time>2025-01-03T14:45:11.714Z</time>
      </trkpt>
      <trkpt lat="48.36375" lon="4.91898">
        <ele>218.97</ele>
        <time>2025-01-03T14:45:17.119Z</time>
      </trkpt>
      <trkpt lat="48.36355" lon="4.91894">
        <ele>218.93</ele>
        <time>2025-01-03T14:45:22.527Z</time>
      </trkpt>
      <trkpt lat="48.36336" lon="4.91889">
        <ele>218.88</ele>
        <time>2025-01-03T14:45:27.938Z</time>
      </trkpt>
      <trkpt lat="48.3631" lon="4.91883">
        <ele>218.91</ele>
        <time>2025-01-03T14:45:33.353Z</time>
      </trkpt>
      <trkpt lat="48.3628" lon="4.91879">
        <ele>218.85</ele>
        <time>2025-01-03T14:45:38.773Z</time>
      </trkpt>
      <trkpt lat="48.36254" lon="4.91877">
        <ele>218.88</ele>
        <time>2025-01-03T14:45:44.197Z</time>
      </trkpt>
      <trkpt lat="48.36227" lon="4.91876">
        <ele>218.89</ele>
        <time>2025-01-03T14:45:49.626Z</time>
      </trkpt>
      <trkpt lat="48.362" lon="4.91879">
        <ele>218.92</ele>
        <time>2025-01-03T14:45:55.059Z</time>
      </trkpt>
      <trkpt lat="48.36174" lon="4.91882">
        <ele>218.91</ele>
        <time>2025-01-03T14:46:00.496Z</time>
      </trkpt>
      <trkpt lat="48.36147" lon="4.91885">
        <ele>218.99</ele>
        <time>2025-01-03T14:46:05.937Z</time>
      </trkpt>
      <trkpt lat="48.36134" lon="4.91887">
        <ele>219.12</ele>
        <time>2025-01-03T14:46:11.380Z</time>
      </trkpt>
      <trkpt lat="48.36105" lon="4.91895">
        <ele>219.34</ele>
        <time>2025-01-03T14:46:16.828Z</time>
      </trkpt>
      <trkpt lat="48.36075" lon="4.91902">
        <ele>219.51</ele>
        <time>2025-01-03T14:46:22.281Z</time>
      </trkpt>
      <trkpt lat="48.36046" lon="4.9191">
        <ele>219.73</ele>
        <time>2025-01-03T14:46:27.739Z</time>
      </trkpt>
      <trkpt lat="48.36016" lon="4.91917">
        <ele>219.9</ele>
        <time>2025-01-03T14:46:33.202Z</time>
      </trkpt>
      <trkpt lat="48.35989" lon="4.91925">
        <ele>220.16</ele>
        <time>2025-01-03T14:46:38.669Z</time>
      </trkpt>
      <trkpt lat="48.35962" lon="4.91932">
        <ele>220.44</ele>
        <time>2025-01-03T14:46:44.141Z</time>
      </trkpt>
      <trkpt lat="48.35934" lon="4.9194">
        <ele>220.65</ele>
        <time>2025-01-03T14:46:49.617Z</time>
      </trkpt>
      <trkpt lat="48.35907" lon="4.91947">
        <ele>220.82</ele>
        <time>2025-01-03T14:46:55.097Z</time>
      </trkpt>
      <trkpt lat="48.35877" lon="4.91956">
        <ele>221.16</ele>
        <time>2025-01-03T14:47:00.582Z</time>
      </trkpt>
      <trkpt lat="48.35846" lon="4.91966">
        <ele>221.47</ele>
        <time>2025-01-03T14:47:06.072Z</time>
      </trkpt>
      <trkpt lat="48.35816" lon="4.91975">
        <ele>221.73</ele>
        <time>2025-01-03T14:47:11.567Z</time>
      </trkpt>
      <trkpt lat="48.35785" lon="4.91984">
        <ele>221.94</ele>
        <time>2025-01-03T14:47:17.067Z</time>
      </trkpt>
      <trkpt lat="48.35755" lon="4.91993">
        <ele>222.18</ele>
        <time>2025-01-03T14:47:22.572Z</time>
      </trkpt>
      <trkpt lat="48.35724" lon="4.92003">
        <ele>222.42</ele>
        <time>2025-01-03T14:47:28.082Z</time>
      </trkpt>
      <trkpt lat="48.35694" lon="4.92012">
        <ele>222.75</ele>
        <time>2025-01-03T14:47:33.597Z</time>
      </trkpt>
      <trkpt lat="48.35663" lon="4.92021">
        <ele>223.09</ele>
        <time>2025-01-03T14:47:39.117Z</time>
      </trkpt>
      <trkpt lat="48.35633" lon="4.9203">
        <ele>223.27</ele>
        <time>2025-01-03T14:47:44.642Z</time>
      </trkpt>
      <trkpt lat="48.35602" lon="4.92039">
        <ele>223.48</ele>
        <time>2025-01-03T14:47:50.172Z</time>
      </trkpt>
      <trkpt lat="48.35574" lon="4.92045">
        <ele>223.57</ele>
        <time>2025-01-03T14:47:55.707Z</time>
      </trkpt>
      <trkpt lat="48.35547" lon="4.92051">
        <ele>223.64</ele>
        <time>2025-01-03T14:48:01.246Z</time>
      </trkpt>
      <trkpt lat="48.35519" lon="4.92056">
        <ele>223.79</ele>
        <time>2025-01-03T14:48:06.790Z</time>
      </trkpt>
      <trkpt lat="48.35491" lon="4.92062">
        <ele>223.92</ele>
        <time>2025-01-03T14:48:12.338Z</time>
      </trkpt>
      <trkpt lat="48.35463" lon="4.92067">
        <ele>223.92</ele>
        <time>2025-01-03T14:48:17.891Z</time>
      </trkpt>
      <trkpt lat="48.35463" lon="4.92067">
        <ele>223.99</ele>
        <time>2025-01-03T14:48:23.444Z</time>
      </trkpt>
      <trkpt lat="48.35437" lon="4.92075">
        <ele>224.15</ele>
        <time>2025-01-03T14:48:29.001Z</time>
      </trkpt>
      <trkpt lat="48.3541" lon="4.92082">
        <ele>224.21</ele>
        <time>2025-01-03T14:48:34.562Z</time>
      </trkpt>
      <trkpt lat="48.35384" lon="4.9209">
        <ele>224.23</ele>
        <time>2025-01-03T14:48:40.128Z</time>
      </trkpt>
      <trkpt lat="48.35358" lon="4.92097">
        <ele>224.29</ele>
        <time>2025-01-03T14:48:45.698Z</time>
      </trkpt>
      <trkpt lat="48.35335" lon="4.921">
        <ele>224.22</ele>
        <time>2025-01-03T14:48:51.271Z</time>
      </trkpt>
      <trkpt lat="48.35313" lon="4.92102">
        <ele>224.18</ele>
        <time>2025-01-03T14:48:56.848Z</time>
      </trkpt>
      <trkpt lat="48.35289" lon="4.92107">
        <ele>224.17</ele>
        <time>2025-01-03T14:49:02.429Z</time>
      </trkpt>
      <trkpt lat="48.35265" lon="4.92112">
        <ele>224.12</ele>
        <time>2025-01-03T14:49:08.014Z</time>
      </trkpt>
      <trkpt lat="48.35244" lon="4.92123">
        <ele>224.11</ele>
        <time>2025-01-03T14:49:13.602Z</time>
      </trkpt>
      <trkpt lat="48.35216" lon="4.92145">
        <ele>224.1</ele>
        <time>2025-01-03T14:49:19.195Z</time>
      </trkpt>
      <trkpt lat="48.35216" lon="4.92145">
        <ele>224.1</ele>
        <time>2025-01-03T14:49:24.788Z</time>
      </trkpt>
      <trkpt lat="48.35201" lon="4.92161">
        <ele>224.12</ele>
        <time>2025-01-03T14:49:30.384Z</time>
      </trkpt>
      <trkpt lat="48.35186" lon="4.92177">
        <ele>224.19</ele>
        <time>2025-01-03T14:49:35.983Z</time>
      </trkpt>
      <trkpt lat="48.35186" lon="4.92177">
        <ele>224.22</ele>
        <time>2025-01-03T14:49:41.582Z</time>
      </trkpt>
      <trkpt lat="48.35166" lon="4.92191">
        <ele>224.29</ele>
        <time>2025-01-03T14:49:47.185Z</time>
      </trkpt>
      <trkpt lat="48.35145" lon="4.92205">
        <ele>224.37</ele>
        <time>2025-01-03T14:49:52.791Z</time>
      </trkpt>
      <trkpt lat="48.35115" lon="4.9221">
        <ele>224.46</ele>
        <time>2025-01-03T14:49:58.402Z</time>
      </trkpt>
      <trkpt lat="48.35084" lon="4.92216">
        <ele>224.54</ele>
        <time>2025-01-03T14:50:04.018Z</time>
      </trkpt>
      <trkpt lat="48.35054" lon="4.92221">
        <ele>224.61</ele>
        <time>2025-01-03T14:50:09.639Z</time>
      </trkpt>
      <trkpt lat="48.35023" lon="4.92227">
        <ele>224.68</ele>
        <time>2025-01-03T14:50:15.265Z</time>
      </trkpt>
      <trkpt lat="48.34993" lon="4.92233">
        <ele>224.81</ele>
        <time>2025-01-03T14:50:20.896Z</time>
      </trkpt>
      <trkpt lat="48.34975" lon="4.9224">
        <ele>225.06</ele>
        <time>2025-01-03T14:50:26.530Z</time>
      </trkpt>
      <trkpt lat="48.34956" lon="4.92248">
        <ele>225.23</ele>
        <time>2025-01-03T14:50:32.167Z</time>
      </trkpt>
      <trkpt lat="48.34938" lon="4.92258">
        <ele>225.32</ele>
        <time>2025-01-03T14:50:37.807Z</time>
      </trkpt>
      <trkpt lat="48.3492" lon="4.92269">
        <ele>225.49</ele>
        <time>2025-01-03T14:50:43.450Z</time>
      </trkpt>
      <trkpt lat="48.34905" lon="4.92282">
        <ele>225.65</ele>
        <time>2025-01-03T14:50:49.096Z</time>
      </trkpt>
      <trkpt lat="48.3489" lon="4.92295">
        <ele>225.95</ele>
        <time>2025-01-03T14:50:54.745Z</time>
      </trkpt>
      <trkpt lat="48.34864" lon="4.92321">
        <ele>226.21</ele>
        <time>2025-01-03T14:51:00.399Z</time>
      </trkpt>
      <trkpt lat="48.34838" lon="4.92346">
        <ele>226.46</ele>
        <time>2025-01-03T14:51:06.058Z</time>
      </trkpt>
      <trkpt lat="48.34815" lon="4.92377">
        <ele>226.78</ele>
        <time>2025-01-03T14:51:11.722Z</time>
      </trkpt>
      <trkpt lat="48.34793" lon="4.92408">
        <ele>227.08</ele>
        <time>2025-01-03T14:51:17.391Z</time>
      </trkpt>
      <trkpt lat="48.3477" lon="4.92439">
        <ele>227.45</ele>
        <time>2025-01-03T14:51:23.065Z</time>
      </trkpt>
      <trkpt lat="48.34747" lon="4.92469">
        <ele>227.83</ele>
        <time>2025-01-03T14:51:28.744Z</time>
      </trkpt>
      <trkpt lat="48.34724" lon="4.925">
        <ele>228.16</ele>
        <time>2025-01-03T14:51:34.427Z</time>
      </trkpt>
      <trkpt lat="48.34701" lon="4.92531">
        <ele>228.54</ele>
        <time>2025-01-03T14:51:40.115Z</time>
      </trkpt>
      <trkpt lat="48.34679" lon="4.92564">
        <ele>228.87</ele>
        <time>2025-01-03T14:51:45.808Z</time>
      </trkpt>
      <trkpt lat="48.34657" lon="4.92597">
        <ele>229.12</ele>
        <time>2025-01-03T14:51:51.506Z</time>
      </trkpt>
      <trkpt lat="48.34634" lon="4.92631">
        <ele>229.33</ele>
        <time>2025-01-03T14:51:57.209Z</time>
      </trkpt>
      <trkpt lat="48.34612" lon="4.92664">
        <ele>229.59</ele>
        <time>2025-01-03T14:52:02.917Z</time>
      </trkpt>
      <trkpt lat="48.3459" lon="4.92697">
        <ele>229.75</ele>
        <time>2025-01-03T14:52:08.630Z</time>
      </trkpt>
      <trkpt lat="48.34568" lon="4.9273">
        <ele>229.9</ele>
        <time>2025-01-03T14:52:14.348Z</time>
      </trkpt>
      <trkpt lat="48.34568" lon="4.9273">
        <ele>230.1</ele>
        <time>2025-01-03T14:52:20.066Z</time>
      </trkpt>
      <trkpt lat="48.34554" lon="4.9275">
        <ele>230.24</ele>
        <time>2025-01-03T14:52:25.788Z</time>
      </trkpt>
      <trkpt lat="48.3454" lon="4.92769">
        <ele>230.46</ele>
        <time>2025-01-03T14:52:31.513Z</time>
      </trkpt>
      <trkpt lat="48.34521" lon="4.92795">
        <ele>230.74</ele>
        <time>2025-01-03T14:52:37.242Z</time>
      </trkpt>
      <trkpt lat="48.345" lon="4.92819">
        <ele>230.97</ele>
        <time>2025-01-03T14:52:42.975Z</time>
      </trkpt>
      <trkpt lat="48.34479" lon="4.92843">
        <ele>231.07</ele>
        <time>2025-01-03T14:52:48.712Z</time>
      </trkpt>
      <trkpt lat="48.34459" lon="4.92868">
        <ele>231.18</ele>
        <time>2025-01-03T14:52:54.453Z</time>
      </trkpt>
      <trkpt lat="48.34438" lon="4.92892">
        <ele>231.27</ele>
        <time>2025-01-03T14:53:00.199Z</time>
      </trkpt>
      <trkpt lat="48.34417" lon="4.92916">
        <ele>231.46</ele>
        <time>2025-01-03T14:53:05.949Z</time>
      </trkpt>
      <trkpt lat="48.34396" lon="4.92941">
        <ele>231.62</ele>
        <time>2025-01-03T14:53:11.703Z</time>
      </trkpt>
      <trkpt lat="48.34375" lon="4.92963">
        <ele>231.72</ele>
        <time>2025-01-03T14:53:17.461Z</time>
      </trkpt>
      <trkpt lat="48.34353" lon="4.92986">
        <ele>231.78</ele>
        <time>2025-01-03T14:53:23.223Z</time>
      </trkpt>
      <trkpt lat="48.34332" lon="4.93008">
        <ele>231.93</ele>
        <time>2025-01-03T14:53:28.990Z</time>
      </trkpt>
      <trkpt lat="48.34311" lon="4.93031">
        <ele>232.07</ele>
        <time>2025-01-03T14:53:34.761Z</time>
      </trkpt>
      <trkpt lat="48.34285" lon="4.93052">
        <ele>232.2</ele>
        <time>2025-01-03T14:53:40.536Z</time>
      </trkpt>
      <trkpt lat="48.3426" lon="4.93073">
        <ele>232.34</ele>
        <time>2025-01-03T14:53:46.316Z</time>
      </trkpt>
      <trkpt lat="48.34235" lon="4.93094">
        <ele>232.55</ele>
        <time>2025-01-03T14:53:52.101Z</time>
      </trkpt>
      <trkpt lat="48.34209" lon="4.93116">
        <ele>232.67</ele>
        <time>2025-01-03T14:53:57.890Z</time>
      </trkpt>
      <trkpt lat="48.34184" lon="4.93137">
        <ele>232.68</ele>
        <time>2025-01-03T14:54:03.684Z</time>
      </trkpt>
      <trkpt lat="48.34159" lon="4.93158">
        <ele>232.59</ele>
        <time>2025-01-03T14:54:09.483Z</time>
      </trkpt>
      <trkpt lat="48.34134" lon="4.93179">
        <ele>232.57</ele>
        <time>2025-01-03T14:54:15.286Z</time>
      </trkpt>
      <trkpt lat="48.34108" lon="4.93201">
        <ele>232.52</ele>
        <time>2025-01-03T14:54:21.094Z</time>
      </trkpt>
      <trkpt lat="48.34083" lon="4.93222">
        <ele>232.54</ele>
        <time>2025-01-03T14:54:26.906Z</time>
      </trkpt>
      <trkpt lat="48.34062" lon="4.93238">
        <ele>232.55</ele>
        <time>2025-01-03T14:54:32.722Z</time>
      </trkpt>
      <trkpt lat="48.3404" lon="4.93254">
        <ele>232.59</ele>
        <time>2025-01-03T14:54:38.542Z</time>
      </trkpt>
      <trkpt lat="48.34019" lon="4.93263">
        <ele>232.54</ele>
        <time>2025-01-03T14:54:44.366Z</time>
      </trkpt>
      <trkpt lat="48.33989" lon="4.93267">
        <ele>232.57</ele>
        <time>2025-01-03T14:54:50.195Z</time>
      </trkpt>
      <trkpt lat="48.33963" lon="4.93267">
        <ele>232.62</ele>
        <time>2025-01-03T14:54:56.028Z</time>
      </trkpt>
      <trkpt lat="48.33937" lon="4.93267">
        <ele>232.65</ele>
        <time>2025-01-03T14:55:01.865Z</time>
      </trkpt>
      <trkpt lat="48.33909" lon="4.93268">
        <ele>232.62</ele>
        <time>2025-01-03T14:55:07.706Z</time>
      </trkpt>
      <trkpt lat="48.33881" lon="4.93269">
        <ele>232.59</ele>
        <time>2025-01-03T14:55:13.552Z</time>
      </trkpt>
      <trkpt lat="48.33862" lon="4.93273">
        <ele>232.56</ele>
        <time>2025-01-03T14:55:19.401Z</time>
      </trkpt>
      <trkpt lat="48.33843" lon="4.93278">
        <ele>232.58</ele>
        <time>2025-01-03T14:55:25.253Z</time>
      </trkpt>
      <trkpt lat="48.33814" lon="4.93288">
        <ele>232.62</ele>
        <time>2025-01-03T14:55:31.110Z</time>
      </trkpt>
      <trkpt lat="48.33785" lon="4.93298">
        <ele>232.57</ele>
        <time>2025-01-03T14:55:36.972Z</time>
      </trkpt>
      <trkpt lat="48.33756" lon="4.93309">
        <ele>232.56</ele>
        <time>2025-01-03T14:55:42.838Z</time>
      </trkpt>
      <trkpt lat="48.33727" lon="4.93319">
        <ele>232.69</ele>
        <time>2025-01-03T14:55:48.709Z</time>
      </trkpt>
      <trkpt lat="48.33698" lon="4.9333">
        <ele>232.83</ele>
        <time>2025-01-03T14:55:54.585Z</time>
      </trkpt>
      <trkpt lat="48.33669" lon="4.9334">
        <ele>232.94</ele>
        <time>2025-01-03T14:56:00.466Z</time>
      </trkpt>
      <trkpt lat="48.3364" lon="4.93351">
        <ele>233.1</ele>
        <time>2025-01-03T14:56:06.351Z</time>
      </trkpt>
      <trkpt lat="48.33611" lon="4.93361">
        <ele>233.3</ele>
        <time>2025-01-03T14:56:12.241Z</time>
      </trkpt>
      <trkpt lat="48.33583" lon="4.93368">
        <ele>233.51</ele>
        <time>2025-01-03T14:56:18.136Z</time>
      </trkpt>
      <trkpt lat="48.33556" lon="4.93371">
        <ele>233.72</ele>
        <time>2025-01-03T14:56:24.035Z</time>
      </trkpt>
      <trkpt lat="48.33529" lon="4.93373">
        <ele>233.9</ele>
        <time>2025-01-03T14:56:29.938Z</time>
      </trkpt>
      <trkpt lat="48.33502" lon="4.93376">
        <ele>234.05</ele>
        <time>2025-01-03T14:56:35.846Z</time>
      </trkpt>
      <trkpt lat="48.33483" lon="4.93389">
        <ele>234.28</ele>
        <time>2025-01-03T14:56:41.757Z</time>
      </trkpt>
      <trkpt lat="48.33465" lon="4.93402">
        <ele>234.54</ele>
        <time>2025-01-03T14:56:47.671Z</time>
      </trkpt>
      <trkpt lat="48.33448" lon="4.93426">
        <ele>234.9</ele>
        <time>2025-01-03T14:56:53.589Z</time>
      </trkpt>
      <trkpt lat="48.33433" lon="4.93451">
        <ele>235.2</ele>
        <time>2025-01-03T14:56:59.511Z</time>
      </trkpt>
      <trkpt lat="48.33426" lon="4.93474">
        <ele>235.45</ele>
        <time>2025-01-03T14:57:05.435Z</time>
      </trkpt>
      <trkpt lat="48.3342" lon="4.93496">
        <ele>235.68</ele>
        <time>2025-01-03T14:57:11.362Z</time>
      </trkpt>
      <trkpt lat="48.33418" lon="4.93527">
        <ele>235.95</ele>
        <time>2025-01-03T14:57:17.292Z</time>
      </trkpt>
      <trkpt lat="48.33416" lon="4.93556">
        <ele>236.17</ele>
        <time>2025-01-03T14:57:23.225Z</time>
      </trkpt>
      <trkpt lat="48.33418" lon="4.93589">
        <ele>236.42</ele>
        <time>2025-01-03T14:57:29.162Z</time>
      </trkpt>
      <trkpt lat="48.3342" lon="4.93621">
        <ele>236.59</ele>
        <time>2025-01-03T14:57:35.102Z</time>
      </trkpt>
      <trkpt lat="48.33422" lon="4.93653">
        <ele>236.71</ele>
        <time>2025-01-03T14:57:41.046Z</time>
      </trkpt>
      <trkpt lat="48.33422" lon="4.93679">
        <ele>236.77</ele>
        <time>2025-01-03T14:57:46.992Z</time>
      </trkpt>
      <trkpt lat="48.33422" lon="4.93705">
        <ele>236.78</ele>
        <time>2025-01-03T14:57:52.941Z</time>
      </trkpt>
      <trkpt lat="48.33418" lon="4.93729">
        <ele>236.73</ele>
        <time>2025-01-03T14:57:58.893Z</time>
      </trkpt>
      <trkpt lat="48.33414" lon="4.93754">
        <ele>236.71</ele>
        <time>2025-01-03T14:58:04.848Z</time>
      </trkpt>
      <trkpt lat="48.33405" lon="4.93788">
        <ele>236.61</ele>
        <time>2025-01-03T14:58:10.807Z</time>
      </trkpt>
      <trkpt lat="48.33396" lon="4.93823">
        <ele>236.38</ele>
        <time>2025-01-03T14:58:16.769Z</time>
      </trkpt>
      <trkpt lat="48.33388" lon="4.93857">
        <ele>236.13</ele>
        <time>2025-01-03T14:58:22.735Z</time>
      </trkpt>
      <trkpt lat="48.33377" lon="4.93893">
        <ele>236.05</ele>
        <time>2025-01-03T14:58:28.706Z</time>
      </trkpt>
      <trkpt lat="48.33372" lon="4.93926">
        <ele>235.99</ele>
        <time>2025-01-03T14:58:34.680Z</time>
      </trkpt>
      <trkpt lat="48.33367" lon="4.93958">
        <ele>235.83</ele>
        <time>2025-01-03T14:58:40.658Z</time>
      </trkpt>
      <trkpt lat="48.33362" lon="4.9399">
        <ele>235.55</ele>
        <time>2025-01-03T14:58:46.639Z</time>
      </trkpt>
      <trkpt lat="48.33354" lon="4.94011">
        <ele>235.27</ele>
        <time>2025-01-03T14:58:52.623Z</time>
      </trkpt>
      <trkpt lat="48.33345" lon="4.94026">
        <ele>235.03</ele>
        <time>2025-01-03T14:58:58.609Z</time>
      </trkpt>
      <trkpt lat="48.33327" lon="4.94047">
        <ele>234.77</ele>
        <time>2025-01-03T14:59:04.599Z</time>
      </trkpt>
      <trkpt lat="48.33309" lon="4.94068">
        <ele>234.5</ele>
        <time>2025-01-03T14:59:10.592Z</time>
      </trkpt>
      <trkpt lat="48.33291" lon="4.94089">
        <ele>234.22</ele>
        <time>2025-01-03T14:59:16.589Z</time>
      </trkpt>
      <trkpt lat="48.33269" lon="4.94109">
        <ele>234.01</ele>
        <time>2025-01-03T14:59:22.590Z</time>
      </trkpt>
      <trkpt lat="48.33247" lon="4.94129">
        <ele>233.87</ele>
        <time>2025-01-03T14:59:28.595Z</time>
      </trkpt>
      <trkpt lat="48.33225" lon="4.94149">
        <ele>233.74</ele>
        <time>2025-01-03T14:59:34.604Z</time>
      </trkpt>
      <trkpt lat="48.33225" lon="4.94149">
        <ele>233.64</ele>
        <time>2025-01-03T14:59:40.613Z</time>
      </trkpt>
      <trkpt lat="48.33207" lon="4.94175">
        <ele>233.6</ele>
        <time>2025-01-03T14:59:46.626Z</time>
      </trkpt>
      <trkpt lat="48.33189" lon="4.942">
        <ele>233.61</ele>
        <time>2025-01-03T14:59:52.643Z</time>
      </trkpt>
      <trkpt lat="48.33172" lon="4.94226">
        <ele>233.66</ele>
        <time>2025-01-03T14:59:58.664Z</time>
      </trkpt>
      <trkpt lat="48.33154" lon="4.94252">
        <ele>233.71</ele>
        <time>2025-01-03T15:00:04.689Z</time>
      </trkpt>
      <trkpt lat="48.33135" lon="4.94274">
        <ele>233.78</ele>
        <time>2025-01-03T15:00:10.718Z</time>
      </trkpt>
      <trkpt lat="48.33115" lon="4.94297">
        <ele>233.84</ele>
        <time>2025-01-03T15:00:16.751Z</time>
      </trkpt>
      <trkpt lat="48.33091" lon="4.94302">
        <ele>233.87</ele>
        <time>2025-01-03T15:00:22.788Z</time>
      </trkpt>
      <trkpt lat="48.33066" lon="4.94306">
        <ele>234.01</ele>
        <time>2025-01-03T15:00:28.829Z</time>
      </trkpt>
      <trkpt lat="48.33041" lon="4.94311">
        <ele>234.25</ele>
        <time>2025-01-03T15:00:34.874Z</time>
      </trkpt>
      <trkpt lat="48.33017" lon="4.94316">
        <ele>234.56</ele>
        <time>2025-01-03T15:00:40.923Z</time>
      </trkpt>
      <trkpt lat="48.32986" lon="4.94323">
        <ele>234.72</ele>
        <time>2025-01-03T15:00:46.977Z</time>
      </trkpt>
      <trkpt lat="48.32955" lon="4.94329">
        <ele>234.84</ele>
        <time>2025-01-03T15:00:53.036Z</time>
      </trkpt>
      <trkpt lat="48.32924" lon="4.94335">
        <ele>234.99</ele>
        <time>2025-01-03T15:00:59.100Z</time>
      </trkpt>
      <trkpt lat="48.32894" lon="4.94342">
        <ele>235.12</ele>
        <time>2025-01-03T15:01:05.169Z</time>
      </trkpt>
      <trkpt lat="48.32863" lon="4.94348">
        <ele>235.25</ele>
        <time>2025-01-03T15:01:11.243Z</time>
      </trkpt>
      <trkpt lat="48.32832" lon="4.94355">
        <ele>235.35</ele>
        <time>2025-01-03T15:01:17.322Z</time>
      </trkpt>
      <trkpt lat="48.32802" lon="4.94358">
        <ele>235.51</ele>
        <time>2025-01-03T15:01:23.406Z</time>
      </trkpt>
      <trkpt lat="48.32771" lon="4.9436">
        <ele>235.77</ele>
        <time>2025-01-03T15:01:29.494Z</time>
      </trkpt>
      <trkpt lat="48.32741" lon="4.94363">
        <ele>236.04</ele>
        <time>2025-01-03T15:01:35.587Z</time>
      </trkpt>
      <trkpt lat="48.32711" lon="4.94366">
        <ele>236.3</ele>
        <time>2025-01-03T15:01:41.685Z</time>
      </trkpt>
      <trkpt lat="48.3268" lon="4.94369">
        <ele>236.55</ele>
        <time>2025-01-03T15:01:47.788Z</time>
      </trkpt>
      <trkpt lat="48.3265" lon="4.94372">
        <ele>236.74</ele>
        <time>2025-01-03T15:01:53.896Z</time>
      </trkpt>
      <trkpt lat="48.32628" lon="4.94377">
        <ele>236.96</ele>
        <time>2025-01-03T15:02:00.007Z</time>
      </trkpt>
      <trkpt lat="48.32607" lon="4.94382">
        <ele>237.14</ele>
        <time>2025-01-03T15:02:06.122Z</time>
      </trkpt>
      <trkpt lat="48.32585" lon="4.94387">
        <ele>237.37</ele>
        <time>2025-01-03T15:02:12.240Z</time>
      </trkpt>
      <trkpt lat="48.32568" lon="4.94397">
        <ele>237.57</ele>
        <time>2025-01-03T15:02:18.361Z</time>
      </trkpt>
      <trkpt lat="48.32551" lon="4.94406">
        <ele>237.71</ele>
        <time>2025-01-03T15:02:24.485Z</time>
      </trkpt>
      <trkpt lat="48.32536" lon="4.94421">
        <ele>237.96</ele>
        <time>2025-01-03T15:02:30.612Z</time>
      </trkpt>
      <trkpt lat="48.32513" lon="4.94453">
        <ele>238.26</ele>
        <time>2025-01-03T15:02:36.744Z</time>
      </trkpt>
      <trkpt lat="48.32491" lon="4.94486">
        <ele>238.38</ele>
        <time>2025-01-03T15:02:42.881Z</time>
      </trkpt>
      <trkpt lat="48.32491" lon="4.94486">
        <ele>238.54</ele>
        <time>2025-01-03T15:02:49.018Z</time>
      </trkpt>
      <trkpt lat="48.32475" lon="4.94509">
        <ele>238.57</ele>
        <time>2025-01-03T15:02:55.159Z</time>
      </trkpt>
      <trkpt lat="48.32459" lon="4.94531">
        <ele>238.69</ele>
        <time>2025-01-03T15:03:01.303Z</time>
      </trkpt>
      <trkpt lat="48.32444" lon="4.94554">
        <ele>238.87</ele>
        <time>2025-01-03T15:03:07.451Z</time>
      </trkpt>
      <trkpt lat="48.32419" lon="4.94576">
        <ele>238.97</ele>
        <time>2025-01-03T15:03:13.603Z</time>
      </trkpt>
      <trkpt lat="48.32394" lon="4.94597">
        <ele>239.07</ele>
        <time>2025-01-03T15:03:19.760Z</time>
      </trkpt>
      <trkpt lat="48.3237" lon="4.94619">
        <ele>239.24</ele>
        <time>2025-01-03T15:03:25.921Z</time>
      </trkpt>
      <trkpt lat="48.32345" lon="4.9464">
        <ele>239.38</ele>
        <time>2025-01-03T15:03:32.087Z</time>
      </trkpt>
      <trkpt lat="48.32319" lon="4.94655">
        <ele>239.55</ele>
        <time>2025-01-03T15:03:38.257Z</time>
      </trkpt>
      <trkpt lat="48.32298" lon="4.94662">
        <ele>239.81</ele>
        <time>2025-01-03T15:03:44.431Z</time>
      </trkpt>
      <trkpt lat="48.32276" lon="4.94659">
        <ele>240.08</ele>
        <time>2025-01-03T15:03:50.608Z</time>
      </trkpt>
      <trkpt lat="48.32246" lon="4.94649">
        <ele>240.4</ele>
        <time>2025-01-03T15:03:56.790Z</time>
      </trkpt>
      <trkpt lat="48.32215" lon="4.94639">
        <ele>240.75</ele>
        <time>2025-01-03T15:04:02.977Z</time>
      </trkpt>
      <trkpt lat="48.32185" lon="4.94629">
        <ele>240.93</ele>
        <time>2025-01-03T15:04:09.169Z</time>
      </trkpt>
      <trkpt lat="48.32154" lon="4.94619">
        <ele>241.07</ele>
        <time>2025-01-03T15:04:15.366Z</time>
      </trkpt>
      <trkpt lat="48.32134" lon="4.94619">
        <ele>241.26</ele>
        <time>2025-01-03T15:04:21.567Z</time>
      </trkpt>
      <trkpt lat="48.32113" lon="4.94619">
        <ele>241.47</ele>
        <time>2025-01-03T15:04:27.771Z</time>
      </trkpt>
      <trkpt lat="48.32096" lon="4.94626">
        <ele>241.64</ele>
        <time>2025-01-03T15:04:33.978Z</time>
      </trkpt>
      <trkpt lat="48.32079" lon="4.94634">
        <ele>241.74</ele>
        <time>2025-01-03T15:04:40.188Z</time>
      </trkpt>
      <trkpt lat="48.32052" lon="4.94656">
        <ele>241.82</ele>
        <time>2025-01-03T15:04:46.403Z</time>
      </trkpt>
      <trkpt lat="48.32025" lon="4.94679">
        <ele>242.03</ele>
        <time>2025-01-03T15:04:52.622Z</time>
      </trkpt>
      <trkpt lat="48.31998" lon="4.94701">
        <ele>242.17</ele>
        <time>2025-01-03T15:04:58.846Z</time>
      </trkpt>
      <trkpt lat="48.31972" lon="4.94724">
        <ele>242.25</ele>
        <time>2025-01-03T15:05:05.075Z</time>
      </trkpt>
      <trkpt lat="48.31951" lon="4.94743">
        <ele>242.25</ele>
        <time>2025-01-03T15:05:11.308Z</time>
      </trkpt>
      <trkpt lat="48.31931" lon="4.94762">
        <ele>242.2</ele>
        <time>2025-01-03T15:05:17.545Z</time>
      </trkpt>
      <trkpt lat="48.31909" lon="4.94788">
        <ele>242.12</ele>
        <time>2025-01-03T15:05:23.786Z</time>
      </trkpt>
      <trkpt lat="48.31887" lon="4.94813">
        <ele>242.02</ele>
        <time>2025-01-03T15:05:30.032Z</time>
      </trkpt>
      <trkpt lat="48.31865" lon="4.94838">
        <ele>241.88</ele>
        <time>2025-01-03T15:05:36.282Z</time>
      </trkpt>
      <trkpt lat="48.31843" lon="4.94863">
        <ele>241.71</ele>
        <time>2025-01-03T15:05:42.537Z</time>
      </trkpt>
      <trkpt lat="48.3182" lon="4.94888">
        <ele>241.51</ele>
        <time>2025-01-03T15:05:48.796Z</time>
      </trkpt>
      <trkpt lat="48.31798" lon="4.94913">
        <ele>241.22</ele>
        <time>2025-01-03T15:05:55.060Z</time>
      </trkpt>
      <trkpt lat="48.31776" lon="4.94938">
        <ele>240.95</ele>
        <time>2025-01-03T15:06:01.328Z</time>
      </trkpt>
      <trkpt lat="48.3177" lon="4.94938">
        <ele>240.56</ele>
        <time>2025-01-03T15:06:07.597Z</time>
      </trkpt>
      <trkpt lat="48.31748" lon="4.94951">
        <ele>240.13</ele>
        <time>2025-01-03T15:06:13.870Z</time>
      </trkpt>
      <trkpt lat="48.31727" lon="4.94964">
        <ele>239.69</ele>
        <time>2025-01-03T15:06:20.146Z</time>
      </trkpt>
      <trkpt lat="48.3171" lon="4.94968">
        <ele>239.21</ele>
        <time>2025-01-03T15:06:26.425Z</time>
      </trkpt>
      <trkpt lat="48.31678" lon="4.94968">
        <ele>238.62</ele>
        <time>2025-01-03T15:06:32.709Z</time>
      </trkpt>
      <trkpt lat="48.31647" lon="4.94967">
        <ele>238.12</ele>
        <time>2025-01-03T15:06:38.998Z</time>
      </trkpt>
      <trkpt lat="48.31615" lon="4.94966">
        <ele>237.59</ele>
        <time>2025-01-03T15:06:45.292Z</time>
      </trkpt>
      <trkpt lat="48.31602" lon="4.94969">
        <ele>237.12</ele>
        <time>2025-01-03T15:06:51.589Z</time>
      </trkpt>
      <trkpt lat="48.31578" lon="4.94975">
        <ele>236.68</ele>
        <time>2025-01-03T15:06:57.889Z</time>
      </trkpt>
      <trkpt lat="48.31556" lon="4.9498">
        <ele>236.2</ele>
        <time>2025-01-03T15:07:04.193Z</time>
      </trkpt>
      <trkpt lat="48.31552" lon="4.94983">
        <ele>235.76</ele>
        <time>2025-01-03T15:07:10.498Z</time>
      </trkpt>
      <trkpt lat="48.31536" lon="4.94995">
        <ele>235.38</ele>
        <time>2025-01-03T15:07:16.806Z</time>
      </trkpt>
      <trkpt lat="48.31521" lon="4.95006">
        <ele>234.94</ele>
        <time>2025-01-03T15:07:23.116Z</time>
      </trkpt>
      <trkpt lat="48.31499" lon="4.95022">
        <ele>234.55</ele>
        <time>2025-01-03T15:07:29.430Z</time>
      </trkpt>
      <trkpt lat="48.3149" lon="4.95028">
        <ele>234.2</ele>
        <time>2025-01-03T15:07:35.746Z</time>
      </trkpt>
      <trkpt lat="48.31486" lon="4.9503">
        <ele>233.89</ele>
        <time>2025-01-03T15:07:42.062Z</time>
      </trkpt>
      <trkpt lat="48.31474" lon="4.95013">
        <ele>233.56</ele>
        <time>2025-01-03T15:07:48.381Z</time>
      </trkpt>
      <trkpt lat="48.31455" lon="4.9498">
        <ele>233.29</ele>
        <time>2025-01-03T15:07:54.705Z</time>
      </trkpt>
      <trkpt lat="48.31435" lon="4.94946">
        <ele>233.01</ele>
        <time>2025-01-03T15:08:01.034Z</time>
      </trkpt>
      <trkpt lat="48.3142" lon="4.94921">
        <ele>232.83</ele>
        <time>2025-01-03T15:08:07.366Z</time>
      </trkpt>
      <trkpt lat="48.31413" lon="4.94909">
        <ele>232.68</ele>
        <time>2025-01-03T15:08:13.700Z</time>
      </trkpt>
      <trkpt lat="48.31407" lon="4.94893">
        <ele>232.55</ele>
        <time>2025-01-03T15:08:20.036Z</time>
      </trkpt>
      <trkpt lat="48.314" lon="4.94874">
        <ele>232.44</ele>
        <time>2025-01-03T15:08:26.374Z</time>
      </trkpt>
      <trkpt lat="48.31394" lon="4.94862">
        <ele>232.34</ele>
        <time>2025-01-03T15:08:32.714Z</time>
      </trkpt>
      <trkpt lat="48.31387" lon="4.94852">
        <ele>232.28</ele>
        <time>2025-01-03T15:08:39.055Z</time>
      </trkpt>
      <trkpt lat="48.31379" lon="4.9485">
        <ele>232.25</ele>
        <time>2025-01-03T15:08:45.398Z</time>
      </trkpt>
      <trkpt lat="48.31367" lon="4.94847">
        <ele>232.25</ele>
        <time>2025-01-03T15:08:51.743Z</time>
      </trkpt>
      <trkpt lat="48.31345" lon="4.94841">
        <ele>232.31</ele>
        <time>2025-01-03T15:08:58.091Z</time>
      </trkpt>
      <trkpt lat="48.31332" lon="4.94838">
        <ele>232.4</ele>
        <time>2025-01-03T15:09:04.441Z</time>
      </trkpt>
      <trkpt lat="48.3132" lon="4.94835">
        <ele>232.52</ele>
        <time>2025-01-03T15:09:10.793Z</time>
      </trkpt>
      <trkpt lat="48.31294" lon="4.94835">
        <ele>232.7</ele>
        <time>2025-01-03T15:09:17.149Z</time>
      </trkpt>
      <trkpt lat="48.31272" lon="4.94837">
        <ele>232.86</ele>
        <time>2025-01-03T15:09:23.509Z</time>
      </trkpt>
      <trkpt lat="48.31249" lon="4.9484">
        <ele>232.92</ele>
        <time>2025-01-03T15:09:29.873Z</time>
      </trkpt>
      <trkpt lat="48.31233" lon="4.94841">
        <ele>233.01</ele>
        <time>2025-01-03T15:09:36.239Z</time>
      </trkpt>
      <trkpt lat="48.31226" lon="4.94842">
        <ele>233.12</ele>
        <time>2025-01-03T15:09:42.606Z</time>
      </trkpt>
      <trkpt lat="48.31223" lon="4.94843">
        <ele>233.25</ele>
        <time>2025-01-03T15:09:48.974Z</time>
      </trkpt>
      <trkpt lat="48.31222" lon="4.94843">
        <ele>233.38</ele>
        <time>2025-01-03T15:09:55.342Z</time>
      </trkpt>
      <trkpt lat="48.3122" lon="4.94844">
        <ele>233.53</ele>
        <time>2025-01-03T15:10:01.710Z</time>
      </trkpt>
      <trkpt lat="48.31211" lon="4.94846">
        <ele>233.68</ele>
        <time>2025-01-03T15:10:08.080Z</time>
      </trkpt>
      <trkpt lat="48.31201" lon="4.9485">
        <ele>233.85</ele>
        <time>2025-01-03T15:10:14.451Z</time>
      </trkpt>
      <trkpt lat="48.31197" lon="4.94853">
        <ele>234.03</ele>
        <time>2025-01-03T15:10:20.823Z</time>
      </trkpt>
      <trkpt lat="48.31198" lon="4.94852">
        <ele>234.23</ele>
        <time>2025-01-03T15:10:27.195Z</time>
      </trkpt>
      <trkpt lat="48.312" lon="4.94851">
        <ele>234.45</ele>
        <time>2025-01-03T15:10:33.568Z</time>
      </trkpt>
      <trkpt lat="48.31206" lon="4.94859">
        <ele>234.67</ele>
        <time>2025-01-03T15:10:39.942Z</time>
      </trkpt>
      <trkpt lat="48.31211" lon="4.94846">
        <ele>234.95</ele>
        <time>2025-01-03T15:10:46.318Z</time>
      </trkpt>
      <trkpt lat="48.31218" lon="4.94844">
        <ele>235.23</ele>
        <time>2025-01-03T15:10:52.695Z</time>
      </trkpt>
      <trkpt lat="48.31224" lon="4.94843">
        <ele>235.55</ele>
        <time>2025-01-03T15:10:59.073Z</time>
      </trkpt>
      <trkpt lat="48.31219" lon="4.94843">
        <ele>235.86</ele>
        <time>2025-01-03T15:11:05.452Z</time>
      </trkpt>
      <trkpt lat="48.31218" lon="4.94844">
        <ele>236.21</ele>
        <time>2025-01-03T15:11:11.831Z</time>
      </trkpt>
      <trkpt lat="48.31204" lon="4.94848">
        <ele>236.57</ele>
        <time>2025-01-03T15:11:18.212Z</time>
      </trkpt>
      <trkpt lat="48.31184" lon="4.94861">
        <ele>237</ele>
        <time>2025-01-03T15:11:24.596Z</time>
      </trkpt>
      <trkpt lat="48.31181" lon="4.94863">
        <ele>237.44</ele>
        <time>2025-01-03T15:11:30.981Z</time>
      </trkpt>
      <trkpt lat="48.31166" lon="4.94873">
        <ele>237.95</ele>
        <time>2025-01-03T15:11:37.369Z</time>
      </trkpt>
      <trkpt lat="48.31144" lon="4.94888">
        <ele>238.48</ele>
        <time>2025-01-03T15:11:43.761Z</time>
      </trkpt>
      <trkpt lat="48.31136" lon="4.94893">
        <ele>239</ele>
        <time>2025-01-03T15:11:50.154Z</time>
      </trkpt>
      <trkpt lat="48.31113" lon="4.94901">
        <ele>239.54</ele>
        <time>2025-01-03T15:11:56.551Z</time>
      </trkpt>
      <trkpt lat="48.31086" lon="4.94908">
        <ele>240.15</ele>
        <time>2025-01-03T15:12:02.952Z</time>
      </trkpt>
      <trkpt lat="48.31067" lon="4.94915">
        <ele>240.74</ele>
        <time>2025-01-03T15:12:09.356Z</time>
      </trkpt>
      <trkpt lat="48.31048" lon="4.94923">
        <ele>241.38</ele>
        <time>2025-01-03T15:12:15.763Z</time>
      </trkpt>
      <trkpt lat="48.31029" lon="4.94931">
        <ele>242.02</ele>
        <time>2025-01-03T15:12:22.174Z</time>
      </trkpt>
      <trkpt lat="48.31009" lon="4.9494">
        <ele>242.69</ele>
        <time>2025-01-03T15:12:28.588Z</time>
      </trkpt>
      <trkpt lat="48.30988" lon="4.94949">
        <ele>243.34</ele>
        <time>2025-01-03T15:12:35.005Z</time>
      </trkpt>
      <trkpt lat="48.30968" lon="4.94958">
        <ele>244.04</ele>
        <time>2025-01-03T15:12:41.426Z</time>
      </trkpt>
      <trkpt lat="48.30948" lon="4.94967">
        <ele>244.7</ele>
        <time>2025-01-03T15:12:47.850Z</time>
      </trkpt>
      <trkpt lat="48.30928" lon="4.94975">
        <ele>245.41</ele>
        <time>2025-01-03T15:12:54.277Z</time>
      </trkpt>
      <trkpt lat="48.30913" lon="4.94984">
        <ele>246.11</ele>
        <time>2025-01-03T15:13:00.707Z</time>
      </trkpt>
      <trkpt lat="48.30898" lon="4.94992">
        <ele>246.8</ele>
        <time>2025-01-03T15:13:07.139Z</time>
      </trkpt>
      <trkpt lat="48.30882" lon="4.95002">
        <ele>247.46</ele>
        <time>2025-01-03T15:13:13.574Z</time>
      </trkpt>
      <trkpt lat="48.30866" lon="4.95011">
        <ele>248.15</ele>
        <time>2025-01-03T15:13:20.012Z</time>
      </trkpt>
      <trkpt lat="48.3085" lon="4.95021">
        <ele>248.83</ele>
        <time>2025-01-03T15:13:26.453Z</time>
      </trkpt>
      <trkpt lat="48.30833" lon="4.9503">
        <ele>249.48</ele>
        <time>2025-01-03T15:13:32.897Z</time>
      </trkpt>
      <trkpt lat="48.30816" lon="4.9504">
        <ele>250.09</ele>
        <time>2025-01-03T15:13:39.344Z</time>
      </trkpt>
      <trkpt lat="48.30799" lon="4.9505">
        <ele>250.63</ele>
        <time>2025-01-03T15:13:45.793Z</time>
      </trkpt>
      <trkpt lat="48.30784" lon="4.95059">
        <ele>251.17</ele>
        <time>2025-01-03T15:13:52.245Z</time>
      </trkpt>
      <trkpt lat="48.30769" lon="4.95068">
        <ele>251.71</ele>
        <time>2025-01-03T15:13:58.700Z</time>
      </trkpt>
      <trkpt lat="48.30752" lon="4.95077">
        <ele>252.26</ele>
        <time>2025-01-03T15:14:05.158Z</time>
      </trkpt>
      <trkpt lat="48.30736" lon="4.95087">
        <ele>252.75</ele>
        <time>2025-01-03T15:14:11.618Z</time>
      </trkpt>
      <trkpt lat="48.3072" lon="4.95094">
        <ele>253.22</ele>
        <time>2025-01-03T15:14:18.081Z</time>
      </trkpt>
      <trkpt lat="48.30703" lon="4.95101">
        <ele>253.59</ele>
        <time>2025-01-03T15:14:24.547Z</time>
      </trkpt>
      <trkpt lat="48.30686" lon="4.95108">
        <ele>253.91</ele>
        <time>2025-01-03T15:14:31.016Z</time>
      </trkpt>
      <trkpt lat="48.30668" lon="4.95114">
        <ele>254.21</ele>
        <time>2025-01-03T15:14:37.488Z</time>
      </trkpt>
      <trkpt lat="48.3065" lon="4.95117">
        <ele>254.49</ele>
        <time>2025-01-03T15:14:43.963Z</time>
      </trkpt>
      <trkpt lat="48.30631" lon="4.95119">
        <ele>254.73</ele>
        <time>2025-01-03T15:14:50.441Z</time>
      </trkpt>
      <trkpt lat="48.30601" lon="4.95117">
        <ele>255.02</ele>
        <time>2025-01-03T15:14:56.923Z</time>
      </trkpt>
      <trkpt lat="48.30586" lon="4.9511">
        <ele>255.25</ele>
        <time>2025-01-03T15:15:03.408Z</time>
      </trkpt>
      <trkpt lat="48.30576" lon="4.95106">
        <ele>255.43</ele>
        <time>2025-01-03T15:15:09.895Z</time>
      </trkpt>
      <trkpt lat="48.30559" lon="4.951">
        <ele>255.56</ele>
        <time>2025-01-03T15:15:16.384Z</time>
      </trkpt>
      <trkpt lat="48.30542" lon="4.95093">
        <ele>255.65</ele>
        <time>2025-01-03T15:15:22.876Z</time>
      </trkpt>
      <trkpt lat="48.30537" lon="4.95093">
        <ele>255.67</ele>
        <time>2025-01-03T15:15:29.369Z</time>
      </trkpt>
      <trkpt lat="48.30517" lon="4.95091">
        <ele>255.67</ele>
        <time>2025-01-03T15:15:35.865Z</time>
      </trkpt>
      <trkpt lat="48.3049" lon="4.95099">
        <ele>255.66</ele>
        <time>2025-01-03T15:15:42.366Z</time>
      </trkpt>
      <trkpt lat="48.30465" lon="4.95112">
        <ele>255.61</ele>
        <time>2025-01-03T15:15:48.871Z</time>
      </trkpt>
      <trkpt lat="48.30443" lon="4.95124">
        <ele>255.46</ele>
        <time>2025-01-03T15:15:55.380Z</time>
      </trkpt>
      <trkpt lat="48.30426" lon="4.95132">
        <ele>255.22</ele>
        <time>2025-01-03T15:16:01.891Z</time>
      </trkpt>
      <trkpt lat="48.3041" lon="4.95139">
        <ele>254.92</ele>
        <time>2025-01-03T15:16:08.405Z</time>
      </trkpt>
      <trkpt lat="48.30391" lon="4.95145">
        <ele>254.61</ele>
        <time>2025-01-03T15:16:14.922Z</time>
      </trkpt>
      <trkpt lat="48.30372" lon="4.95151">
        <ele>254.24</ele>
        <time>2025-01-03T15:16:21.442Z</time>
      </trkpt>
      <trkpt lat="48.30342" lon="4.9516">
        <ele>253.78</ele>
        <time>2025-01-03T15:16:27.967Z</time>
      </trkpt>
      <trkpt lat="48.30336" lon="4.9516">
        <ele>253.37</ele>
        <time>2025-01-03T15:16:34.493Z</time>
      </trkpt>
      <trkpt lat="48.30319" lon="4.95154">
        <ele>252.91</ele>
        <time>2025-01-03T15:16:41.022Z</time>
      </trkpt>
      <trkpt lat="48.30301" lon="4.95147">
        <ele>252.38</ele>
        <time>2025-01-03T15:16:47.554Z</time>
      </trkpt>
      <trkpt lat="48.30285" lon="4.95144">
        <ele>251.86</ele>
        <time>2025-01-03T15:16:54.089Z</time>
      </trkpt>
      <trkpt lat="48.30281" lon="4.95147">
        <ele>251.37</ele>
        <time>2025-01-03T15:17:00.624Z</time>
      </trkpt>
      <trkpt lat="48.30278" lon="4.9515">
        <ele>250.89</ele>
        <time>2025-01-03T15:17:07.160Z</time>
      </trkpt>
      <trkpt lat="48.30261" lon="4.95163">
        <ele>250.34</ele>
        <time>2025-01-03T15:17:13.699Z</time>
      </trkpt>
      <trkpt lat="48.30246" lon="4.95174">
        <ele>249.82</ele>
        <time>2025-01-03T15:17:20.241Z</time>
      </trkpt>
      <trkpt lat="48.30223" lon="4.95173">
        <ele>249.39</ele>
        <time>2025-01-03T15:17:26.786Z</time>
      </trkpt>
      <trkpt lat="48.30199" lon="4.95171">
        <ele>248.99</ele>
        <time>2025-01-03T15:17:33.335Z</time>
      </trkpt>
      <trkpt lat="48.30187" lon="4.95172">
        <ele>248.61</ele>
        <time>2025-01-03T15:17:39.886Z</time>
      </trkpt>
      <trkpt lat="48.30175" lon="4.95177">
        <ele>248.19</ele>
        <time>2025-01-03T15:17:46.439Z</time>
      </trkpt>
      <trkpt lat="48.3017" lon="4.95179">
        <ele>247.81</ele>
        <time>2025-01-03T15:17:52.993Z</time>
      </trkpt>
      <trkpt lat="48.30174" lon="4.95176">
        <ele>247.49</ele>
        <time>2025-01-03T15:17:59.548Z</time>
      </trkpt>
      <trkpt lat="48.30178" lon="4.95173">
        <ele>247.18</ele>
        <time>2025-01-03T15:18:06.103Z</time>
      </trkpt>
      <trkpt lat="48.3018" lon="4.95172">
        <ele>246.88</ele>
        <time>2025-01-03T15:18:12.659Z</time>
      </trkpt>
      <trkpt lat="48.30181" lon="4.95169">
        <ele>246.6</ele>
        <time>2025-01-03T15:18:19.215Z</time>
      </trkpt>
      <trkpt lat="48.3018" lon="4.95168">
        <ele>246.34</ele>
        <time>2025-01-03T15:18:25.771Z</time>
      </trkpt>
      <trkpt lat="48.30173" lon="4.95172">
        <ele>246.06</ele>
        <time>2025-01-03T15:18:32.329Z</time>
      </trkpt>
      <trkpt lat="48.3017" lon="4.95173">
        <ele>245.81</ele>
        <time>2025-01-03T15:18:38.887Z</time>
      </trkpt>
      <trkpt lat="48.30172" lon="4.95172">
        <ele>245.59</ele>
        <time>2025-01-03T15:18:45.445Z</time>
      </trkpt>
      <trkpt lat="48.30174" lon="4.95175">
        <ele>245.36</ele>
        <time>2025-01-03T15:18:52.004Z</time>
      </trkpt>
      <trkpt lat="48.30174" lon="4.95176">
        <ele>245.15</ele>
        <time>2025-01-03T15:18:58.563Z</time>
      </trkpt>
      <trkpt lat="48.30173" lon="4.9518">
        <ele>244.93</ele>
        <time>2025-01-03T15:19:05.122Z</time>
      </trkpt>
      <trkpt lat="48.30178" lon="4.95182">
        <ele>244.74</ele>
        <time>2025-01-03T15:19:11.682Z</time>
      </trkpt>
      <trkpt lat="48.30181" lon="4.9518">
        <ele>244.56</ele>
        <time>2025-01-03T15:19:18.243Z</time>
      </trkpt>
      <trkpt lat="48.30184" lon="4.95172">
        <ele>244.39</ele>
        <time>2025-01-03T15:19:24.805Z</time>
      </trkpt>
      <trkpt lat="48.30186" lon="4.9517">
        <ele>244.2</ele>
        <time>2025-01-03T15:19:31.367Z</time>
      </trkpt>
      <trkpt lat="48.302" lon="4.95169">
        <ele>243.99</ele>
        <time>2025-01-03T15:19:37.931Z</time>
      </trkpt>
      <trkpt lat="48.3022" lon="4.95172">
        <ele>243.76</ele>
        <time>2025-01-03T15:19:44.498Z</time>
      </trkpt>
      <trkpt lat="48.30233" lon="4.95182">
        <ele>243.53</ele>
        <time>2025-01-03T15:19:51.068Z</time>
      </trkpt>
      <trkpt lat="48.3024" lon="4.95198">
        <ele>243.29</ele>
        <time>2025-01-03T15:19:57.640Z</time>
      </trkpt>
      <trkpt lat="48.30252" lon="4.95238">
        <ele>243.04</ele>
        <time>2025-01-03T15:20:04.217Z</time>
      </trkpt>
      <trkpt lat="48.30254" lon="4.95244">
        <ele>242.82</ele>
        <time>2025-01-03T15:20:10.794Z</time>
      </trkpt>
      <trkpt lat="48.30265" lon="4.95277">
        <ele>242.62</ele>
        <time>2025-01-03T15:20:17.375Z</time>
      </trkpt>
      <trkpt lat="48.30273" lon="4.95301">
        <ele>242.39</ele>
        <time>2025-01-03T15:20:23.959Z</time>
      </trkpt>
      <trkpt lat="48.30281" lon="4.95326">
        <ele>242.11</ele>
        <time>2025-01-03T15:20:30.546Z</time>
      </trkpt>
      <trkpt lat="48.30283" lon="4.95333">
        <ele>241.86</ele>
        <time>2025-01-03T15:20:37.134Z</time>
      </trkpt>
      <trkpt lat="48.30288" lon="4.95347">
        <ele>241.6</ele>
        <time>2025-01-03T15:20:43.723Z</time>
      </trkpt>
      <trkpt lat="48.3029" lon="4.95354">
        <ele>241.35</ele>
        <time>2025-01-03T15:20:50.313Z</time>
      </trkpt>
      <trkpt lat="48.30295" lon="4.95368">
        <ele>241.09</ele>
        <time>2025-01-03T15:20:56.905Z</time>
      </trkpt>
      <trkpt lat="48.303" lon="4.95391">
        <ele>240.84</ele>
        <time>2025-01-03T15:21:03.500Z</time>
      </trkpt>
      <trkpt lat="48.303" lon="4.95406">
        <ele>240.61</ele>
        <time>2025-01-03T15:21:10.096Z</time>
      </trkpt>
      <trkpt lat="48.303" lon="4.95429">
        <ele>240.39</ele>
        <time>2025-01-03T15:21:16.695Z</time>
      </trkpt>
      <trkpt lat="48.30294" lon="4.95459">
        <ele>240.18</ele>
        <time>2025-01-03T15:21:23.297Z</time>
      </trkpt>
      <trkpt lat="48.30288" lon="4.95489">
        <ele>239.98</ele>
        <time>2025-01-03T15:21:29.902Z</time>
      </trkpt>
      <trkpt lat="48.30281" lon="4.95515">
        <ele>239.74</ele>
        <time>2025-01-03T15:21:36.510Z</time>
      </trkpt>
      <trkpt lat="48.30274" lon="4.95542">
        <ele>239.5</ele>
        <time>2025-01-03T15:21:43.121Z</time>
      </trkpt>
      <trkpt lat="48.30263" lon="4.9556">
        <ele>239.35</ele>
        <time>2025-01-03T15:21:49.735Z</time>
      </trkpt>
      <trkpt lat="48.30259" lon="4.95566">
        <ele>239.17</ele>
        <time>2025-01-03T15:21:56.350Z</time>
      </trkpt>
      <trkpt lat="48.30247" lon="4.95585">
        <ele>239.02</ele>
        <time>2025-01-03T15:22:02.968Z</time>
      </trkpt>
      <trkpt lat="48.30235" lon="4.95604">
        <ele>238.83</ele>
        <time>2025-01-03T15:22:09.589Z</time>
      </trkpt>
      <trkpt lat="48.30231" lon="4.9561">
        <ele>238.63</ele>
        <time>2025-01-03T15:22:16.210Z</time>
      </trkpt>
      <trkpt lat="48.30227" lon="4.95616">
        <ele>238.42</ele>
        <time>2025-01-03T15:22:22.832Z</time>
      </trkpt>
      <trkpt lat="48.30228" lon="4.9563">
        <ele>238.21</ele>
        <time>2025-01-03T15:22:29.456Z</time>
      </trkpt>
      <trkpt lat="48.30229" lon="4.9566">
        <ele>238.01</ele>
        <time>2025-01-03T15:22:36.083Z</time>
      </trkpt>
      <trkpt lat="48.30231" lon="4.9569">
        <ele>237.77</ele>
        <time>2025-01-03T15:22:42.713Z</time>
      </trkpt>
      <trkpt lat="48.30234" lon="4.95725">
        <ele>237.54</ele>
        <time>2025-01-03T15:22:49.347Z</time>
      </trkpt>
      <trkpt lat="48.30237" lon="4.95751">
        <ele>237.36</ele>
        <time>2025-01-03T15:22:55.984Z</time>
      </trkpt>
      <trkpt lat="48.30239" lon="4.95779">
        <ele>237.23</ele>
        <time>2025-01-03T15:23:02.624Z</time>
      </trkpt>
      <trkpt lat="48.3024" lon="4.95807">
        <ele>237.13</ele>
        <time>2025-01-03T15:23:09.267Z</time>
      </trkpt>
      <trkpt lat="48.30241" lon="4.95816">
        <ele>237.1</ele>
        <time>2025-01-03T15:23:15.911Z</time>
      </trkpt>
      <trkpt lat="48.3024" lon="4.9585">
        <ele>237.13</ele>
        <time>2025-01-03T15:23:22.558Z</time>
      </trkpt>
      <trkpt lat="48.30235" lon="4.95881">
        <ele>237.19</ele>
        <time>2025-01-03T15:23:29.209Z</time>
      </trkpt>
      <trkpt lat="48.30231" lon="4.95912">
        <ele>237.3</ele>
        <time>2025-01-03T15:23:35.863Z</time>
      </trkpt>
      <trkpt lat="48.30226" lon="4.95937">
        <ele>237.47</ele>
        <time>2025-01-03T15:23:42.520Z</time>
      </trkpt>
      <trkpt lat="48.3022" lon="4.95962">
        <ele>237.7</ele>
        <time>2025-01-03T15:23:49.180Z</time>
      </trkpt>
      <trkpt lat="48.30216" lon="4.95985">
        <ele>237.96</ele>
        <time>2025-01-03T15:23:55.842Z</time>
      </trkpt>
      <trkpt lat="48.30211" lon="4.96008">
        <ele>238.34</ele>
        <time>2025-01-03T15:24:02.507Z</time>
      </trkpt>
      <trkpt lat="48.30208" lon="4.96044">
        <ele>238.73</ele>
        <time>2025-01-03T15:24:09.176Z</time>
      </trkpt>
      <trkpt lat="48.30202" lon="4.96062">
        <ele>239.09</ele>
        <time>2025-01-03T15:24:15.847Z</time>
      </trkpt>
      <trkpt lat="48.30178" lon="4.96076">
        <ele>239.41</ele>
        <time>2025-01-03T15:24:22.522Z</time>
      </trkpt>
      <trkpt lat="48.30157" lon="4.96089">
        <ele>239.78</ele>
        <time>2025-01-03T15:24:29.201Z</time>
      </trkpt>
      <trkpt lat="48.30135" lon="4.96102">
        <ele>240.2</ele>
        <time>2025-01-03T15:24:35.884Z</time>
      </trkpt>
      <trkpt lat="48.30113" lon="4.96116">
        <ele>240.66</ele>
        <time>2025-01-03T15:24:42.570Z</time>
      </trkpt>
      <trkpt lat="48.30091" lon="4.96129">
        <ele>241.09</ele>
        <time>2025-01-03T15:24:49.260Z</time>
      </trkpt>
      <trkpt lat="48.30069" lon="4.96143">
        <ele>241.49</ele>
        <time>2025-01-03T15:24:55.954Z</time>
      </trkpt>
      <trkpt lat="48.30046" lon="4.96156">
        <ele>241.96</ele>
        <time>2025-01-03T15:25:02.652Z</time>
      </trkpt>
      <trkpt lat="48.30023" lon="4.9617">
        <ele>242.43</ele>
        <time>2025-01-03T15:25:09.354Z</time>
      </trkpt>
      <trkpt lat="48.3" lon="4.96184">
        <ele>242.9</ele>
        <time>2025-01-03T15:25:16.060Z</time>
      </trkpt>
      <trkpt lat="48.29975" lon="4.96199">
        <ele>243.4</ele>
        <time>2025-01-03T15:25:22.770Z</time>
      </trkpt>
      <trkpt lat="48.2995" lon="4.96214">
        <ele>243.94</ele>
        <time>2025-01-03T15:25:29.485Z</time>
      </trkpt>
      <trkpt lat="48.29929" lon="4.96226">
        <ele>244.49</ele>
        <time>2025-01-03T15:25:36.203Z</time>
      </trkpt>
      <trkpt lat="48.29909" lon="4.96239">
        <ele>245.06</ele>
        <time>2025-01-03T15:25:42.925Z</time>
      </trkpt>
      <trkpt lat="48.29887" lon="4.96252">
        <ele>245.59</ele>
        <time>2025-01-03T15:25:49.650Z</time>
      </trkpt>
      <trkpt lat="48.29865" lon="4.96265">
        <ele>246.08</ele>
        <time>2025-01-03T15:25:56.379Z</time>
      </trkpt>
      <trkpt lat="48.29844" lon="4.96278">
        <ele>246.57</ele>
        <time>2025-01-03T15:26:03.112Z</time>
      </trkpt>
      <trkpt lat="48.29823" lon="4.9629">
        <ele>247.04</ele>
        <time>2025-01-03T15:26:09.848Z</time>
      </trkpt>
      <trkpt lat="48.29798" lon="4.96306">
        <ele>247.48</ele>
        <time>2025-01-03T15:26:16.589Z</time>
      </trkpt>
      <trkpt lat="48.29773" lon="4.96321">
        <ele>247.82</ele>
        <time>2025-01-03T15:26:23.334Z</time>
      </trkpt>
      <trkpt lat="48.29751" lon="4.96334">
        <ele>248.18</ele>
        <time>2025-01-03T15:26:30.083Z</time>
      </trkpt>
      <trkpt lat="48.2973" lon="4.96347">
        <ele>248.54</ele>
        <time>2025-01-03T15:26:36.836Z</time>
      </trkpt>
      <trkpt lat="48.29713" lon="4.96357">
        <ele>248.87</ele>
        <time>2025-01-03T15:26:43.591Z</time>
      </trkpt>
      <trkpt lat="48.29697" lon="4.96366">
        <ele>249.18</ele>
        <time>2025-01-03T15:26:50.349Z</time>
      </trkpt>
      <trkpt lat="48.29693" lon="4.96369">
        <ele>249.43</ele>
        <time>2025-01-03T15:26:57.108Z</time>
      </trkpt>
      <trkpt lat="48.29678" lon="4.96378">
        <ele>249.67</ele>
        <time>2025-01-03T15:27:03.869Z</time>
      </trkpt>
      <trkpt lat="48.29663" lon="4.96387">
        <ele>249.88</ele>
        <time>2025-01-03T15:27:10.633Z</time>
      </trkpt>
      <trkpt lat="48.29647" lon="4.96397">
        <ele>250.03</ele>
        <time>2025-01-03T15:27:17.400Z</time>
      </trkpt>
      <trkpt lat="48.29632" lon="4.96406">
        <ele>250.13</ele>
        <time>2025-01-03T15:27:24.169Z</time>
      </trkpt>
      <trkpt lat="48.29611" lon="4.96419">
        <ele>250.18</ele>
        <time>2025-01-03T15:27:30.942Z</time>
      </trkpt>
      <trkpt lat="48.2959" lon="4.96431">
        <ele>250.3</ele>
        <time>2025-01-03T15:27:37.719Z</time>
      </trkpt>
      <trkpt lat="48.29569" lon="4.96445">
        <ele>250.37</ele>
        <time>2025-01-03T15:27:44.499Z</time>
      </trkpt>
      <trkpt lat="48.29549" lon="4.96459">
        <ele>250.38</ele>
        <time>2025-01-03T15:27:51.283Z</time>
      </trkpt>
      <trkpt lat="48.29531" lon="4.96472">
        <ele>250.33</ele>
        <time>2025-01-03T15:27:58.070Z</time>
      </trkpt>
      <trkpt lat="48.29513" lon="4.96486">
        <ele>250.23</ele>
        <time>2025-01-03T15:28:04.860Z</time>
      </trkpt>
      <trkpt lat="48.2949" lon="4.96504">
        <ele>250.05</ele>
        <time>2025-01-03T15:28:11.655Z</time>
      </trkpt>
      <trkpt lat="48.29466" lon="4.96523">
        <ele>249.86</ele>
        <time>2025-01-03T15:28:18.454Z</time>
      </trkpt>
      <trkpt lat="48.2944" lon="4.96543">
        <ele>249.63</ele>
        <time>2025-01-03T15:28:25.258Z</time>
      </trkpt>
      <trkpt lat="48.29413" lon="4.96563">
        <ele>249.39</ele>
        <time>2025-01-03T15:28:32.066Z</time>
      </trkpt>
      <trkpt lat="48.29388" lon="4.96583">
        <ele>249.11</ele>
        <time>2025-01-03T15:28:38.879Z</time>
      </trkpt>
      <trkpt lat="48.29363" lon="4.96602">
        <ele>248.87</ele>
        <time>2025-01-03T15:28:45.696Z</time>
      </trkpt>
      <trkpt lat="48.29349" lon="4.96613">
        <ele>248.64</ele>
        <time>2025-01-03T15:28:52.516Z</time>
      </trkpt>
      <trkpt lat="48.29325" lon="4.96632">
        <ele>248.4</ele>
        <time>2025-01-03T15:28:59.340Z</time>
      </trkpt>
      <trkpt lat="48.293" lon="4.96651">
        <ele>248.21</ele>
        <time>2025-01-03T15:29:06.169Z</time>
      </trkpt>
      <trkpt lat="48.29273" lon="4.96673">
        <ele>248.04</ele>
        <time>2025-01-03T15:29:13.003Z</time>
      </trkpt>
      <trkpt lat="48.29247" lon="4.96694">
        <ele>247.88</ele>
        <time>2025-01-03T15:29:19.841Z</time>
      </trkpt>
      <trkpt lat="48.29221" lon="4.96715">
        <ele>247.66</ele>
        <time>2025-01-03T15:29:26.684Z</time>
      </trkpt>
      <trkpt lat="48.29209" lon="4.96726">
        <ele>247.46</ele>
        <time>2025-01-03T15:29:33.529Z</time>
      </trkpt>
      <trkpt lat="48.29184" lon="4.96746">
        <ele>247.21</ele>
        <time>2025-01-03T15:29:40.379Z</time>
      </trkpt>
      <trkpt lat="48.29159" lon="4.96766">
        <ele>247.05</ele>
        <time>2025-01-03T15:29:47.233Z</time>
      </trkpt>
      <trkpt lat="48.29146" lon="4.96776">
        <ele>246.92</ele>
        <time>2025-01-03T15:29:54.090Z</time>
      </trkpt>
      <trkpt lat="48.29125" lon="4.96793">
        <ele>246.74</ele>
        <time>2025-01-03T15:30:00.951Z</time>
      </trkpt>
      <trkpt lat="48.29104" lon="4.9681">
        <ele>246.58</ele>
        <time>2025-01-03T15:30:07.815Z</time>
      </trkpt>
      <trkpt lat="48.29083" lon="4.96827">
        <ele>246.34</ele>
        <time>2025-01-03T15:30:14.683Z</time>
      </trkpt>
      <trkpt lat="48.29061" lon="4.96844">
        <ele>246.21</ele>
        <time>2025-01-03T15:30:21.555Z</time>
      </trkpt>
      <trkpt lat="48.29041" lon="4.96861">
        <ele>246.11</ele>
        <time>2025-01-03T15:30:28.431Z</time>
      </trkpt>
      <trkpt lat="48.2902" lon="4.96877">
        <ele>246.07</ele>
        <time>2025-01-03T15:30:35.311Z</time>
      </trkpt>
      <trkpt lat="48.28995" lon="4.96897">
        <ele>246.09</ele>
        <time>2025-01-03T15:30:42.195Z</time>
      </trkpt>
      <trkpt lat="48.2897" lon="4.96917">
        <ele>246.09</ele>
        <time>2025-01-03T15:30:49.084Z</time>
      </trkpt>
      <trkpt lat="48.28964" lon="4.96922">
        <ele>246.08</ele>
        <time>2025-01-03T15:30:55.974Z</time>
      </trkpt>
      <trkpt lat="48.28944" lon="4.96938">
        <ele>246.06</ele>
        <time>2025-01-03T15:31:02.867Z</time>
      </trkpt>
      <trkpt lat="48.28924" lon="4.96954">
        <ele>246.04</ele>
        <time>2025-01-03T15:31:09.764Z</time>
      </trkpt>
      <trkpt lat="48.28901" lon="4.96973">
        <ele>246.05</ele>
        <time>2025-01-03T15:31:16.665Z</time>
      </trkpt>
      <trkpt lat="48.28878" lon="4.96991">
        <ele>246.14</ele>
        <time>2025-01-03T15:31:23.570Z</time>
      </trkpt>
      <trkpt lat="48.28854" lon="4.9701">
        <ele>246.23</ele>
        <time>2025-01-03T15:31:30.480Z</time>
      </trkpt>
      <trkpt lat="48.28831" lon="4.97029">
        <ele>246.35</ele>
        <time>2025-01-03T15:31:37.394Z</time>
      </trkpt>
      <trkpt lat="48.28806" lon="4.97049">
        <ele>246.44</ele>
        <time>2025-01-03T15:31:44.313Z</time>
      </trkpt>
      <trkpt lat="48.28781" lon="4.97069">
        <ele>246.49</ele>
        <time>2025-01-03T15:31:51.236Z</time>
      </trkpt>
      <trkpt lat="48.28756" lon="4.97088">
        <ele>246.66</ele>
        <time>2025-01-03T15:31:58.164Z</time>
      </trkpt>
      <trkpt lat="48.28732" lon="4.97108">
        <ele>246.8</ele>
        <time>2025-01-03T15:32:05.096Z</time>
      </trkpt>
      <trkpt lat="48.28726" lon="4.97113">
        <ele>246.94</ele>
        <time>2025-01-03T15:32:12.029Z</time>
      </trkpt>
      <trkpt lat="48.28699" lon="4.97134">
        <ele>247.06</ele>
        <time>2025-01-03T15:32:18.967Z</time>
      </trkpt>
      <trkpt lat="48.28672" lon="4.97154">
        <ele>247.25</ele>
        <time>2025-01-03T15:32:25.910Z</time>
      </trkpt>
      <trkpt lat="48.28648" lon="4.97173">
        <ele>247.43</ele>
        <time>2025-01-03T15:32:32.857Z</time>
      </trkpt>
      <trkpt lat="48.28624" lon="4.97192">
        <ele>247.59</ele>
        <time>2025-01-03T15:32:39.808Z</time>
      </trkpt>
      <trkpt lat="48.28606" lon="4.97205">
        <ele>247.8</ele>
        <time>2025-01-03T15:32:46.763Z</time>
      </trkpt>
      <trkpt lat="48.28588" lon="4.97218">
        <ele>248.01</ele>
        <time>2025-01-03T15:32:53.721Z</time>
      </trkpt>
      <trkpt lat="48.28567" lon="4.97228">
        <ele>248.21</ele>
        <time>2025-01-03T15:33:00.682Z</time>
      </trkpt>
      <trkpt lat="48.28545" lon="4.97237">
        <ele>248.44</ele>
        <time>2025-01-03T15:33:07.647Z</time>
      </trkpt>
      <trkpt lat="48.28523" lon="4.97239">
        <ele>248.58</ele>
        <time>2025-01-03T15:33:14.616Z</time>
      </trkpt>
      <trkpt lat="48.28501" lon="4.9724">
        <ele>248.75</ele>
        <time>2025-01-03T15:33:21.588Z</time>
      </trkpt>
      <trkpt lat="48.28477" lon="4.97236">
        <ele>248.92</ele>
        <time>2025-01-03T15:33:28.564Z</time>
      </trkpt>
      <trkpt lat="48.28454" lon="4.97231">
        <ele>249.15</ele>
        <time>2025-01-03T15:33:35.544Z</time>
      </trkpt>
      <trkpt lat="48.28435" lon="4.97222">
        <ele>249.34</ele>
        <time>2025-01-03T15:33:42.527Z</time>
      </trkpt>
      <trkpt lat="48.28416" lon="4.97212">
        <ele>249.39</ele>
        <time>2025-01-03T15:33:49.513Z</time>
      </trkpt>
      <trkpt lat="48.28396" lon="4.97194">
        <ele>249.42</ele>
        <time>2025-01-03T15:33:56.503Z</time>
      </trkpt>
      <trkpt lat="48.28377" lon="4.97176">
        <ele>249.47</ele>
        <time>2025-01-03T15:34:03.496Z</time>
      </trkpt>
      <trkpt lat="48.28353" lon="4.9715">
        <ele>249.59</ele>
        <time>2025-01-03T15:34:10.494Z</time>
      </trkpt>
      <trkpt lat="48.28328" lon="4.97123">
        <ele>249.66</ele>
        <time>2025-01-03T15:34:17.497Z</time>
      </trkpt>
      <trkpt lat="48.28309" lon="4.97102">
        <ele>249.82</ele>
        <time>2025-01-03T15:34:24.504Z</time>
      </trkpt>
      <trkpt lat="48.2829" lon="4.9708">
        <ele>249.99</ele>
        <time>2025-01-03T15:34:31.515Z</time>
      </trkpt>
      <trkpt lat="48.28274" lon="4.97062">
        <ele>250.15</ele>
        <time>2025-01-03T15:34:38.529Z</time>
      </trkpt>
      <trkpt lat="48.28258" lon="4.97044">
        <ele>250.3</ele>
        <time>2025-01-03T15:34:45.546Z</time>
      </trkpt>
      <trkpt lat="48.28235" lon="4.97018">
        <ele>250.45</ele>
        <time>2025-01-03T15:34:52.568Z</time>
      </trkpt>
      <trkpt lat="48.28227" lon="4.97009">
        <ele>250.51</ele>
        <time>2025-01-03T15:34:59.591Z</time>
      </trkpt>
      <trkpt lat="48.28217" lon="4.96998">
        <ele>250.53</ele>
        <time>2025-01-03T15:35:06.616Z</time>
      </trkpt>
      <trkpt lat="48.28201" lon="4.9698">
        <ele>250.54</ele>
        <time>2025-01-03T15:35:13.645Z</time>
      </trkpt>
      <trkpt lat="48.28199" lon="4.96977">
        <ele>250.54</ele>
        <time>2025-01-03T15:35:20.674Z</time>
      </trkpt>
      <trkpt lat="48.28199" lon="4.9696">
        <ele>250.51</ele>
        <time>2025-01-03T15:35:27.705Z</time>
      </trkpt>
      <trkpt lat="48.28216" lon="4.96943">
        <ele>250.4</ele>
        <time>2025-01-03T15:35:34.739Z</time>
      </trkpt>
      <trkpt lat="48.28238" lon="4.96921">
        <ele>250.32</ele>
        <time>2025-01-03T15:35:41.777Z</time>
      </trkpt>
      <trkpt lat="48.28264" lon="4.96898">
        <ele>250.21</ele>
        <time>2025-01-03T15:35:48.820Z</time>
      </trkpt>
      <trkpt lat="48.28277" lon="4.96888">
        <ele>250.12</ele>
        <time>2025-01-03T15:35:55.866Z</time>
      </trkpt>
      <trkpt lat="48.28284" lon="4.96877">
        <ele>250.03</ele>
        <time>2025-01-03T15:36:02.913Z</time>
      </trkpt>
      <trkpt lat="48.28295" lon="4.96857">
        <ele>249.95</ele>
        <time>2025-01-03T15:36:09.963Z</time>
      </trkpt>
      <trkpt lat="48.28298" lon="4.96844">
        <ele>249.89</ele>
        <time>2025-01-03T15:36:17.014Z</time>
      </trkpt>
      <trkpt lat="48.28302" lon="4.96819">
        <ele>249.81</ele>
        <time>2025-01-03T15:36:24.068Z</time>
      </trkpt>
      <trkpt lat="48.28304" lon="4.96811">
        <ele>249.73</ele>
        <time>2025-01-03T15:36:31.123Z</time>
      </trkpt>
      <trkpt lat="48.28306" lon="4.96802">
        <ele>249.65</ele>
        <time>2025-01-03T15:36:38.179Z</time>
      </trkpt>
      <trkpt lat="48.28312" lon="4.96789">
        <ele>249.59</ele>
        <time>2025-01-03T15:36:45.237Z</time>
      </trkpt>
      <trkpt lat="48.28318" lon="4.9678">
        <ele>249.53</ele>
        <time>2025-01-03T15:36:52.296Z</time>
      </trkpt>
      <trkpt lat="48.28325" lon="4.96771">
        <ele>249.46</ele>
        <time>2025-01-03T15:36:59.357Z</time>
      </trkpt>
      <trkpt lat="48.28328" lon="4.96765">
        <ele>249.41</ele>
        <time>2025-01-03T15:37:06.418Z</time>
      </trkpt>
      <trkpt lat="48.28329" lon="4.96758">
        <ele>249.39</ele>
        <time>2025-01-03T15:37:13.480Z</time>
      </trkpt>
      <trkpt lat="48.2833" lon="4.9674">
        <ele>249.39</ele>
        <time>2025-01-03T15:37:20.544Z</time>
      </trkpt>
      <trkpt lat="48.2832" lon="4.96713">
        <ele>249.37</ele>
        <time>2025-01-03T15:37:27.611Z</time>
      </trkpt>
      <trkpt lat="48.28309" lon="4.96686">
        <ele>249.45</ele>
        <time>2025-01-03T15:37:34.682Z</time>
      </trkpt>
      <trkpt lat="48.28304" lon="4.96675">
        <ele>249.54</ele>
        <time>2025-01-03T15:37:41.754Z</time>
      </trkpt>
      <trkpt lat="48.2829" lon="4.96641">
        <ele>249.71</ele>
        <time>2025-01-03T15:37:48.830Z</time>
      </trkpt>
      <trkpt lat="48.28288" lon="4.96635">
        <ele>249.85</ele>
        <time>2025-01-03T15:37:55.907Z</time>
      </trkpt>
      <trkpt lat="48.28274" lon="4.96614">
        <ele>250.03</ele>
        <time>2025-01-03T15:38:02.987Z</time>
      </trkpt>
      <trkpt lat="48.28261" lon="4.96593">
        <ele>250.24</ele>
        <time>2025-01-03T15:38:10.070Z</time>
      </trkpt>
      <trkpt lat="48.28258" lon="4.96588">
        <ele>250.47</ele>
        <time>2025-01-03T15:38:17.154Z</time>
      </trkpt>
      <trkpt lat="48.28242" lon="4.96565">
        <ele>250.76</ele>
        <time>2025-01-03T15:38:24.242Z</time>
      </trkpt>
      <trkpt lat="48.28231" lon="4.96544">
        <ele>251.1</ele>
        <time>2025-01-03T15:38:31.333Z</time>
      </trkpt>
      <trkpt lat="48.28219" lon="4.96522">
        <ele>251.51</ele>
        <time>2025-01-03T15:38:38.427Z</time>
      </trkpt>
      <trkpt lat="48.28207" lon="4.96499">
        <ele>251.9</ele>
        <time>2025-01-03T15:38:45.524Z</time>
      </trkpt>
      <trkpt lat="48.28195" lon="4.96476">
        <ele>252.31</ele>
        <time>2025-01-03T15:38:52.624Z</time>
      </trkpt>
      <trkpt lat="48.28185" lon="4.96455">
        <ele>252.77</ele>
        <time>2025-01-03T15:38:59.727Z</time>
      </trkpt>
      <trkpt lat="48.28176" lon="4.96434">
        <ele>253.29</ele>
        <time>2025-01-03T15:39:06.832Z</time>
      </trkpt>
      <trkpt lat="48.28166" lon="4.96412">
        <ele>253.86</ele>
        <time>2025-01-03T15:39:13.940Z</time>
      </trkpt>
      <trkpt lat="48.28157" lon="4.9639">
        <ele>254.5</ele>
        <time>2025-01-03T15:39:21.051Z</time>
      </trkpt>
      <trkpt lat="48.28142" lon="4.96355">
        <ele>255.19</ele>
        <time>2025-01-03T15:39:28.166Z</time>
      </trkpt>
      <trkpt lat="48.28127" lon="4.9632">
        <ele>255.97</ele>
        <time>2025-01-03T15:39:35.286Z</time>
      </trkpt>
      <trkpt lat="48.28117" lon="4.96297">
        <ele>256.83</ele>
        <time>2025-01-03T15:39:42.409Z</time>
      </trkpt>
      <trkpt lat="48.28108" lon="4.96275">
        <ele>257.74</ele>
        <time>2025-01-03T15:39:49.534Z</time>
      </trkpt>
      <trkpt lat="48.28093" lon="4.9624">
        <ele>258.78</ele>
        <time>2025-01-03T15:39:56.664Z</time>
      </trkpt>
      <trkpt lat="48.28079" lon="4.96206">
        <ele>259.89</ele>
        <time>2025-01-03T15:40:03.798Z</time>
      </trkpt>
      <trkpt lat="48.28067" lon="4.96178">
        <ele>261.05</ele>
        <time>2025-01-03T15:40:10.936Z</time>
      </trkpt>
      <trkpt lat="48.28055" lon="4.96149">
        <ele>262.2</ele>
        <time>2025-01-03T15:40:18.077Z</time>
      </trkpt>
      <trkpt lat="48.28042" lon="4.96121">
        <ele>263.45</ele>
        <time>2025-01-03T15:40:25.222Z</time>
      </trkpt>
      <trkpt lat="48.28031" lon="4.96094">
        <ele>264.78</ele>
        <time>2025-01-03T15:40:32.370Z</time>
      </trkpt>
      <trkpt lat="48.2802" lon="4.96068">
        <ele>266.16</ele>
        <time>2025-01-03T15:40:39.522Z</time>
      </trkpt>
      <trkpt lat="48.28009" lon="4.96043">
        <ele>267.54</ele>
        <time>2025-01-03T15:40:46.677Z</time>
      </trkpt>
      <trkpt lat="48.27999" lon="4.96018">
        <ele>268.95</ele>
        <time>2025-01-03T15:40:53.835Z</time>
      </trkpt>
      <trkpt lat="48.27983" lon="4.95981">
        <ele>270.41</ele>
        <time>2025-01-03T15:41:00.998Z</time>
      </trkpt>
      <trkpt lat="48.27969" lon="4.95947">
        <ele>271.89</ele>
        <time>2025-01-03T15:41:08.165Z</time>
      </trkpt>
      <trkpt lat="48.27959" lon="4.95926">
        <ele>273.32</ele>
        <time>2025-01-03T15:41:15.335Z</time>
      </trkpt>
      <trkpt lat="48.27948" lon="4.95905">
        <ele>274.71</ele>
        <time>2025-01-03T15:41:22.508Z</time>
      </trkpt>
      <trkpt lat="48.27934" lon="4.95886">
        <ele>276.1</ele>
        <time>2025-01-03T15:41:29.684Z</time>
      </trkpt>
      <trkpt lat="48.27919" lon="4.95864">
        <ele>277.51</ele>
        <time>2025-01-03T15:41:36.863Z</time>
      </trkpt>
      <trkpt lat="48.27903" lon="4.95842">
        <ele>278.83</ele>
        <time>2025-01-03T15:41:44.045Z</time>
      </trkpt>
      <trkpt lat="48.27897" lon="4.95825">
        <ele>280.03</ele>
        <time>2025-01-03T15:41:51.229Z</time>
      </trkpt>
      <trkpt lat="48.27888" lon="4.95801">
        <ele>281.19</ele>
        <time>2025-01-03T15:41:58.416Z</time>
      </trkpt>
      <trkpt lat="48.27884" lon="4.95776">
        <ele>282.26</ele>
        <time>2025-01-03T15:42:05.606Z</time>
      </trkpt>
      <trkpt lat="48.2788" lon="4.9575">
        <ele>283.23</ele>
        <time>2025-01-03T15:42:12.799Z</time>
      </trkpt>
      <trkpt lat="48.27874" lon="4.95721">
        <ele>284.09</ele>
        <time>2025-01-03T15:42:19.995Z</time>
      </trkpt>
      <trkpt lat="48.27866" lon="4.95688">
        <ele>284.82</ele>
        <time>2025-01-03T15:42:27.195Z</time>
      </trkpt>
      <trkpt lat="48.27859" lon="4.95664">
        <ele>285.42</ele>
        <time>2025-01-03T15:42:34.398Z</time>
      </trkpt>
      <trkpt lat="48.27847" lon="4.95629">
        <ele>285.95</ele>
        <time>2025-01-03T15:42:41.605Z</time>
      </trkpt>
      <trkpt lat="48.27834" lon="4.95596">
        <ele>286.29</ele>
        <time>2025-01-03T15:42:48.816Z</time>
      </trkpt>
      <trkpt lat="48.27816" lon="4.95561">
        <ele>286.46</ele>
        <time>2025-01-03T15:42:56.032Z</time>
      </trkpt>
      <trkpt lat="48.27804" lon="4.95544">
        <ele>286.48</ele>
        <time>2025-01-03T15:43:03.250Z</time>
      </trkpt>
      <trkpt lat="48.27792" lon="4.95527">
        <ele>286.39</ele>
        <time>2025-01-03T15:43:10.471Z</time>
      </trkpt>
      <trkpt lat="48.27776" lon="4.95509">
        <ele>286.18</ele>
        <time>2025-01-03T15:43:17.695Z</time>
      </trkpt>
      <trkpt lat="48.27759" lon="4.9549">
        <ele>285.8</ele>
        <time>2025-01-03T15:43:24.923Z</time>
      </trkpt>
      <trkpt lat="48.27735" lon="4.95464">
        <ele>285.29</ele>
        <time>2025-01-03T15:43:32.155Z</time>
      </trkpt>
      <trkpt lat="48.27712" lon="4.95438">
        <ele>284.74</ele>
        <time>2025-01-03T15:43:39.392Z</time>
      </trkpt>
      <trkpt lat="48.27698" lon="4.95423">
        <ele>284.08</ele>
        <time>2025-01-03T15:43:46.632Z</time>
      </trkpt>
      <trkpt lat="48.27684" lon="4.95407">
        <ele>283.31</ele>
        <time>2025-01-03T15:43:53.875Z</time>
      </trkpt>
      <trkpt lat="48.27672" lon="4.95391">
        <ele>282.47</ele>
        <time>2025-01-03T15:44:01.120Z</time>
      </trkpt>
      <trkpt lat="48.2766" lon="4.95374">
        <ele>281.58</ele>
        <time>2025-01-03T15:44:08.368Z</time>
      </trkpt>
      <trkpt lat="48.2765" lon="4.95347">
        <ele>280.61</ele>
        <time>2025-01-03T15:44:15.619Z</time>
      </trkpt>
      <trkpt lat="48.27641" lon="4.9532">
        <ele>279.69</ele>
        <time>2025-01-03T15:44:22.873Z</time>
      </trkpt>
      <trkpt lat="48.27637" lon="4.95284">
        <ele>278.83</ele>
        <time>2025-01-03T15:44:30.131Z</time>
      </trkpt>
      <trkpt lat="48.27632" lon="4.95248">
        <ele>277.98</ele>
        <time>2025-01-03T15:44:37.393Z</time>
      </trkpt>
      <trkpt lat="48.27632" lon="4.95217">
        <ele>277.12</ele>
        <time>2025-01-03T15:44:44.659Z</time>
      </trkpt>
      <trkpt lat="48.27631" lon="4.95185">
        <ele>276.25</ele>
        <time>2025-01-03T15:44:51.928Z</time>
      </trkpt>
      <trkpt lat="48.27632" lon="4.95167">
        <ele>275.45</ele>
        <time>2025-01-03T15:44:59.199Z</time>
      </trkpt>
      <trkpt lat="48.27633" lon="4.95159">
        <ele>274.73</ele>
        <time>2025-01-03T15:45:06.471Z</time>
      </trkpt>
      <trkpt lat="48.27644" lon="4.95141">
        <ele>274.07</ele>
        <time>2025-01-03T15:45:13.745Z</time>
      </trkpt>
      <trkpt lat="48.27654" lon="4.95123">
        <ele>273.43</ele>
        <time>2025-01-03T15:45:21.022Z</time>
      </trkpt>
      <trkpt lat="48.2767" lon="4.95098">
        <ele>272.92</ele>
        <time>2025-01-03T15:45:28.303Z</time>
      </trkpt>
      <trkpt lat="48.27687" lon="4.95074">
        <ele>272.47</ele>
        <time>2025-01-03T15:45:35.587Z</time>
      </trkpt>
      <trkpt lat="48.27702" lon="4.95052">
        <ele>272.02</ele>
        <time>2025-01-03T15:45:42.875Z</time>
      </trkpt>
      <trkpt lat="48.27717" lon="4.9503">
        <ele>271.54</ele>
        <time>2025-01-03T15:45:50.166Z</time>
      </trkpt>
      <trkpt lat="48.27729" lon="4.95011">
        <ele>271.14</ele>
        <time>2025-01-03T15:45:57.460Z</time>
      </trkpt>
      <trkpt lat="48.27733" lon="4.95005">
        <ele>270.83</ele>
        <time>2025-01-03T15:46:04.755Z</time>
      </trkpt>
      <trkpt lat="48.27736" lon="4.95002">
        <ele>270.55</ele>
        <time>2025-01-03T15:46:12.050Z</time>
      </trkpt>
      <trkpt lat="48.27737" lon="4.95">
        <ele>270.33</ele>
        <time>2025-01-03T15:46:19.346Z</time>
      </trkpt>
      <trkpt lat="48.27738" lon="4.94999">
        <ele>270.15</ele>
        <time>2025-01-03T15:46:26.642Z</time>
      </trkpt>
      <trkpt lat="48.2774" lon="4.94996">
        <ele>270.03</ele>
        <time>2025-01-03T15:46:33.938Z</time>
      </trkpt>
      <trkpt lat="48.27748" lon="4.94975">
        <ele>269.96</ele>
        <time>2025-01-03T15:46:41.237Z</time>
      </trkpt>
      <trkpt lat="48.27749" lon="4.9496">
        <ele>269.97</ele>
        <time>2025-01-03T15:46:48.537Z</time>
      </trkpt>
      <trkpt lat="48.27748" lon="4.94956">
        <ele>270.03</ele>
        <time>2025-01-03T15:46:55.838Z</time>
      </trkpt>
      <trkpt lat="48.27741" lon="4.94939">
        <ele>270.16</ele>
        <time>2025-01-03T15:47:03.141Z</time>
      </trkpt>
      <trkpt lat="48.27736" lon="4.94928">
        <ele>270.29</ele>
        <time>2025-01-03T15:47:10.445Z</time>
      </trkpt>
      <trkpt lat="48.27727" lon="4.94922">
        <ele>270.44</ele>
        <time>2025-01-03T15:47:17.751Z</time>
      </trkpt>
      <trkpt lat="48.27723" lon="4.94919">
        <ele>270.62</ele>
        <time>2025-01-03T15:47:25.058Z</time>
      </trkpt>
      <trkpt lat="48.27714" lon="4.94912">
        <ele>270.84</ele>
        <time>2025-01-03T15:47:32.366Z</time>
      </trkpt>
      <trkpt lat="48.277" lon="4.94903">
        <ele>271.1</ele>
        <time>2025-01-03T15:47:39.677Z</time>
      </trkpt>
      <trkpt lat="48.27685" lon="4.94892">
        <ele>271.29</ele>
        <time>2025-01-03T15:47:46.990Z</time>
      </trkpt>
      <trkpt lat="48.2767" lon="4.94881">
        <ele>271.39</ele>
        <time>2025-01-03T15:47:54.306Z</time>
      </trkpt>
      <trkpt lat="48.27665" lon="4.94878">
        <ele>271.41</ele>
        <time>2025-01-03T15:48:01.623Z</time>
      </trkpt>
      <trkpt lat="48.27653" lon="4.94869">
        <ele>271.36</ele>
        <time>2025-01-03T15:48:08.942Z</time>
      </trkpt>
      <trkpt lat="48.27648" lon="4.94866">
        <ele>271.22</ele>
        <time>2025-01-03T15:48:16.262Z</time>
      </trkpt>
      <trkpt lat="48.27623" lon="4.94846">
        <ele>270.97</ele>
        <time>2025-01-03T15:48:23.587Z</time>
      </trkpt>
      <trkpt lat="48.27614" lon="4.9484">
        <ele>270.75</ele>
        <time>2025-01-03T15:48:30.913Z</time>
      </trkpt>
      <trkpt lat="48.27598" lon="4.9483">
        <ele>270.48</ele>
        <time>2025-01-03T15:48:38.242Z</time>
      </trkpt>
      <trkpt lat="48.27582" lon="4.94821">
        <ele>270.27</ele>
        <time>2025-01-03T15:48:45.574Z</time>
      </trkpt>
      <trkpt lat="48.27571" lon="4.94814">
        <ele>270.14</ele>
        <time>2025-01-03T15:48:52.908Z</time>
      </trkpt>
      <trkpt lat="48.27562" lon="4.94805">
        <ele>270.06</ele>
        <time>2025-01-03T15:49:00.243Z</time>
      </trkpt>
    </trkseg>
  </trk>
</gpx>